[[{"header":{"parameterUnit":"m.s-1","parameterCategory":1,"la1":30.6,"la2":29.2853,"lo1":-89.7004,"lo2":-87.6739,"dy":0.0162,"dx":0.0183,"nx":112,"ny":82,"refTime":"2023-09-05T12:00:00:Z","depth":0,"parameterNumber":2,"parameterNumberName":"U-component_of_WINDS"},"data":[0.0,0.0,0.0,0.0,0.0,0.0,0.0,0.0,0.0,0.0,0.0,0.0,0.0,0.0,0.0,0.0,0.0,0.0,0.0,0.0,0.0,0.0,0.0,0.0,0.0,0.0,0.0,0.0,0.0,0.0,0.0,0.0,0.0,0.0,0.0,0.0,0.0,0.0,0.0,0.0,0.0,0.0,0.0,0.0,0.0,0.0,0.0,0.0,0.0,0.0,0.0,0.0,0.0,0.0,0.0,0.0,0.0,0.0,0.0,0.0,0.0,0.0,0.0,0.0,0.0,0.0,0.0,0.0,0.0,0.0,0.0,0.0,0.0,0.0,0.0,0.0,0.0,0.0,0.0,0.0,0.0,0.0,0.0,0.0,0.0,0.0,0.0,0.0,0.0,0.0,-1.8336,-1.8435,-1.95,-2.021,-2.021,-1.9195,-1.8113,-1.7084,0.0,0.0,0.0,0.0,0.0,0.0,0.0,0.0,0.0,0.0,0.0,0.0,0.0,0.0,0.0,0.0,0.0,0.0,0.0,0.0,0.0,0.0,0.0,0.0,0.0,0.0,0.0,0.0,0.0,0.0,0.0,0.0,0.0,0.0,0.0,0.0,0.0,0.0,0.0,0.0,0.0,0.0,0.0,0.0,0.0,0.0,0.0,0.0,0.0,0.0,0.0,0.0,0.0,0.0,0.0,0.0,0.0,0.0,0.0,0.0,0.0,0.0,0.0,0.0,0.0,0.0,0.0,0.0,0.0,0.0,0.0,0.0,0.0,0.0,0.0,0.0,0.0,0.0,0.0,0.0,0.0,0.0,0.0,0.0,0.0,0.0,0.0,0.0,0.0,0.0,0.0,0.0,0.0,0.0,0.0,0.0,0.0,0.0,0.0,0.0,0.0,0.0,0.0,0.0,-1.8499,-1.9014,-1.9514,-1.98,-1.98,-1.8602,-1.7491,-1.6645,0.0,0.0,0.0,0.0,0.0,0.0,0.0,0.0,0.0,0.0,0.0,0.0,0.0,0.0,0.0,0.0,0.0,0.0,0.0,0.0,0.0,0.0,0.0,0.0,0.0,0.0,0.0,0.0,0.0,0.0,0.0,0.0,0.0,0.0,0.0,0.0,0.0,0.0,0.0,0.0,0.0,0.0,0.0,0.0,0.0,0.0,0.0,0.0,0.0,0.0,0.0,0.0,0.0,0.0,0.0,0.0,0.0,0.0,0.0,0.0,0.0,0.0,0.0,0.0,0.0,0.0,0.0,0.0,0.0,0.0,0.0,0.0,0.0,0.0,0.0,0.0,0.0,0.0,0.0,0.0,0.0,0.0,0.0,0.0,0.0,0.0,0.0,0.0,0.0,0.0,0.0,0.0,0.0,0.0,0.0,0.0,0.0,0.0,0.0,0.0,0.0,0.0,0.0,-1.8135,-1.8312,-1.9358,-1.9602,-1.9708,-1.9708,-1.8132,-1.6974,-1.653,-1.5368,0.0,0.0,0.0,0.0,0.0,0.0,0.0,0.0,0.0,0.0,0.0,0.0,0.0,0.0,0.0,0.0,0.0,0.0,0.0,0.0,0.0,0.0,0.0,0.0,0.0,0.0,0.0,0.0,0.0,0.0,0.0,0.0,0.0,0.0,0.0,0.0,0.0,0.0,0.0,0.0,0.0,0.0,0.0,0.0,0.0,0.0,0.0,0.0,0.0,0.0,0.0,0.0,0.0,0.0,0.0,0.0,0.0,0.0,0.0,0.0,0.0,0.0,0.0,0.0,0.0,0.0,0.0,0.0,0.0,0.0,0.0,0.0,0.0,0.0,0.0,0.0,0.0,0.0,0.0,0.0,0.0,0.0,0.0,0.0,0.0,0.0,0.0,0.0,0.0,0.0,0.0,0.0,0.0,0.0,0.0,0.0,0.0,0.0,0.0,0.0,0.0,0.0,-1.8677,-1.8424,-1.9566,-1.9708,-1.9708,-1.9708,-1.773,-1.6488,-1.6501,-1.446,0.0,0.0,0.0,0.0,0.0,0.0,0.0,0.0,0.0,0.0,0.0,0.0,0.0,0.0,0.0,0.0,0.0,0.0,0.0,0.0,0.0,0.0,0.0,0.0,0.0,0.0,0.0,0.0,0.0,0.0,0.0,0.0,0.0,0.0,0.0,0.0,0.0,0.0,0.0,0.0,0.0,0.0,0.0,0.0,0.0,0.0,0.0,0.0,0.0,0.0,0.0,0.0,0.0,0.0,0.0,0.0,0.0,0.0,0.0,0.0,0.0,0.0,0.0,0.0,0.0,0.0,0.0,0.0,0.0,0.0,0.0,0.0,0.0,0.0,0.0,0.0,0.0,0.0,0.0,0.0,0.0,0.0,0.0,0.0,0.0,0.0,0.0,0.0,0.0,0.0,0.0,0.0,0.0,0.0,0.0,0.0,0.0,0.0,0.0,0.0,0.0,0.0,-1.8999,-1.9246,-1.9654,-1.9708,-1.9708,-1.9708,-1.7342,-1.605,-1.6473,-1.403,0.0,0.0,0.0,0.0,0.0,0.0,0.0,0.0,0.0,0.0,0.0,0.0,0.0,0.0,0.0,0.0,0.0,0.0,0.0,0.0,0.0,0.0,0.0,0.0,0.0,0.0,0.0,0.0,0.0,0.0,0.0,0.0,0.0,0.0,0.0,0.0,0.0,0.0,0.0,0.0,0.0,0.0,0.0,0.0,0.0,0.0,0.0,0.0,0.0,0.0,0.0,0.0,0.0,0.0,0.0,0.0,0.0,0.0,0.0,0.0,0.0,0.0,0.0,0.0,0.0,0.0,0.0,0.0,0.0,0.0,0.0,0.0,0.0,0.0,0.0,0.0,0.0,0.0,0.0,0.0,0.0,0.0,0.0,0.0,0.0,0.0,0.0,0.0,0.0,0.0,0.0,0.0,0.0,0.0,0.0,0.0,0.0,0.0,0.0,0.0,0.0,0.0,-1.903,-1.9336,-1.9669,-1.9708,-1.9528,-1.9106,-1.7057,-1.5815,-1.5876,0.0,0.0,0.0,0.0,0.0,0.0,0.0,0.0,0.0,0.0,0.0,0.0,0.0,0.0,0.0,0.0,0.0,0.0,0.0,0.0,0.0,0.0,0.0,0.0,0.0,0.0,0.0,0.0,0.0,0.0,0.0,0.0,0.0,0.0,0.0,0.0,0.0,0.0,0.0,0.0,0.0,0.0,0.0,0.0,0.0,0.0,0.0,0.0,0.0,0.0,0.0,0.0,0.0,0.0,0.0,0.0,0.0,0.0,0.0,0.0,0.0,0.0,0.0,0.0,0.0,0.0,0.0,0.0,0.0,0.0,0.0,0.0,0.0,0.0,0.0,0.0,0.0,0.0,0.0,0.0,0.0,0.0,0.0,0.0,0.0,0.0,0.0,0.0,0.0,0.0,0.0,0.0,0.0,0.0,0.0,0.0,0.0,0.0,0.0,0.0,0.0,0.0,-1.9095,-1.9262,-1.9444,-1.9681,-1.9708,-1.9438,-1.8762,-1.6728,-1.5492,-1.5507,0.0,0.0,0.0,0.0,0.0,0.0,0.0,0.0,0.0,0.0,0.0,0.0,0.0,0.0,0.0,0.0,0.0,0.0,0.0,0.0,0.0,0.0,0.0,0.0,0.0,0.0,0.0,0.0,0.0,0.0,0.0,0.0,0.0,0.0,0.0,0.0,0.0,0.0,0.0,0.0,0.0,0.0,0.0,0.0,0.0,0.0,0.0,0.0,0.0,0.0,0.0,0.0,0.0,0.0,0.0,0.0,0.0,0.0,0.0,0.0,0.0,0.0,0.0,0.0,0.0,0.0,0.0,0.0,0.0,0.0,0.0,0.0,0.0,0.0,0.0,0.0,0.0,0.0,0.0,0.0,0.0,0.0,0.0,0.0,0.0,0.0,0.0,0.0,0.0,0.0,0.0,0.0,0.0,0.0,0.0,0.0,0.0,0.0,0.0,0.0,0.0,0.0,-1.9829,-1.9774,-1.9708,-1.9708,-1.9708,-1.9438,-1.8747,-1.6323,-1.5008,0.0,0.0,0.0,0.0,0.0,0.0,0.0,0.0,0.0,0.0,0.0,0.0,0.0,0.0,0.0,0.0,0.0,0.0,0.0,0.0,0.0,0.0,0.0,0.0,0.0,0.0,0.0,0.0,0.0,0.0,0.0,0.0,0.0,0.0,0.0,0.0,0.0,0.0,0.0,0.0,0.0,0.0,0.0,0.0,0.0,0.0,0.0,0.0,0.0,0.0,0.0,0.0,0.0,0.0,0.0,0.0,0.0,0.0,0.0,0.0,0.0,0.0,0.0,0.0,0.0,0.0,0.0,0.0,0.0,0.0,0.0,0.0,0.0,0.0,0.0,0.0,0.0,0.0,0.0,0.0,0.0,0.0,0.0,0.0,0.0,0.0,0.0,0.0,0.0,0.0,0.0,0.0,0.0,0.0,0.0,0.0,0.0,0.0,0.0,0.0,0.0,0.0,0.0,-1.9403,-1.9569,-1.9708,-1.9708,-1.9708,-1.9226,-1.8087,-1.6458,-1.5462,-1.5374,0.0,0.0,0.0,0.0,0.0,0.0,0.0,0.0,0.0,0.0,0.0,0.0,0.0,0.0,0.0,0.0,0.0,0.0,0.0,0.0,0.0,0.0,0.0,0.0,0.0,0.0,0.0,0.0,0.0,0.0,0.0,0.0,0.0,0.0,0.0,0.0,0.0,0.0,0.0,0.0,0.0,0.0,0.0,0.0,0.0,0.0,0.0,0.0,0.0,0.0,0.0,0.0,0.0,0.0,0.0,0.0,0.0,0.0,0.0,0.0,0.0,0.0,0.0,0.0,0.0,0.0,0.0,0.0,0.0,0.0,0.0,0.0,0.0,0.0,0.0,0.0,0.0,0.0,0.0,0.0,0.0,0.0,0.0,0.0,0.0,0.0,0.0,0.0,0.0,0.0,0.0,0.0,0.0,0.0,0.0,0.0,0.0,0.0,0.0,0.0,0.0,0.0,-1.9626,-1.9684,-1.9708,-1.9708,-1.9708,-1.9046,-1.7428,-1.6368,-1.5419,-1.4522,0.0,0.0,0.0,0.0,0.0,0.0,0.0,0.0,0.0,0.0,0.0,0.0,0.0,0.0,0.0,0.0,0.0,0.0,0.0,0.0,0.0,0.0,0.0,0.0,0.0,0.0,0.0,0.0,0.0,0.0,0.0,0.0,0.0,0.0,0.0,0.0,0.0,0.0,0.0,0.0,0.0,0.0,0.0,0.0,0.0,0.0,0.0,0.0,0.0,0.0,0.0,0.0,0.0,0.0,0.0,0.0,0.0,0.0,0.0,0.0,0.0,0.0,0.0,0.0,0.0,0.0,0.0,0.0,0.0,0.0,0.0,0.0,0.0,0.0,0.0,0.0,0.0,0.0,0.0,0.0,0.0,0.0,0.0,0.0,0.0,0.0,0.0,0.0,0.0,0.0,0.0,0.0,0.0,0.0,0.0,0.0,0.0,0.0,0.0,0.0,0.0,0.0,-2.0195,-1.9927,-1.9708,-1.9708,-1.9708,-1.8912,-1.6965,-1.6234,-1.5151,-1.348,0.0,0.0,0.0,0.0,0.0,0.0,0.0,0.0,0.0,0.0,0.0,0.0,0.0,0.0,0.0,0.0,0.0,0.0,0.0,0.0,0.0,0.0,0.0,0.0,0.0,0.0,0.0,0.0,0.0,0.0,0.0,0.0,0.0,0.0,0.0,0.0,0.0,0.0,0.0,0.0,0.0,0.0,0.0,0.0,0.0,0.0,0.0,0.0,0.0,0.0,0.0,0.0,0.0,0.0,0.0,0.0,0.0,0.0,0.0,0.0,-1.5957,-1.5806,0.0,0.0,0.0,0.0,0.0,0.0,0.0,0.0,0.0,0.0,0.0,0.0,0.0,0.0,0.0,0.0,0.0,0.0,0.0,0.0,0.0,0.0,0.0,0.0,0.0,0.0,0.0,0.0,0.0,0.0,0.0,0.0,0.0,0.0,0.0,0.0,0.0,0.0,0.0,0.0,-1.9836,-1.9747,-1.9708,-1.9708,-1.9708,-1.9091,-1.7608,-1.6876,-1.5965,-1.47,-1.3855,0.0,0.0,0.0,0.0,0.0,0.0,0.0,0.0,0.0,0.0,0.0,0.0,0.0,0.0,0.0,0.0,0.0,0.0,0.0,0.0,0.0,0.0,0.0,0.0,0.0,0.0,0.0,0.0,0.0,0.0,0.0,0.0,0.0,0.0,0.0,0.0,0.0,0.0,0.0,0.0,0.0,0.0,0.0,0.0,0.0,0.0,0.0,0.0,0.0,0.0,0.0,0.0,0.0,0.0,0.0,0.0,0.0,0.0,0.0,-1.7087,-1.6346,0.0,0.0,0.0,0.0,0.0,0.0,0.0,0.0,0.0,0.0,0.0,0.0,0.0,0.0,0.0,0.0,0.0,0.0,0.0,0.0,0.0,0.0,0.0,0.0,0.0,0.0,0.0,0.0,0.0,0.0,0.0,0.0,0.0,0.0,0.0,0.0,0.0,0.0,0.0,0.0,-1.9708,-1.9708,-1.9708,-1.9708,-1.9708,-1.9151,-1.7818,-1.71,-1.6188,-1.4979,-1.4627,0.0,0.0,0.0,0.0,0.0,0.0,0.0,0.0,0.0,0.0,0.0,0.0,0.0,0.0,0.0,0.0,0.0,0.0,0.0,0.0,0.0,0.0,0.0,0.0,0.0,0.0,0.0,0.0,0.0,0.0,0.0,0.0,0.0,0.0,0.0,0.0,0.0,0.0,0.0,0.0,0.0,0.0,0.0,0.0,0.0,0.0,0.0,0.0,0.0,0.0,0.0,0.0,0.0,-2.2574,-2.2578,-2.2071,-2.2071,-2.1769,-2.1169,-1.9246,-1.784,-1.6914,-1.6726,0.0,0.0,0.0,0.0,0.0,0.0,0.0,0.0,0.0,0.0,0.0,0.0,0.0,0.0,0.0,0.0,0.0,0.0,0.0,0.0,0.0,0.0,-1.8886,-1.9084,-1.9147,-1.9012,-1.8489,0.0,0.0,0.0,0.0,0.0,0.0,0.0,0.0,0.0,0.0,0.0,-1.9708,-1.9708,-1.9708,-1.9708,-1.9708,-1.9196,-1.7983,-1.7264,-1.6323,-1.505,-1.538,-1.5679,0.0,0.0,0.0,0.0,0.0,0.0,0.0,0.0,0.0,0.0,0.0,0.0,0.0,0.0,0.0,0.0,0.0,0.0,0.0,0.0,0.0,0.0,0.0,0.0,0.0,0.0,0.0,0.0,0.0,0.0,0.0,0.0,-1.8179,-1.7302,0.0,0.0,0.0,0.0,0.0,0.0,0.0,0.0,0.0,0.0,0.0,0.0,0.0,-2.2939,-2.3459,-2.4136,-2.4203,-2.3687,-2.4697,-2.4872,-2.4349,-2.4349,-2.4079,-2.3514,-2.2694,0.0,-1.8594,-1.7664,0.0,0.0,0.0,0.0,0.0,0.0,0.0,0.0,0.0,0.0,0.0,0.0,0.0,0.0,0.0,0.0,0.0,0.0,0.0,0.0,0.0,0.0,-2.1049,-1.9953,-1.9699,-1.9661,-1.9598,-1.9255,-1.8835,-1.8296,-1.8262,-1.8439,0.0,0.0,0.0,0.0,0.0,0.0,-1.9708,-1.9708,-1.9708,-1.9708,-1.9708,-1.9393,-1.8625,-1.7953,-1.7026,-1.5754,-1.52,-1.5185,-1.5784,-1.5402,0.0,0.0,0.0,0.0,0.0,0.0,0.0,0.0,0.0,0.0,0.0,0.0,0.0,0.0,0.0,0.0,0.0,0.0,0.0,0.0,0.0,0.0,0.0,0.0,0.0,0.0,0.0,0.0,0.0,-1.9191,-1.9195,-1.7514,-1.8361,-1.8631,0.0,0.0,0.0,0.0,0.0,0.0,0.0,0.0,0.0,-2.4033,-2.4064,-2.4325,-2.4861,-2.5757,-2.6088,-2.585,-2.664,-2.6892,-2.6653,-2.6339,-2.6076,-2.5787,-2.4908,-2.3634,-2.213,-2.0413,-1.9673,-1.9585,0.0,0.0,0.0,0.0,-1.9409,-1.9585,-1.9371,-1.9472,-1.9673,-1.951,0.0,0.0,0.0,0.0,0.0,0.0,0.0,-2.0234,-1.9959,-2.0549,-2.1105,-2.0808,-2.0991,-2.1217,-2.1217,-2.0776,-2.0067,-1.8887,-1.8861,-1.8938,-1.857,-1.8717,0.0,0.0,0.0,-2.0124,-1.9753,-2.0034,-2.0124,-1.9753,-1.9708,-1.9588,-1.9286,-1.8657,-1.7848,-1.6937,-1.6234,-1.6009,-1.6293,-1.6437,-1.6671,0.0,0.0,0.0,0.0,0.0,0.0,0.0,0.0,0.0,0.0,0.0,0.0,0.0,0.0,0.0,0.0,0.0,0.0,0.0,0.0,0.0,0.0,0.0,0.0,0.0,0.0,0.0,0.0,-2.0034,-2.0139,-1.8422,-1.9666,-2.0013,0.0,0.0,0.0,0.0,0.0,0.0,-2.336,-2.4137,-2.497,-2.5801,-2.5848,-2.6126,-2.6666,-2.7507,-2.7921,-2.7921,-2.8335,-2.8536,-2.8524,-2.8109,-2.7846,-2.7657,-2.6816,-2.6151,-2.546,-2.2949,-2.1669,-2.1292,-2.1292,-2.1129,-2.0916,-2.1192,-2.1421,-2.1546,-2.1493,-2.1581,-2.1581,-2.0878,-2.0564,-2.025,-1.9158,0.0,0.0,0.0,0.0,-2.0162,-2.0681,-2.0972,-2.1257,-2.1782,-2.2221,-2.2493,-2.2493,-2.2196,-2.1418,-1.9773,-1.9518,-1.9391,-1.8726,-1.8781,0.0,-1.931,-2.0114,-2.058,-2.0258,-2.0498,-2.0494,-2.0004,-1.9813,-1.9708,-1.9708,-1.9091,-1.8401,-1.7743,-1.707,-1.6696,-1.6696,-1.7174,-1.7415,-1.7354,0.0,0.0,0.0,0.0,0.0,0.0,0.0,0.0,0.0,0.0,0.0,0.0,0.0,0.0,0.0,0.0,0.0,0.0,0.0,0.0,0.0,0.0,0.0,0.0,0.0,0.0,0.0,0.0,0.0,-2.0762,-2.2018,0.0,0.0,0.0,0.0,-2.3589,-2.4229,-2.5117,-2.6215,-2.6332,-2.7087,-2.8624,-2.8699,-2.9001,-2.9578,-2.9641,-2.9666,-2.9666,-2.9691,-2.9704,-2.9704,-2.9679,-2.9365,-2.8813,-2.875,-2.8411,-2.7682,-2.4374,-2.3007,-2.2982,-2.2982,-2.3296,-2.3728,-2.317,-2.3321,-2.3602,-2.2033,-2.1832,-2.2347,-2.2782,-2.2581,-2.1983,-2.0905,-2.0176,0.0,0.0,-2.0228,-2.0795,-2.1322,-2.1848,-2.2343,-2.2895,-2.3045,-2.3058,-2.3058,-2.3045,-2.2531,-2.093,-1.9761,-1.9192,-1.9634,0.0,-1.9364,-2.0435,-2.0651,-2.0921,-2.153,-2.1062,-2.0688,-2.0643,-2.0079,-1.9708,-1.9708,-1.9091,-1.8401,-1.7743,-1.707,-1.6696,-1.6696,-1.6726,-1.7354,-1.8593,-1.8127,0.0,0.0,0.0,0.0,0.0,0.0,0.0,0.0,0.0,0.0,0.0,0.0,0.0,0.0,0.0,0.0,0.0,0.0,0.0,0.0,0.0,0.0,0.0,0.0,0.0,0.0,0.0,0.0,-2.3834,-2.4736,0.0,-2.3445,-2.3539,-2.3908,-2.4436,-2.5668,-2.6873,-2.7984,-2.9063,-2.9754,-3.0005,-2.9979,-2.9942,-2.9792,-2.9792,-2.9792,-2.9792,-2.9792,-2.9792,-2.9779,-2.9402,-2.9088,-2.8875,-2.8549,-2.8285,-2.8009,-2.6829,-2.6126,-2.5799,-2.5799,-2.5711,-2.5594,-2.538,-2.5431,-2.5481,-2.4469,-2.4255,-2.428,-2.3384,-2.2732,-2.2171,-2.1458,-2.1054,-2.0966,-2.1317,-2.1568,-2.1845,-2.2397,-2.2656,-2.2857,-2.3058,-2.3108,-2.3108,-2.3108,-2.3108,-2.2932,-2.2372,-2.1368,-2.0429,-1.9889,-1.9633,-1.9549,-1.9601,-2.026,-2.0679,-2.0493,-2.0649,-2.0577,-2.0103,-1.9837,-1.9698,-1.9702,-1.9091,-1.8401,-1.7743,-1.707,-1.6891,-1.7324,-1.7339,-1.7773,-1.8687,-1.8515,-1.8531,0.0,0.0,0.0,0.0,0.0,0.0,0.0,0.0,0.0,0.0,0.0,0.0,0.0,0.0,0.0,0.0,0.0,0.0,0.0,0.0,0.0,0.0,0.0,0.0,0.0,-2.4675,-2.555,-2.6186,-2.7245,-2.7281,-2.5799,-2.6013,-2.6314,-2.6477,-2.7846,-2.9063,-2.9953,-3.0733,-3.1047,-3.0884,-3.0532,-3.0168,-2.9792,-2.9792,-2.9792,-2.9792,-2.9792,-2.9792,-2.9779,-2.9402,-2.9176,-2.9202,-2.8837,-2.8674,-2.8674,-2.8674,-2.8461,-2.8109,-2.7908,-2.7607,-2.7329,-2.7329,-2.7329,-2.7155,-2.6214,-2.5762,-2.5385,-2.4086,-2.3421,-2.302,-2.251,-2.2334,-2.2372,-2.2518,-2.2556,-2.2644,-2.3007,-2.3108,-2.3108,-2.3108,-2.3108,-2.3108,-2.3108,-2.3108,-2.3108,-2.3108,-2.2397,-2.1531,-2.0778,-2.0348,-2.011,-2.0136,-2.0515,-2.0788,-2.0745,-2.0786,-2.0543,-1.9837,-1.9561,-1.9373,-1.9191,-1.9123,-1.8723,-1.7821,-1.7735,-1.7818,-1.8027,-1.8042,-1.8341,-1.9016,-1.8859,-1.8771,-1.8771,0.0,0.0,0.0,0.0,0.0,0.0,0.0,0.0,0.0,0.0,0.0,0.0,0.0,0.0,0.0,0.0,0.0,0.0,0.0,0.0,0.0,0.0,0.0,-2.5227,-2.6884,-2.8018,-2.7786,-2.945,-2.9779,-2.7645,-2.9377,-3.0419,-2.988,-3.0821,-3.165,-3.2135,-3.1154,-3.0816,-3.1333,-3.0342,-2.979,-2.9792,-2.9792,-2.9792,-2.9792,-2.9792,-2.9792,-2.9792,-2.9792,-2.9792,-2.9792,-2.9792,-2.9792,-2.9792,-2.9792,-2.9792,-2.9741,-2.9176,-2.8913,-2.8913,-2.8913,-2.89,-2.8637,-2.7077,-2.6135,-2.5536,-2.5008,-2.4813,-2.4713,-2.4192,-2.4017,-2.3904,-2.3321,-2.3158,-2.3158,-2.3133,-2.3133,-2.3133,-2.3108,-2.3108,-2.3108,-2.3108,-2.3108,-2.3108,-2.3108,-2.2681,-2.2334,-2.2309,-2.1405,-2.1096,-2.2177,-2.1457,0.0,-2.2341,-2.1482,-2.0557,-1.9982,-1.9347,-1.8735,-1.8196,-1.9197,-1.93,-1.7956,-1.8971,-1.9328,-1.8698,-1.8685,-1.9016,-1.966,-1.9151,-1.8874,-1.8874,0.0,0.0,0.0,0.0,0.0,0.0,0.0,0.0,0.0,0.0,0.0,0.0,0.0,0.0,0.0,0.0,0.0,0.0,0.0,0.0,0.0,-2.6319,-2.8006,-2.8006,-2.8061,-2.8808,-3.0709,-3.0739,-3.0683,-3.0846,-3.1047,-3.1122,-3.0959,-3.1587,-3.165,-3.0924,-3.0977,-3.0748,-3.0109,-2.982,-2.9691,-2.9804,-2.9792,-2.9792,-2.9792,-2.9792,-2.9792,-2.9792,-2.9792,-2.9792,-2.9792,-2.9792,-2.9792,-2.9792,-2.9792,-2.9792,-2.9779,-2.9616,-2.9553,-2.9553,-2.9553,-2.9038,-2.821,-2.7356,-2.6725,-2.6172,-2.5561,-2.5385,-2.5285,-2.4757,-2.4562,-2.4537,-2.4374,-2.4324,-2.4236,-2.3866,-2.3766,-2.3653,-2.3208,-2.3108,-2.3108,-2.3108,-2.3108,-2.3108,-2.3108,-2.2982,-2.2757,-2.2385,-2.1732,-2.1262,-2.1186,-2.0538,-2.0195,-2.0527,-2.0269,-2.0173,-2.0369,-2.0234,-1.993,-1.9379,-1.9197,-1.8581,-1.739,-1.7541,-1.7809,-1.8103,-1.8498,-1.8826,-1.9118,-1.8593,-1.8322,0.0,0.0,0.0,0.0,0.0,0.0,0.0,0.0,0.0,0.0,0.0,0.0,0.0,0.0,0.0,0.0,0.0,0.0,0.0,0.0,0.0,0.0,-2.8291,-3.0253,-3.0368,-3.0075,-3.0419,-3.2026,-3.1876,-3.18,-3.2177,-3.2139,-3.2102,-3.2102,-3.19,-3.1588,-3.1148,-3.0475,-2.9815,-2.9181,-2.8785,-2.8591,-2.8666,-2.8928,-2.9106,-2.9106,-2.9573,-2.9792,-2.9792,-2.9792,-2.9534,-2.9106,-2.9106,-2.9106,-2.9067,-2.8581,-2.8661,-2.9157,0.0,0.0,0.0,0.0,-2.9076,-2.8021,-2.7469,-2.6952,-2.6399,-2.5787,-2.5762,-2.585,-2.531,-2.4872,-2.4558,-2.4753,-2.4504,-2.4189,-2.4323,-2.4343,-2.4255,-2.3898,-2.3634,-2.3534,-2.376,-2.3634,-2.3534,-2.376,-2.3622,0.0,-2.3075,-2.2359,-2.1732,-2.1405,-2.0704,-2.0189,-2.0189,-1.9949,-1.9813,-1.9925,-1.973,-1.9372,-1.8835,-1.8677,0.0,0.0,0.0,-1.788,-1.7979,-1.829,0.0,0.0,0.0,-1.7767,-1.7767,-1.8302,0.0,0.0,-1.9603,-1.9708,0.0,0.0,0.0,0.0,0.0,0.0,0.0,0.0,0.0,0.0,0.0,0.0,0.0,0.0,0.0,0.0,-3.0112,-3.204,-3.2349,-3.2453,-3.2453,-3.2328,-3.2704,-3.283,-3.2441,-3.2817,-3.3174,-3.3257,-3.1981,-3.1416,-3.1859,-2.9727,0.0,0.0,0.0,-2.701,-2.7026,-2.7743,-2.8096,-2.8124,-2.9275,-2.9792,-2.9792,-2.9663,-2.9067,-2.8096,-2.7976,-2.7936,-2.7844,-2.6883,-2.7046,-2.8016,-2.9028,-2.9495,-2.9624,-2.9624,-2.895,-2.7926,-2.7413,0.0,0.0,-2.5827,-2.6058,-2.6487,-2.5937,-2.5163,-2.454,-2.4904,-2.427,-2.369,-2.4517,-2.4636,-2.4558,-2.4484,-2.4208,-2.406,-2.4546,-2.4335,-2.4243,-2.472,-2.4431,-2.4067,-2.4004,-2.3062,-2.2284,-2.2234,-2.1358,-2.0666,-2.0603,-2.0125,-1.9648,-1.9233,-1.8706,0.0,-1.7637,-1.8011,-1.7977,-1.7248,-1.8275,-1.8658,-1.812,-1.8046,-1.7787,-1.7312,-1.7229,-1.7229,-1.7312,-1.7847,-1.838,-1.8912,-1.9442,-1.9708,0.0,0.0,0.0,0.0,0.0,0.0,0.0,0.0,0.0,0.0,0.0,0.0,0.0,0.0,0.0,-3.0295,-3.2214,-3.3492,-3.3545,-3.396,-3.3909,-3.3018,-3.2591,-3.2692,-3.3495,-3.3269,-3.3445,-3.4336,-3.2406,-3.0988,-3.0591,-2.8808,-2.742,-2.6621,-2.6375,-2.6389,-2.6617,-2.7609,-2.8096,-2.8124,-2.9275,0.0,-2.9753,-2.8858,-2.8307,-2.8056,-2.7209,-2.6801,-2.6801,-2.6607,-2.6637,-2.6842,-2.7058,-2.7666,-2.8426,-2.8426,-2.8029,-2.7404,-2.69,-2.6635,-2.6416,-2.5913,-2.6379,-2.714,-2.7027,-2.6536,0.0,-2.6142,-2.545,-2.4612,-2.4367,-2.371,-2.3005,-2.256,-2.2973,-2.3469,-2.3577,-2.4145,-2.4695,-2.4763,-2.4713,-2.4519,-2.4067,-2.3062,-2.2159,-2.1707,-2.1119,-2.0515,-2.0024,-1.9874,-1.9936,-2.0339,-1.9836,-1.9271,-1.8732,-1.841,-1.7771,-1.6722,-1.7272,-1.7787,-1.8086,-1.7686,-1.7415,-1.7312,-1.6879,-1.6879,-1.7312,-1.7847,-1.838,-1.8912,-1.9442,-1.9708,0.0,0.0,0.0,0.0,0.0,0.0,0.0,0.0,0.0,0.0,0.0,-2.6092,0.0,0.0,-3.1047,-3.2416,-3.3583,-3.4311,-3.4311,-3.4311,-3.411,-3.3558,-3.347,-3.3583,-3.3872,-3.3658,-3.3721,-3.4274,-3.1809,-3.0262,-3.0206,-2.7741,-2.6111,-2.5619,-2.5174,-2.503,-2.5165,-2.599,-2.6438,-2.6479,-2.7614,-2.8131,-2.8131,-2.7574,-2.6982,-2.6438,-2.588,-2.563,-2.563,-2.563,-2.5305,-2.4808,-2.4808,-2.5839,-2.7279,-2.7279,-2.6955,-2.6408,-2.5939,-2.5727,-2.5536,-2.4865,-2.5265,-2.5977,-2.5527,-2.5035,-2.4638,-2.4909,-2.4289,-2.3543,-2.3798,-2.3479,-2.3017,-2.2771,-2.2841,-2.3213,-2.3976,-2.4324,-2.4721,-2.5486,-2.541,-2.5121,-2.4845,-2.3891,-2.2874,-2.2033,-2.143,-2.0905,-2.0313,-1.9987,-1.9911,-2.0226,-1.9748,-1.9284,-1.902,-1.8267,-1.7551,-1.6986,-1.6918,-1.7013,-1.7291,-1.7034,-1.6888,-1.6888,-1.6888,-1.7034,-1.7312,-1.8125,-1.8631,-1.8912,-1.9442,-1.9708,0.0,0.0,0.0,0.0,0.0,0.0,0.0,0.0,-2.4888,-2.6691,-2.8122,-2.9515,-3.0984,-3.2428,-3.3583,-3.4123,-3.4395,-3.4554,-3.4693,-3.4145,-3.3707,-3.3715,-3.4135,-3.4274,-3.3935,-3.3809,-3.3822,-3.4035,-3.1174,-2.962,-3.016,-2.7049,-2.5117,-2.4951,-2.4355,-2.3955,-2.3789,-2.4528,-2.4924,-2.4924,-2.5977,-2.6524,-2.6472,-2.6265,-2.5672,-2.4787,-2.4585,-2.4457,-2.4457,-2.4457,-2.392,-2.3091,-2.3091,-2.4221,-2.585,-2.6099,-2.5875,-2.5385,-2.499,-2.484,-2.4684,-2.389,-2.4248,-2.4804,-2.4037,-2.3416,-2.305,-2.3401,-2.2776,-2.2178,-2.2999,-2.3073,-2.2936,-2.2936,-2.2739,-2.2961,-2.4399,-2.446,-2.4662,-2.6202,-2.6021,-2.5598,-2.5598,-2.4883,-2.3891,-2.2648,-2.1995,-2.1443,-2.0918,-2.044,-2.0125,-2.0125,-1.956,-1.907,-1.8857,-1.7953,-1.741,-1.741,-1.6936,-1.6613,-1.65,-1.6701,-1.6776,-1.6685,-1.7307,-1.7705,-1.7809,-1.8804,-1.9286,-1.9265,-1.9686,-1.9828,-1.9874,-2.1119,-2.2523,-2.4531,-2.4469,-2.5159,0.0,0.0,-2.9654,-3.18,-3.2432,-3.2729,-3.3407,-3.4085,-3.468,-3.5219,-3.4485,-3.4023,-3.4607,-3.3717,-3.3041,-3.3195,-3.3219,-3.3432,-3.3859,-3.3458,-3.3571,-3.4562,-3.1373,-2.962,-3.016,-2.7311,-2.5303,-2.4512,-2.4775,-2.4607,-2.3799,-2.4812,-2.534,-2.533,-2.6142,-2.6524,-2.6483,-2.5462,-2.4914,-2.4745,-2.3714,-2.3309,-2.3309,-2.3309,-2.3222,-2.3091,-2.3091,-2.3266,-2.3594,-2.4628,-2.4967,-2.4809,-2.4437,-2.4501,-2.4714,-2.4247,-2.4751,-2.5411,-2.4954,-2.4452,-2.3964,-2.3586,-2.2776,-2.2027,-2.214,-2.1555,-2.0934,-2.0934,-2.1524,-2.2376,-2.343,-2.3943,-2.4662,-2.6202,-2.6021,-2.5598,-2.5598,-2.5498,-2.487,-2.3246,-2.2543,-2.202,-2.1496,-2.1343,-2.1305,-2.1305,-2.0351,-1.9321,-1.838,-1.7739,-1.741,-1.741,-1.7348,-1.7049,-1.6513,-1.7476,-1.779,-1.7322,-1.836,-1.9141,-1.9608,-2.0329,-2.0615,-2.0493,-2.0565,-2.0273,-2.3,-2.3866,-2.4682,0.0,-2.7682,-2.89,-3.121,-3.1712,-3.2051,-3.3307,-3.3809,-3.4211,-3.4705,-3.4994,-3.5332,0.0,-3.4942,-3.4114,-3.4117,-3.307,-3.1903,-3.079,-3.1522,-3.2441,-3.3332,-3.2333,-3.1918,-3.2617,-2.9738,-2.815,-2.8683,-2.6554,-2.5176,-2.4805,-2.4492,-2.415,-2.3799,-2.3958,-2.4038,-2.4082,-2.4356,-2.4655,-2.4925,-2.4445,-2.4237,-2.4193,-2.3728,-2.3335,-2.3091,-2.3091,-2.3091,-2.3091,-2.3091,-2.3091,-2.3178,-2.3627,-2.38,-2.373,-2.334,-2.3481,-2.3733,-2.3089,-2.3441,-2.4053,-2.338,-2.3214,-2.304,-2.2366,-2.1859,-2.1487,-2.1264,-2.0895,-2.0605,-2.0605,-2.0895,-2.1451,-2.2403,-2.3248,-2.4153,-2.5392,-2.5434,-2.546,-2.602,-2.5373,-2.4716,-2.4573,-2.3841,-2.3088,-2.2523,-2.2171,-2.1845,-2.1518,-2.0778,-2.0151,-1.9698,-1.8844,-1.8342,-1.8342,-1.8041,-1.7752,-1.7491,-1.7953,-1.8091,-1.7865,-1.8989,-1.9683,-1.9901,-2.0891,-2.1139,-2.0703,-2.1111,-2.0917,-2.4808,-2.5824,0.0,-2.8411,-3.0331,-3.1938,-3.224,-3.2943,-3.3684,-3.4236,-3.4424,-3.4613,-3.4969,-3.5044,-3.5265,-3.5818,-3.4534,-3.3418,-3.3279,-3.1809,-3.025,-2.9024,-2.9959,-3.1051,-3.1856,-3.1004,-3.0359,-3.0364,-2.8216,-2.7033,-2.7379,-2.6046,-2.5195,-2.5116,-2.459,-2.4209,-2.3965,-2.3652,-2.3452,-2.3442,-2.3208,-2.3383,-2.3965,-2.3965,-2.3965,-2.3955,-2.3838,-2.3613,-2.3266,-2.314,-2.3091,-2.3091,-2.3091,-2.3091,-2.3091,-2.3091,-2.3091,-2.3052,-2.275,-2.2838,-2.2994,-2.2432,-2.2646,-2.2955,-2.2275,-2.2275,-2.2353,-2.158,-2.1375,-2.1378,-2.1382,-2.1194,-2.1086,-2.1521,-2.1191,-2.1084,-2.2341,-2.2951,-2.3584,-2.4571,-2.4767,-2.4979,-2.5557,-2.4975,-2.4654,-2.5339,-2.4995,-2.4418,-2.3659,-2.3095,-2.2498,-2.1794,-2.1257,-2.0855,-2.0704,-1.966,-1.9008,-1.9008,-1.8632,-1.8355,-1.8216,-1.8493,-1.8581,-1.8406,-1.9735,-2.0398,-2.0398,-2.1622,-2.1889,-2.1261,-2.1739,-2.162,-2.4305,-2.6389,-2.9063,-3.0256,-3.18,-3.3307,-3.4374,-3.465,-3.4781,-3.5332,-3.4663,-3.3935,-3.3947,-3.3947,-3.4123,-3.4675,-3.2653,-3.1287,-3.2138,-2.9615,-2.803,-2.8804,-2.8945,-2.8986,-2.9022,-2.9487,-2.9362,-2.83,-2.7394,-2.6896,-2.6907,-2.6129,-2.5518,-2.5125,-2.5459,-2.5216,-2.4404,-2.4385,-2.4375,-2.4365,-2.3491,-2.3539,-2.4394,-2.4394,-2.4394,-2.4375,-2.3965,-2.3779,-2.374,-2.331,-2.3091,-2.3091,-2.3091,-2.3091,-2.3091,-2.3091,-2.3091,-2.3091,-2.3081,-2.3081,-2.3091,-2.3062,-2.3071,-2.3013,-2.2627,-2.25,-2.2422,-2.1992,-2.1865,-2.2134,-2.3151,-2.2656,-2.224,-2.3821,-2.2652,-2.17,-2.3711,-2.3382,-2.3017,-2.4026,-2.4207,-2.4085,-2.3654,-2.4361,-2.4981,-2.5016,-2.5824,-2.6034,-2.4876,-2.4293,-2.3514,-2.241,-2.1794,-2.1282,-2.0742,-1.966,-1.9008,-1.9008,-1.8983,-1.8744,-1.8229,-1.9208,-1.9522,-1.8995,-2.074,-2.1655,-2.1641,-2.2922,-2.3221,-2.2643,-2.2658,-2.2313,-2.7243,-2.8925,-3.0482,-3.234,-3.3483,-3.4462,-3.5554,-3.5529,-3.5069,-3.4562,-3.3269,-3.2127,-3.1788,-3.1725,-3.1821,-3.2192,-3.1425,-3.0626,-3.0123,-2.9063,-2.7651,-2.5721,-2.7039,0.0,0.0,0.0,-2.7403,-2.692,-2.5877,-2.5398,-2.5688,-2.5681,-2.5625,-2.5518,-2.5371,-2.5146,-2.4853,-2.456,-2.4414,-2.4414,-2.4414,-2.457,-2.4863,-2.5156,-2.4923,-2.4414,-2.4268,-2.3877,-2.3305,-2.3159,-2.3091,-2.3091,-2.3091,-2.3091,-2.3091,-2.3091,-2.3091,-2.3222,-2.3963,-2.4211,-2.4339,-2.5094,-2.4851,-2.418,-2.4079,-2.3503,-2.2799,-2.2422,-2.2305,-2.2468,-2.3305,-2.3222,-2.3121,-2.3649,-2.3232,-2.2924,-2.3577,-2.3991,-2.4317,-2.4691,-2.4717,-2.4649,-2.4428,-2.3879,-2.3821,-2.4838,-2.5519,-2.5636,-2.4888,-2.4343,-2.3703,-2.2907,-2.2033,-2.1446,-2.1257,-2.0188,-1.9547,-1.9547,-1.9547,-1.9459,-1.9271,-1.961,-1.9723,-1.9547,-2.0566,-2.1293,-2.1697,-2.2575,-2.29,-2.2703,-2.3122,-2.2972,-2.988,-3.121,-3.2265,-3.4274,-3.5039,-3.5491,-3.6241,-3.5629,-3.4542,-3.3269,-3.1306,-2.9706,-2.9226,-2.8522,-2.8433,-2.973,-2.9228,-2.8614,-2.8538,-2.7875,-2.6767,-2.5027,-2.6336,-2.6404,0.0,0.0,0.0,-2.5248,-2.4824,-2.4697,-2.4834,-2.541,-2.5693,-2.5693,-2.5459,-2.5234,-2.5116,-2.4785,-2.457,-2.4424,-2.5019,-2.5225,-2.5135,-2.5527,-2.5342,-2.4639,-2.4482,-2.4014,-2.3359,-2.3159,-2.3091,-2.3091,-2.3091,-2.3091,-2.3091,-2.3091,-2.3091,-2.3222,-2.392,-2.4457,-2.4914,-2.563,-2.5672,-2.5336,-2.4914,-2.4296,-2.3577,-2.2889,-2.2691,-2.2998,-2.4235,-2.4273,-2.422,-2.5206,-2.4845,-2.4418,-2.4766,-2.5222,-2.5388,-2.4834,-2.4881,-2.472,-2.3902,-2.3153,-2.3269,-2.4964,-2.5294,-2.5255,-2.4843,-2.4506,-2.396,-2.3183,-2.2322,-2.1782,-2.1782,-2.0941,-2.0326,-2.0125,-2.0112,-2.0012,-1.9811,-1.9798,-1.9798,-1.9798,-2.0446,-2.0979,-2.139,-2.2267,-2.2708,-2.2714,-2.3329,-2.3385,-3.2077,-3.3194,-3.4412,-3.6078,-3.643,-3.6367,-3.6367,-3.4977,-3.3201,-3.1521,-2.8799,-2.6615,0.0,0.0,-2.4383,-2.7475,-2.6351,-2.576,-2.7562,-2.6357,-2.5622,0.0,0.0,0.0,0.0,0.0,0.0,-2.3374,-2.4375,-2.493,-2.4473,-2.5216,-2.5693,-2.5693,-2.5693,-2.5527,-2.5155,-2.5145,-2.4893,-2.4492,-2.5284,-2.5518,-2.5117,-2.5547,-2.5488,-2.5086,-2.4609,-2.418,-2.375,-2.3276,-2.3091,-2.3091,-2.3091,-2.3091,-2.3091,-2.3091,-2.3091,-2.3091,-2.3091,-2.3844,-2.483,-2.4872,-2.5588,-2.6224,-2.5126,-2.4745,-2.45,-2.3387,-2.3091,-2.3594,-2.585,-2.5588,-2.5458,-2.8084,-2.7164,-2.6006,-2.6956,-2.6839,-2.6051,-2.4545,-2.4599,-2.4284,-2.2276,-2.2412,-2.3393,-2.5175,-2.5205,-2.4986,-2.4828,-2.4788,-2.4362,-2.3221,-2.2606,-2.2309,-2.2309,-2.1782,-2.1257,-2.0729,-2.0666,-2.0402,-1.9823,-1.9798,-1.9798,-1.9798,-2.0421,-2.0771,-2.0795,-2.2011,-2.2626,-2.2717,-2.329,-2.3573,-3.4129,-3.5203,-3.6078,-3.7274,-3.6659,-3.5708,-3.5708,-3.3089,-3.0168,-2.8588,-2.5541,-2.2871,0.0,0.0,0.0,-2.6012,-2.6596,0.0,-2.9342,-2.8378,0.0,-2.6983,0.0,-2.6655,-2.5891,-2.5863,0.0,-2.4675,-2.493,-2.5067,-2.4912,-2.543,-2.5693,-2.5693,-2.5693,-2.5635,-2.5566,-2.5566,-2.5508,-2.5352,-2.5577,-2.5625,-2.5566,-2.5635,-2.5488,-2.5086,-2.4609,-2.418,-2.375,-2.3276,-2.3091,-2.3091,-2.3091,-2.3091,-2.3091,-2.3091,-2.3091,-2.3091,-2.3091,-2.3844,-2.4957,-2.5797,-2.5672,-2.5168,-2.4872,-2.4211,-2.3464,-2.3178,-2.3091,-2.343,-2.4882,-2.4999,-2.4967,-2.5675,-2.5435,-2.5112,-2.5393,-2.5337,-2.5117,-2.4714,-2.4071,-2.3325,-2.2487,-2.3061,-2.3629,-2.3446,-2.4602,-2.5277,-2.4845,-2.4788,-2.4362,-2.3221,-2.2606,-2.2309,-2.2309,-2.143,-2.0842,-2.0704,-2.0289,-1.9962,-1.9811,-1.9798,-1.9798,-1.9798,-1.9978,-2.0295,-2.0795,-2.114,-2.1775,-2.2694,-2.2852,-2.3179,-3.6219,-3.7036,-3.7599,-3.7914,-3.6724,-3.5169,-3.3997,-3.1005,-2.777,-2.5182,-2.2325,-2.0084,-1.9351,-2.0279,-2.194,0.0,0.0,0.0,-2.8729,-2.8116,-2.7412,0.0,-2.7305,0.0,-2.6317,-2.6475,-2.6406,-2.5957,-2.5752,-2.5566,-2.5371,-2.5781,-2.6025,-2.6025,-2.5791,-2.5693,-2.5693,-2.5693,-2.5693,-2.5693,-2.5693,-2.5693,-2.5693,-2.5693,-2.5488,-2.5106,-2.4805,-2.4453,-2.4043,-2.3799,-2.3594,-2.3428,-2.3428,-2.3257,-2.3091,-2.3091,-2.3091,-2.312,-2.3359,-2.3849,-2.452,-2.5454,-2.5672,-2.5462,-2.4957,-2.4339,-2.3757,-2.3266,-2.3091,-2.3343,-2.45,-2.4787,-2.4914,-2.542,-2.5546,-2.5546,-2.5546,-2.5546,-2.542,-2.4914,-2.3877,-2.3023,-2.2779,-2.3086,-2.3247,-2.2981,-2.3738,-2.4395,-2.4524,-2.4698,-2.4362,-2.3221,-2.2832,-2.2644,-2.2644,-2.2108,-2.1644,-2.1405,-2.1079,-2.079,-2.0552,-2.0313,-2.0175,-2.0175,-2.0175,-2.0384,-2.0772,-2.1014,-2.1649,-2.2564,-2.2638,-2.3125,-3.8065,-3.8542,-3.8781,-3.8153,-3.6646,-3.4542,-3.1718,-2.8716,-2.5418,-2.1607,-1.9219,-1.7707,-1.7363,-1.8116,-1.9695,-2.2475,0.0,-2.4919,-2.7447,-2.701,-2.6807,-2.7725,-2.7783,-2.7598,-2.7217,-2.7471,-2.751,-2.7129,-2.6758,-2.6348,-2.5801,-2.6182,-2.6367,-2.6309,-2.5937,-2.5693,-2.5693,-2.5693,-2.5693,-2.5693,-2.5693,-2.5693,-2.5684,-2.5528,-2.5218,-2.4899,-2.485,-2.4609,-2.4204,-2.4351,-2.4199,-2.3877,-2.3877,-2.3613,-2.3188,-2.3247,-2.3227,-2.3247,-2.3721,-2.3877,-2.3978,-2.4767,-2.5613,-2.6157,-2.5221,-2.4882,-2.4542,-2.342,-2.3091,-2.3343,-2.4339,-2.4585,-2.484,-2.5808,-2.6069,-2.6069,-2.6069,-2.6069,-2.5766,-2.4755,-2.38,-2.3091,-2.3091,-2.2789,-2.2708,-2.3062,-2.2918,-2.3069,-2.391,-2.4362,-2.4247,-2.3333,-2.3145,-2.3108,-2.3108,-2.3032,-2.2794,-2.2347,-2.2246,-2.1995,-2.1506,-2.1056,-2.0805,-2.0805,-2.0805,-2.0805,-2.0805,-2.1327,-2.1852,-2.2403,-2.2515,-2.3275,-3.912,-3.9145,-3.8781,-3.8153,-3.6081,-3.3314,-3.0019,-2.5973,0.0,0.0,-1.6252,-1.4822,-1.4743,-1.6357,-1.8883,-2.2537,-2.3248,-2.4867,-2.9212,-2.8137,-2.7353,0.0,-2.8398,-2.8154,-2.8076,-2.7822,0.0,-2.7559,-2.748,-2.71,-2.6318,-2.6348,-2.6221,-2.581,-2.5732,-2.5693,-2.5693,-2.5693,-2.5693,-2.5693,-2.5693,-2.5693,-2.5635,-2.4559,-2.4011,-2.3919,-2.3532,-2.3292,-2.3306,-2.4076,-2.4375,-2.4307,-2.4307,-2.4053,-2.3721,-2.4062,-2.3975,-2.374,-2.416,-2.4307,-2.447,-2.5661,-2.5855,-2.5592,-2.5484,-2.5134,-2.4542,-2.342,-2.3091,-2.3135,-2.3343,-2.3387,-2.343,-2.3637,-2.3681,-2.3681,-2.3681,-2.3681,-2.3637,-2.343,-2.3266,-2.3091,-2.3091,-2.3033,-2.2807,-2.2231,-2.2727,-2.3126,-2.2965,-2.3303,-2.3636,-2.3823,-2.3396,-2.3108,-2.3108,-2.2681,-2.241,-2.2322,-2.1882,-2.1594,-2.1493,-2.1393,-2.1343,-2.1343,-2.1343,-2.1343,-2.1343,-2.1481,-2.1836,-2.239,-2.2418,-2.3167,-3.8867,-3.9283,-3.8918,-3.7084,-3.4723,-3.1571,-2.6804,0.0,0.0,0.0,-1.4516,-1.3782,-1.3782,-1.6054,0.0,-2.0687,-2.1765,-2.371,-2.7552,-2.6677,-2.6396,-2.8359,-2.8418,-2.8291,-2.8291,-2.8115,-2.7988,-2.7988,-2.7988,-2.7617,-2.6758,-2.6504,-2.6182,-2.5703,-2.5693,-2.5693,-2.5693,-2.5693,-2.5693,-2.5693,-2.5693,-2.5323,-2.4658,-2.3998,-2.3335,-2.2659,-2.2419,-2.2696,-2.3336,-2.3089,-2.3548,-2.4341,-2.3843,-2.3736,-2.3838,-2.4258,-2.4434,-2.4482,-2.4687,-2.4912,-2.5287,-2.6548,-2.6277,-2.5413,-2.5567,-2.524,-2.4542,-2.342,-2.3091,-2.3091,-2.3091,-2.3091,-2.3091,-2.3091,-2.3091,-2.3091,-2.3091,-2.3091,-2.3091,-2.3091,-2.3091,-2.3091,-2.3091,-2.3091,-2.2886,-2.2305,-2.2406,-2.2791,-2.3386,-2.3183,-2.3356,-2.4309,-2.3916,-2.359,-2.359,-2.3339,-2.3062,-2.2732,-2.3037,-2.2962,-2.2372,-2.2347,-2.2347,-2.2347,-2.2071,-2.2058,-2.2347,-2.2058,-2.2201,-2.277,-2.2475,-2.3296,-3.7888,-3.8878,-3.8815,-3.579,-3.3174,-2.9768,-2.3861,-2.0194,0.0,-1.424,-1.3485,-1.3428,-1.3613,-1.5802,-1.7867,0.0,-2.002,-2.2015,-2.5021,-2.4836,-2.5312,0.0,-2.8184,0.0,-2.8291,-2.8291,0.0,-2.8291,-2.7839,-2.739,-2.7,-2.6523,-2.6094,-2.5703,-2.5693,-2.5693,-2.5693,-2.543,-2.5274,-2.5274,-2.4971,-2.4304,-2.3276,-2.2976,-2.2265,-2.1245,-2.1245,-2.1862,-2.2776,-2.2307,-2.2805,-2.3796,-2.3636,-2.3672,-2.3871,-2.4584,-2.5059,-2.5399,-2.5399,-2.5586,-2.6045,-2.7204,-2.6672,-2.556,-2.5714,-2.5325,-2.4542,-2.342,-2.3091,-2.312,-2.3208,-2.3169,-2.3091,-2.3091,-2.3169,-2.3208,-2.311,-2.3169,-2.3208,-2.311,-2.3091,-2.3091,-2.3091,-2.3091,-2.2955,-2.2578,-2.2236,-2.2534,-2.4001,-2.3508,-2.3559,-2.5025,-2.4569,-2.4167,-2.4167,-2.4167,-2.3979,-2.3496,-2.4299,-2.4399,-2.3496,-2.3459,-2.3459,-2.3459,-2.292,-2.2857,-2.3283,-2.2732,-2.2681,-2.3095,-2.2833,-2.3701,-3.6141,-3.7598,-3.8154,-3.4703,-3.1789,-2.8239,-2.2551,0.0,-1.6284,-1.3531,-1.2983,-1.3174,-1.3909,-1.4643,-1.5792,-1.7783,-1.8537,-1.9917,-2.2961,-2.3971,-2.5098,-2.6914,0.0,0.0,-2.8291,-2.8291,-2.8291,-2.8291,-2.642,-2.5796,-2.6919,-2.6191,-2.5732,-2.5693,-2.5693,-2.5693,-2.5693,-2.4501,-2.389,-2.389,-2.2667,-2.2005,-2.1853,-2.0538,-1.9937,-1.9782,-1.9782,-1.9886,-2.0135,-2.2525,-2.2883,-2.2155,-2.4534,-2.476,-2.3929,-2.5582,-2.623,-2.6269,-2.6269,-2.6299,-2.6498,-2.7307,-2.6882,-2.6041,-2.6199,-2.5577,-2.4542,-2.342,-2.3091,-2.3188,-2.3633,-2.3437,-2.3091,-2.3091,-2.3437,-2.3623,-2.3179,-2.3447,-2.3613,-2.3169,-2.3091,-2.3091,-2.3091,-2.3091,-2.2955,-2.2578,-2.248,-2.2877,-2.4045,-2.4111,-2.4643,-2.618,-2.5372,-2.4713,-2.4713,-2.4713,-2.4687,-2.4637,-2.4725,-2.4738,-2.4637,-2.4637,-2.4637,-2.4637,-2.413,-2.3866,-2.3916,-2.3308,-2.3058,-2.3138,-2.3803,-2.457,-3.4197,-3.653,-3.7394,-3.3206,-2.9995,-2.6379,-2.0889,0.0,-1.477,-1.3224,-1.2905,-1.3013,-1.332,-1.373,-1.4473,-1.584,-1.5956,-1.7038,-2.0361,-2.1113,-2.2451,-2.5488,-2.6611,0.0,0.0,0.0,-2.7844,-2.6758,-2.561,-2.4765,-2.4221,-2.3637,-2.3219,-2.2988,-2.297,-2.2912,-2.2729,-2.2236,-2.1936,-2.1945,-2.156,-2.0971,-2.019,-1.9795,-1.9169,-1.8401,-1.8401,-1.8864,-1.9627,-1.993,-2.1022,-2.2571,-2.3353,-2.4167,-2.5047,-2.6303,-2.6768,-2.6728,-2.6475,-2.6387,-2.6408,-2.6443,-2.6006,-2.5619,-2.6132,-2.5765,-2.4863,-2.3499,-2.3286,-2.3516,-2.3418,-2.3227,-2.3159,-2.3467,-2.3467,-2.3418,-2.3516,-2.3457,-2.3305,-2.313,-2.3091,-2.3091,-2.3091,-2.3091,-2.3042,-2.2877,-2.2676,-2.3109,-2.484,-2.4842,-2.5281,-2.6829,-2.595,-2.5285,-2.5285,-2.5285,-2.5159,-2.4813,-2.5435,-2.5511,-2.4813,-2.5121,-2.5285,-2.5285,-2.4757,-2.4644,-2.4958,-2.4418,-2.3948,-2.3653,-2.3976,-2.4341,-3.0858,-3.3636,-3.4836,-3.0816,-2.7561,-2.4111,0.0,0.0,-1.3662,-1.2752,-1.2559,-1.2548,-1.2498,-1.2887,-1.3454,-1.4189,-1.4403,-1.5469,-1.833,-1.9268,-2.086,0.0,0.0,-2.6309,-2.7607,-2.8076,-2.7384,-2.5103,-2.4606,-2.3373,-2.1139,-2.0632,-2.0618,-2.1155,-2.1197,-2.1071,-2.081,-2.0377,-2.0184,-2.0184,-1.9994,-1.943,-1.8608,-1.8774,-1.8421,-1.7582,-1.7582,-1.8146,-1.8968,-1.8401,-1.9494,-2.1595,-2.2066,-2.3117,-2.4439,-2.5487,-2.6262,-2.6612,-2.5652,-2.5838,-2.6434,-2.5408,-2.517,-2.5366,-2.5819,-2.5447,-2.4734,-2.3787,-2.3828,-2.4043,-2.3477,-2.3516,-2.3721,-2.3779,-2.375,-2.3721,-2.3779,-2.3643,-2.3393,-2.314,-2.3091,-2.3091,-2.3091,-2.3091,-2.3091,-2.3091,-2.2847,-2.3382,-2.533,-2.534,-2.5762,-2.7354,-2.6816,-2.6201,-2.5875,-2.6,-2.5875,-2.5335,-2.6189,-2.6386,-2.5573,-2.5749,-2.5925,-2.6088,-2.541,-2.5234,-2.5598,-2.5071,-2.4619,-2.4243,-2.4304,-2.4442,-2.5701,-2.8219,-2.9996,-2.7228,-2.4266,-2.1343,0.0,-1.5684,-1.3176,-1.2054,-1.1814,-1.1756,-1.1547,-1.2061,-1.2634,-1.3059,-1.4383,-1.5869,-1.7217,-1.9255,-2.1085,0.0,0.0,-2.4961,-2.6279,-2.7549,-2.6945,-2.3645,-2.3108,-2.1476,-1.8218,-1.7534,-1.8441,-2.1098,-2.1197,-2.1071,-2.081,-1.9416,-1.8697,-1.8697,-1.7392,-1.6911,-1.7199,-1.7206,-1.736,-1.7582,-1.7582,-1.7635,-1.7733,-1.9013,-1.9005,-1.8299,-2.1018,-2.1684,-2.1347,-2.2731,-2.4447,-2.5811,-2.3524,-2.4603,-2.6652,-2.4404,-2.4609,-2.5596,-2.5243,-2.4509,-2.3922,-2.4287,-2.4717,-2.491,-2.4004,-2.4414,-2.4881,-2.3994,-2.448,-2.4861,-2.3975,-2.4111,-2.4105,-2.3257,-2.3091,-2.3091,-2.3091,-2.3091,-2.3091,-2.3091,-2.3091,-2.3715,-2.5374,-2.559,-2.623,-2.7927,-2.8084,-2.7632,-2.6575,-2.6989,-2.7065,-2.6512,-2.7002,-2.7304,-2.7256,-2.6776,-2.6738,-2.7256,-2.6163,-2.5586,-2.5598,-2.5071,-2.4788,-2.4808,-2.5013,-2.5186,-2.2407,-2.4574,-2.5918,-2.3553,-2.1341,-1.9147,-1.6755,-1.4211,-1.2236,-1.1866,-1.1441,-1.1099,-1.1021,-1.12,-1.1626,-1.247,-1.3783,-1.5086,0.0,0.0,0.0,-2.2807,-2.5391,-2.7002,0.0,-2.7451,-2.6798,-2.4226,-2.3071,-2.149,-1.9246,-1.806,-1.7661,-1.8124,-1.7957,-1.769,-1.7373,-1.695,-1.6718,-1.6718,-1.6501,-1.646,-1.6616,-1.7018,-1.7253,-1.7347,-1.7495,-1.7702,-1.7883,-1.8131,-1.8816,-1.9823,-2.0772,-2.1689,-2.2607,-2.3345,-2.385,-2.3993,-2.3021,-2.3119,-2.3659,-2.3713,-2.3998,-2.4482,-2.5266,-2.5127,-2.4734,-2.4824,-2.4541,-2.4268,-2.4626,-2.4648,-2.4629,-2.4705,-2.4639,-2.4629,-2.4658,-2.4531,-2.4336,-2.4062,-2.3779,-2.3584,-2.3584,-2.3286,-2.3091,-2.3091,-2.3091,-2.3587,-2.4882,-2.5733,-2.6571,-2.7452,-2.8225,-2.8373,-2.7645,-2.7745,-2.777,-2.7595,-2.7745,-2.7846,-2.7846,-2.7318,-2.714,-2.7281,-2.66,-2.6223,-2.6223,-2.6047,-2.5737,-2.5335,-2.5052,-2.4935,0.0,-2.03,-2.1426,-2.0144,-1.8617,0.0,-1.5524,-1.3637,-1.2138,-1.1864,-1.1266,-1.0712,-1.0466,-1.0415,-1.0637,-1.1304,-1.2679,-1.4107,-1.5418,0.0,0.0,-2.2195,0.0,0.0,-2.4767,-2.5426,-2.5243,-2.3649,-2.2183,-2.0822,-1.9514,-1.7958,-1.6921,-1.6553,-1.6473,-1.6239,-1.5784,-1.5784,-1.5838,-1.5999,-1.6072,-1.6226,-1.6446,-1.6757,-1.6991,-1.7213,-1.7393,-1.7589,0.0,-1.7662,-1.8459,-1.9764,-1.9811,-2.0623,-2.1806,-2.1938,-2.2157,-2.2292,-2.1279,-2.1454,-2.2154,-2.2139,-2.2876,-2.3949,-2.5274,-2.5547,-2.5283,-2.5117,-2.4805,-2.4609,-2.5018,-2.499,-2.4941,-2.5086,-2.499,-2.4941,-2.5049,-2.4853,-2.4609,-2.4443,-2.4072,-2.3789,-2.3789,-2.3428,-2.3091,-2.3091,-2.3091,-2.3507,-2.466,-2.542,-2.6296,-2.7486,-2.8217,-2.8658,-2.8725,-2.8536,-2.8335,-2.8122,-2.8298,-2.8411,-2.8411,-2.7883,-2.7695,-2.7896,-2.7369,-2.7014,-2.6801,-2.66,-2.6197,-2.5586,-2.5259,-2.4976,0.0,-1.562,-1.6618,-1.6921,0.0,0.0,-1.4736,-1.3704,0.0,-1.1873,-1.1191,-1.0533,-0.99,-0.9762,-0.9777,-0.9873,-1.1338,-1.3104,0.0,-1.7153,0.0,0.0,-2.112,-2.1089,-2.1007,-2.2099,-2.2684,-2.2308,-2.0679,-1.9587,-1.9207,-1.7386,-1.6342,-1.6321,-1.6533,-1.64,-1.5791,-1.5784,-1.5979,-1.6321,-1.5972,-1.6126,-1.6667,-1.6393,-1.6636,-1.7172,-1.7192,-1.738,-1.7615,-1.7595,-1.7956,-1.8517,-1.8477,-1.8818,-1.9299,-1.8998,-1.9759,-2.0641,-1.8659,-1.9764,-2.1739,-2.0251,-2.1608,-2.4048,-2.5323,-2.5664,-2.5605,-2.5225,-2.5391,-2.5605,-2.5215,-2.543,-2.5635,-2.5215,-2.5439,-2.5577,-2.5205,-2.5117,-2.499,-2.459,-2.417,-2.3887,-2.3887,-2.3496,-2.314,-2.314,-2.311,-2.3464,-2.4542,-2.4745,-2.5619,-2.7763,-2.8044,-2.8557,-2.9702,-2.9302,-2.8737,-2.826,-2.8675,-2.895,-2.895,-2.8461,-2.8398,-2.8888,-2.8386,-2.7833,-2.7281,-2.6801,-2.626,-2.5649,-2.5649,-2.5398,-1.043,0.0,-1.2398,-1.2958,-1.2879,-1.2777,0.0,-1.2685,-1.1848,-1.1166,-1.0491,-0.9963,-0.9771,-0.9508,-0.9651,-1.0568,-1.2155,-1.3626,-1.4705,-1.7869,0.0,-2.0831,-2.182,-2.2134,-2.123,-2.1753,-2.2044,-2.1842,-2.005,-1.9055,-1.9185,-1.7539,-1.6506,-1.6328,-1.6339,-1.6199,-1.5784,-1.5784,-1.5979,-1.6321,-1.5972,-1.6019,-1.6373,-1.6355,-1.6466,-1.682,-1.7099,-1.7448,-1.7862,-1.7675,-1.807,-1.8778,-1.8323,-1.851,-1.8991,-1.8698,-1.8807,-1.9023,-1.8279,-1.8461,-1.9241,-2.0759,-2.3026,-2.5284,-2.5586,-2.5498,-2.5273,-2.5518,-2.541,-2.5283,-2.5518,-2.5615,-2.5664,-2.5605,-2.5615,-2.5664,-2.5605,-2.5586,-2.5557,-2.5401,-2.5068,-2.4812,-2.4812,-2.4141,-2.3633,-2.3633,-2.3305,-2.3222,-2.3464,-2.4253,-2.5336,-2.6719,-2.7602,-2.8557,-2.9702,-2.9666,-2.9528,-2.9402,-2.9515,-2.9591,-2.9591,-2.9038,-2.8762,-2.8888,-2.8386,-2.7833,-2.7281,-2.719,-2.6839,-2.6285,-2.6285,-2.6223,-0.9175,-0.9778,-1.0341,-1.1148,-1.1566,-1.1888,-1.2295,-1.2344,-1.2197,-1.1841,0.0,0.0,-1.0479,-1.0344,-1.0385,-1.0749,-1.2117,-1.3748,0.0,0.0,-1.9407,-1.9987,-2.0209,-2.0089,-1.9592,-1.9694,-1.9964,-2.0506,-1.8699,-1.7927,-1.8735,-1.7183,-1.6233,-1.6072,-1.6072,-1.5992,-1.5784,-1.5784,-1.6046,-1.6466,-1.6172,-1.6259,-1.6717,-1.6449,-1.6433,-1.6714,-1.6874,-1.7208,-1.7629,-1.7595,-1.7956,-1.8435,-1.8115,-1.8268,-1.8691,-1.8397,-1.837,-1.8444,-1.8095,-1.8407,-1.9348,-2.1826,-2.3592,-2.4913,-2.5528,-2.5566,-2.543,-2.5625,-2.5566,-2.543,-2.5625,-2.5693,-2.5693,-2.5693,-2.5693,-2.5693,-2.5693,-2.5693,-2.5693,-2.5693,-2.5371,-2.5116,-2.5116,-2.4521,-2.4014,-2.3818,-2.375,-2.3539,-2.3149,-2.3817,-2.491,-2.6329,-2.7005,-2.8028,-2.9663,-2.9792,-2.9792,-2.9792,-2.9792,-2.9792,-2.9792,-2.949,-2.9327,-2.9327,-2.8775,-2.8335,-2.8034,-2.7783,-2.7369,-2.6876,-2.6876,-2.6738,-0.905,-0.9364,-0.9674,-1.0705,-1.1391,-1.1839,-1.1947,0.0,0.0,0.0,0.0,0.0,0.0,-1.1568,0.0,0.0,0.0,0.0,-1.6437,-1.7117,-1.7728,-1.8661,-1.7846,-1.7259,-1.7368,-1.7213,-1.753,-1.8715,-1.7211,-1.6746,-1.793,-1.66,-1.5784,-1.5784,-1.5784,-1.5784,-1.5784,-1.5784,-1.6106,-1.664,-1.6393,-1.6583,-1.7052,-1.6549,-1.6406,-1.664,-1.664,-1.6834,-1.7219,-1.7467,-1.7722,-1.7989,-1.7935,-1.8156,-1.839,-1.8082,-1.8203,-1.8384,-1.834,-1.9398,-2.1052,-2.3057,-2.384,-2.4205,-2.5382,-2.5693,-2.5693,-2.5693,-2.5693,-2.5693,-2.5693,-2.5693,-2.5693,-2.5693,-2.5693,-2.5693,-2.5693,-2.5693,-2.5693,-2.5693,-2.543,-2.5166,-2.5166,-2.4805,-2.4375,-2.3945,-2.4189,-2.4131,-2.3296,-2.3613,-2.4571,-2.639,-2.6584,-2.7464,-2.9636,-2.9792,-2.9792,-2.9792,-2.9792,-2.9792,-2.9792,-2.9792,-2.9792,-2.9792,-2.9315,-2.8976,-2.8888,-2.8461,-2.7946,-2.7406,-2.7406,-2.719,-0.8727,-0.9255,-0.9912,-1.1296,-1.1715,-1.1972,-1.2584,-1.2822,0.0,0.0,0.0,0.0,0.0,-1.2329,-1.2494,0.0,0.0,-1.4402,-1.5769,-1.6483,-1.6817,-1.6757,-1.6992,-1.7025,-1.6569,-1.6482,-1.6605,-1.7048,-1.6323,-1.6101,-1.6593,-1.6081,-1.5784,-1.5784,-1.5784,-1.5784,-1.5784,-1.5784,-1.6005,-1.6339,-1.6342,-1.6368,-1.6455,-1.6362,-1.6299,-1.6339,-1.6339,-1.6697,-1.7206,-1.7246,-1.7542,-1.7969,-1.7756,-1.7842,-1.8055,-1.8009,-1.8022,-1.8266,-1.9359,-2.1474,-2.3688,-2.3718,-2.4452,-2.543,-2.5635,-2.5693,-2.5693,-2.5693,-2.5693,-2.5693,-2.5693,-2.5693,-2.5693,-2.5693,-2.5693,-2.5693,-2.5693,-2.5693,-2.5693,-2.5693,-2.5635,-2.5586,-2.5586,-2.5264,-2.4824,-2.4385,-2.4375,-2.4238,-2.375,-2.4053,-2.4982,-2.6794,-2.7004,-2.7764,-2.9622,-2.9792,-2.9792,-2.9792,-2.9792,-2.9792,-2.9792,-2.9792,-2.9792,-2.9792,-2.9704,-2.9415,-2.8888,-2.8813,-2.8511,-2.7984,-2.7984,-2.7934,-0.8812,-0.9563,-1.035,-1.1673,-1.2254,-1.2532,-1.2672,-1.2793,-1.2851,0.0,0.0,0.0,0.0,0.0,-1.3608,-1.4206,-1.5287,-1.592,-1.5631,-1.6099,-1.642,-1.6286,-1.6563,-1.6683,-1.652,-1.6366,-1.6326,-1.646,-1.6072,-1.5885,-1.6025,-1.5905,-1.5784,-1.5784,-1.5784,-1.5784,-1.5784,-1.5784,-1.5979,-1.6321,-1.6321,-1.6359,-1.65,-1.6395,-1.6321,-1.6321,-1.6321,-1.6513,-1.6921,-1.7132,-1.7402,-1.7782,-1.7642,-1.7669,-1.7936,-1.905,-1.9757,-2.0469,-2.2059,-2.3298,-2.4256,-2.4641,-2.5177,-2.5693,-2.5693,-2.5693,-2.5693,-2.5693,-2.5693,-2.5693,-2.5693,-2.5693,-2.5693,-2.5693,-2.5557,-2.5439,-2.5635,-2.5547,-2.5449,-2.5645,-2.5693,-2.5693,-2.5693,-2.5566,-2.5283,-2.4834,-2.4971,-2.4893,-2.4219,-2.4502,-2.5493,-2.7346,-2.7549,-2.8249,-3.0072,-3.0495,-3.0407,-2.9829,-2.9792,-2.9792,-2.9792,-2.9792,-2.9792,-2.9792,-2.9792,-2.9666,-2.9402,-2.9402,-2.9101,-2.8512,-2.8512,-2.8398,-0.8846,-0.9821,-1.0779,-1.1762,-1.2532,-1.3054,-1.3027,-1.3059,-1.3192,0.0,0.0,0.0,0.0,-1.3385,-1.4452,-1.533,-1.641,-1.6829,-1.5846,-1.6032,-1.6299,-1.6366,-1.6362,-1.6333,-1.6486,-1.6299,-1.6166,-1.6166,-1.5959,-1.5784,-1.5784,-1.5784,-1.5784,-1.5784,-1.5784,-1.5784,-1.5784,-1.5784,-1.5945,-1.6166,-1.6239,-1.6353,-1.6493,-1.6346,-1.6239,-1.6166,-1.6166,-1.6373,-1.6727,-1.6998,-1.7306,-1.7582,-1.7582,-1.7669,-1.8063,-2.0084,-2.1526,-2.2714,-2.4245,-2.4778,-2.4859,-2.5496,-2.5693,-2.5693,-2.5693,-2.5693,-2.5693,-2.5693,-2.5693,-2.5693,-2.5693,-2.5693,-2.5693,-2.5693,-2.5478,-2.5322,-2.5615,-2.5469,-2.5322,-2.5625,-2.5693,-2.5693,-2.5693,-2.5693,-2.5538,-2.5184,-2.5449,-2.5411,-2.4668,-2.4951,-2.5865,-2.7446,-2.7877,-2.8811,-3.0633,-3.1047,-3.0859,-3.0043,-2.9867,-2.9792,-2.9792,-2.9792,-2.9792,-2.9792,-2.9792,-2.9792,-2.9792,-2.9792,-2.9566,-2.9126,-2.9126,-2.89,-0.8438,-0.9745,-1.1047,-1.1375,-1.2186,-1.3221,-1.4369,-1.4084,-1.3826,-1.478,0.0,0.0,0.0,-1.4013,-1.4719,-1.5854,-1.5789,-1.5799,-1.65,-1.642,-1.6373,-1.664,-1.6433,-1.6172,-1.5871,-1.5872,-1.5865,-1.5865,-1.5791,-1.5784,-1.5784,-1.5784,-1.5784,-1.5784,-1.5784,-1.5784,-1.5784,-1.5784,-1.5791,-1.5818,-1.6139,-1.6139,-1.5851,-1.6159,-1.6119,-1.5865,-1.5865,-1.6186,-1.6707,-1.6727,-1.7074,-1.7582,-1.7582,-1.7929,-1.8623,-2.0446,-2.2166,-2.3781,-2.4518,-2.5651,-2.6674,-2.5957,-2.5693,-2.5693,-2.5693,-2.5693,-2.5693,-2.5693,-2.5693,-2.5693,-2.5693,-2.5693,-2.5693,-2.5693,-2.5664,-2.5645,-2.5684,-2.5664,-2.5654,-2.5684,-2.5693,-2.5693,-2.5693,-2.5693,-2.5538,-2.5184,-2.5449,-2.5566,-2.5135,-2.541,-2.593,-2.6691,-2.7849,-2.93,-3.1169,-3.0922,-3.0633,-3.0557,-3.008,-2.9792,-2.9792,-2.9792,-2.9792,-2.9792,-2.9792,-2.9792,-2.9792,-2.9792,-2.9779,-2.9729,-2.9729,-2.9704,-0.8349,-0.9555,-1.0854,-1.0992,-1.1729,0.0,0.0,-1.421,-1.3688,-1.5106,-1.438,0.0,0.0,0.0,-1.5157,-1.5365,-1.6221,-1.6659,-1.6209,-1.6226,-1.6246,-1.6166,-1.6066,-1.5952,-1.5791,-1.5784,-1.5784,-1.5784,-1.5784,-1.5784,-1.5784,-1.5658,-1.5645,-1.5771,-1.5651,-1.5645,-1.5784,-1.5784,-1.5784,-1.5784,-1.5945,-1.5939,-1.5784,-1.5945,-1.5939,-1.5784,-1.5784,-1.6059,-1.6446,-1.6627,-1.6947,-1.74,-1.7722,-1.8534,-1.9621,-2.051,-2.2183,-2.4044,-2.4387,-2.5232,-2.6122,-2.5791,-2.5693,-2.5693,-2.5693,-2.5693,-2.5693,-2.5693,-2.5693,-2.5693,-2.5693,-2.5693,-2.5693,-2.5693,-2.5527,-2.54,-2.5625,-2.5518,-2.54,-2.5635,-2.5693,-2.5693,-2.5693,-2.5693,-2.5635,-2.5508,-2.5586,-2.5625,-2.5508,-2.5635,-2.6089,-2.715,-2.8757,-3.0454,-3.2289,-3.1612,-3.1248,-3.1587,-3.047,-2.9792,-2.9792,-2.9792,-2.9792,-2.9792,-2.9792,-2.9792,-2.9792,-2.9792,-2.9792,-2.9792,-2.9792,-2.9792,-0.7965,-0.9075,-1.0352,-1.0657,0.0,0.0,-1.4988,-1.4363,-1.3819,-1.5708,-1.4741,-1.3693,-1.4035,0.0,-1.5024,-1.4879,-1.6113,-1.6838,-1.6048,-1.6059,-1.6092,-1.5979,-1.5838,-1.5784,-1.5784,-1.5784,-1.5784,-1.5784,-1.5784,-1.5744,-1.5698,-1.5504,-1.5444,-1.5551,-1.5451,-1.5491,-1.5691,-1.5785,-1.5784,-1.5784,-1.5784,-1.5784,-1.5784,-1.5784,-1.5784,-1.5784,-1.5784,-1.5999,-1.6342,-1.6587,-1.6934,-1.74,-1.7949,-1.8767,-1.9693,-2.0535,-2.184,-2.3244,-2.3581,-2.4359,-2.5241,-2.5117,-2.5333,-2.5693,-2.5693,-2.5693,-2.5693,-2.5693,-2.5693,-2.5693,-2.5693,-2.5693,-2.5723,-2.5908,-2.5605,-2.5361,-2.5625,-2.5605,-2.5576,-2.5889,-2.5947,-2.5947,-2.5947,-2.5781,-2.5693,-2.5693,-2.5693,-2.5693,-2.5693,-2.5693,-2.6332,-2.7992,-2.9331,-3.0886,-3.2945,-3.2202,-3.1738,-3.1938,-3.0909,-3.0218,-3.0055,-2.988,-2.9792,-2.9792,-2.9792,-2.9792,-2.9792,-2.9792,-2.9792,-2.9792,-2.9792,-2.9792,-0.7173,-0.8202,-0.9605,-1.0413,0.0,0.0,-1.5217,-1.4716,-1.4415,-1.6645,-1.522,-1.37,-1.4035,-1.4088,-1.4182,-1.4476,-1.5251,-1.5925,-1.6219,-1.6012,-1.5932,-1.6274,-1.6005,-1.5778,-1.5771,-1.5778,-1.5778,-1.5771,-1.5771,-1.5698,-1.5404,-1.5391,-1.5257,-1.5015,-1.5244,-1.5391,-1.5398,-1.5685,-1.5784,-1.5784,-1.5784,-1.5784,-1.5784,-1.5784,-1.5784,-1.5784,-1.5784,-1.5999,-1.6342,-1.6587,-1.7054,-1.7642,-1.825,-1.849,-1.8684,-2.0419,-2.114,-2.1271,-2.2039,-2.3135,-2.4197,-2.3818,-2.4609,-2.5684,-2.5693,-2.5693,-2.5693,-2.5693,-2.5693,-2.5693,-2.5693,-2.5693,-2.5801,-2.6279,-2.6055,-2.5693,-2.5693,-2.6074,-2.6387,-2.6387,-2.6387,-2.6387,-2.6387,-2.6025,-2.5693,-2.5693,-2.5693,-2.5693,-2.5693,-2.5693,-2.6658,-2.9131,-2.9361,-3.0373,-3.2884,-3.2541,-3.1989,-3.1436,-3.1399,-3.116,-3.0633,-3.0093,-2.9804,-2.9792,-2.9792,-2.9792,-2.9792,-2.9792,-2.9792,-2.9792,-2.9792,-2.9792,-0.8541,-0.9448,-1.0819,-1.1831,0.0,0.0,0.0,-1.4859,0.0,0.0,-1.4888,-1.4246,-1.4376,-1.4222,-1.4182,-1.4476,-1.4917,-1.5324,-1.5618,-1.5585,-1.5478,-1.541,-1.5458,-1.5444,-1.5244,-1.5591,-1.5658,-1.5251,-1.5411,-1.5398,-1.511,-1.4897,-1.4836,-1.5008,-1.5095,-1.519,-1.5391,-1.5685,-1.5784,-1.5784,-1.5784,-1.5784,-1.5784,-1.5784,-1.5784,-1.5784,-1.5784,-1.5999,-1.6362,-1.6864,-1.7293,-1.7622,-1.8023,-1.8129,-1.819,-1.8748,-1.9571,-2.0406,-2.039,-2.1304,-2.2603,-2.342,-2.3949,-2.4452,-2.543,-2.5693,-2.5693,-2.5693,-2.5693,-2.5762,-2.6113,-2.5967,-2.5723,-2.5849,-2.5781,-2.5693,-2.5693,-2.5791,-2.6025,-2.6328,-2.6143,-2.6025,-2.6338,-2.6025,-2.5693,-2.5693,-2.5693,-2.5693,-2.5693,-2.5693,-2.6342,-2.7955,-2.8132,-2.9143,-3.1545,-3.1576,-3.1822,-3.2536,-3.219,-3.1386,-3.0093,-3.0256,-3.0193,-2.9804,-2.9792,-2.9792,-2.9792,-2.9792,-2.9792,-2.9792,-2.9792,-2.9792,-0.9154,-0.9775,-1.0844,-1.2231,-1.2699,-1.324,-1.4893,0.0,0.0,0.0,-1.4636,-1.4382,-1.4496,-1.4282,-1.4182,-1.4476,-1.477,-1.5068,-1.5204,-1.5224,-1.5157,-1.5028,-1.5117,-1.5202,-1.5028,-1.5284,-1.5337,-1.5035,-1.5017,-1.497,-1.4796,-1.4509,-1.4429,-1.4653,-1.473,-1.487,-1.5044,-1.5337,-1.5484,-1.5484,-1.5605,-1.5658,-1.5658,-1.5724,-1.5784,-1.5791,-1.5952,-1.6172,-1.648,-1.7005,-1.7373,-1.7609,-1.7916,-1.7989,-1.7995,-1.7995,-1.8569,-1.9195,-1.8926,-1.9723,-2.1092,-2.2466,-2.3285,-2.3949,-2.5274,-2.5693,-2.5693,-2.5693,-2.5693,-2.5752,-2.6064,-2.5937,-2.5732,-2.5908,-2.5859,-2.5693,-2.5693,-2.583,-2.6074,-2.6338,-2.6172,-2.6084,-2.6338,-2.6025,-2.5693,-2.5693,-2.5693,-2.5693,-2.5693,-2.5693,-2.6207,-2.7447,-2.7589,-2.8588,-3.0989,-3.1223,-3.1636,-3.2699,-3.2616,-3.1913,-3.0482,-3.0746,-3.067,-3.0131,-3.0319,-3.0432,-3.0432,-3.0432,-3.0432,-3.0432,-3.0432,-3.0432,-0.9325,-0.9676,-1.0332,-1.2138,-1.3033,-1.3649,-1.4381,-1.4973,-1.5267,-1.4984,-1.4482,-1.4208,-1.4476,-1.4262,-1.4142,-1.4436,-1.471,-1.4921,-1.4894,-1.4934,-1.4941,-1.4861,-1.4894,-1.4908,-1.4854,-1.4901,-1.4908,-1.4854,-1.4576,-1.4429,-1.4359,-1.4148,-1.4008,-1.4008,-1.4315,-1.4482,-1.4482,-1.4803,-1.5008,-1.5015,-1.5231,-1.5371,-1.5404,-1.5698,-1.5784,-1.5798,-1.6146,-1.642,-1.6693,-1.7065,-1.7353,-1.7569,-1.7862,-1.7935,-1.7949,-1.7949,-1.7949,-1.7909,-1.7675,-1.8401,-1.9679,-2.1194,-2.2517,-2.3791,-2.5274,-2.5693,-2.5693,-2.5693,-2.5693,-2.5693,-2.5693,-2.5693,-2.5791,-2.623,-2.6025,-2.5693,-2.5693,-2.6055,-2.6357,-2.6426,-2.6416,-2.6396,-2.6435,-2.6084,-2.5732,-2.5693,-2.5723,-2.5742,-2.5742,-2.5742,-2.6218,-2.7378,-2.7431,-2.8355,-3.0676,-3.0989,-3.1328,-3.205,-3.2737,-3.2591,-3.1512,-3.1461,-3.1223,-3.0696,-3.1148,-3.1386,-3.1386,-3.1386,-3.1386,-3.1386,-3.1386,-3.1386,-1.0351,-1.1323,-1.2498,-1.3749,-1.438,-1.4611,-1.4282,-1.409,-1.4076,-1.4238,-1.4355,-1.4442,-1.4509,-1.4053,-1.3793,-1.4135,-1.4235,-1.4195,-1.3961,-1.4322,-1.4362,-1.3667,-1.3995,-1.4095,-1.3627,-1.4001,-1.4082,-1.3621,-1.37,-1.3693,-1.3507,-1.3434,-1.34,-1.34,-1.3908,-1.4182,-1.4182,-1.4747,-1.5008,-1.5008,-1.5075,-1.5223,-1.5404,-1.5698,-1.5784,-1.5798,-1.6146,-1.6306,-1.6406,-1.6985,-1.7239,-1.7326,-1.7562,-1.7682,-1.7682,-1.7682,-1.7682,-1.7669,-1.7609,-1.7793,-1.8454,-2.0888,-2.1904,-2.2567,-2.4971,-2.5693,-2.5693,-2.5693,-2.5693,-2.5693,-2.5693,-2.5693,-2.5713,-2.581,-2.5762,-2.5693,-2.5693,-2.5762,-2.6025,-2.6748,-2.6621,-2.6494,-2.6826,-2.6533,-2.6133,-2.5742,-2.6025,-2.625,-2.625,-2.625,-2.6339,-2.6626,-2.6319,-2.6706,-2.8272,-2.9223,-3.027,-3.1332,-3.2494,-3.2767,-3.2064,-3.2039,-3.1788,-3.1235,-3.1336,-3.1386,-3.1386,-3.1386,-3.1386,-3.1386,-3.1386,-3.1386,-1.1256,-1.2117,-1.2996,-1.3826,0.0,-1.4831,-1.3906,-1.3613,-1.3606,-1.3661,-1.3788,-1.3895,-1.3895,-1.36,-1.3487,-1.3641,-1.3667,-1.3614,-1.3413,-1.366,-1.3721,-1.3267,-1.348,-1.3547,-1.324,-1.3487,-1.354,-1.3233,-1.3213,-1.3213,-1.3213,-1.3066,-1.306,-1.3206,-1.3641,-1.3874,-1.3874,-1.4322,-1.4586,-1.4593,-1.4683,-1.4649,-1.4452,-1.5355,-1.5784,-1.5798,-1.6146,-1.6321,-1.6368,-1.6958,-1.7199,-1.7233,-1.7521,-1.7582,-1.7582,-1.7582,-1.7582,-1.7582,-1.7582,-1.8042,-1.8909,-2.1041,-2.2156,-2.3026,-2.5069,-2.5693,-2.5693,-2.5693,-2.5693,-2.5693,-2.5693,-2.5693,-2.5693,-2.5693,-2.5693,-2.5693,-2.5693,-2.5693,-2.582,-2.6269,-2.623,-2.6152,-2.6317,-2.6396,-2.6309,-2.6084,-2.624,-2.6465,-2.666,-2.6328,-2.6162,-2.6367,-2.5996,-2.6197,-2.7494,-2.8727,-2.9909,-3.1134,-3.2382,-3.2943,-3.2641,-3.2629,-3.2353,-3.1788,-3.2051,-3.2202,-3.2202,-3.2466,-3.2453,-3.2202,-3.2466,-3.2453,-1.1704,-1.2366,-1.2835,-1.3382,-1.4132,0.0,-1.3445,-1.3353,-1.3367,-1.3113,-1.3053,-1.3086,-1.3193,-1.3046,-1.2953,-1.3106,-1.3046,-1.2999,-1.3046,-1.31,-1.3113,-1.306,-1.31,-1.3113,-1.306,-1.3053,-1.2975,-1.2811,-1.2689,-1.2687,-1.2798,-1.2682,-1.2777,-1.3046,-1.334,-1.3447,-1.3447,-1.3788,-1.3961,-1.4015,-1.4134,-1.3792,-1.306,-1.4465,-1.5102,-1.5159,-1.5644,-1.5894,-1.5934,-1.6723,-1.7079,-1.7152,-1.7395,-1.7542,-1.7582,-1.7582,-1.7582,-1.7582,-1.7582,-1.8506,-1.9834,-2.1245,-2.2617,-2.3949,-2.5274,-2.5693,-2.5693,-2.5693,-2.5693,-2.5693,-2.5693,-2.5693,-2.5693,-2.5693,-2.5693,-2.5693,-2.5693,-2.5693,-2.5713,-2.5791,-2.5801,-2.5801,-2.5801,-2.6152,-2.6367,-2.6289,-2.6406,-2.6592,-2.6875,-2.6289,-2.5986,-2.6348,-2.5996,-2.611,-2.7173,-2.8412,-2.959,-3.081,-3.2052,-3.2884,-3.3081,-3.3124,-3.2855,-3.2365,-3.283,-3.3174,-3.3262,-3.3583,-3.3571,-3.3275,-3.3583,-3.3508,-1.083,0.0,-1.2784,0.0,-1.3389,-1.3113,0.0,0.0,-1.2824,-1.2485,-1.2425,-1.2585,-1.3113,-1.2365,-1.1917,-1.2717,-1.2415,-1.2138,-1.2392,-1.2683,-1.275,-1.2452,-1.269,-1.2744,-1.2445,-1.2425,-1.2076,-1.1196,-1.1664,-1.1777,-1.114,-1.1694,-1.2154,-1.2412,-1.275,-1.2904,-1.2904,-1.3173,-1.3454,-1.3666,-1.3237,-1.2511,-1.161,-1.202,-1.2284,-1.2479,-1.3721,-1.422,-1.434,-1.5794,-1.654,-1.6794,-1.7146,-1.7414,-1.7582,-1.7582,-1.7582,-1.7582,-1.7582,-1.8506,-1.9834,-2.1245,-2.2617,-2.3949,-2.5274,-2.5693,-2.5693,-2.5693,-2.5693,-2.5693,-2.5693,-2.5693,-2.5693,-2.5693,-2.5693,-2.5693,-2.5693,-2.5693,-2.5801,-2.623,-2.6299,-2.6299,-2.6299,-2.6348,-2.626,-2.583,-2.6455,-2.6816,-2.6514,-2.6367,-2.6328,-2.6387,-2.5996,-2.5781,-2.5927,-2.7125,-2.8366,-2.9544,-3.0765,-3.1965,-3.3068,-3.3124,-3.3043,-3.2968,-3.3074,-3.3319,-3.3796,-3.3382,-3.3395,-3.3771,-3.337,-3.3156,-1.1101,-1.2035,-1.2538,0.0,-1.2783,-1.2829,-1.2145,-1.2154,-1.2208,-1.187,-1.1683,-1.1703,-1.2095,-1.1917,-1.1744,-1.1971,-1.179,-1.1663,-1.1797,-1.1924,-1.1957,-1.1824,-1.1931,-1.2017,-1.2058,-1.1574,-1.1114,-1.0815,-1.1095,-1.115,-1.0815,-1.1653,-1.2171,-1.2298,-1.263,-1.2784,-1.2784,-1.253,-1.2156,-1.1786,-1.0905,-1.0377,-1.0177,-0.9618,-1.0339,-1.1945,-1.3343,-1.3926,-1.404,-1.5654,-1.6346,-1.6506,-1.7018,-1.728,-1.7414,-1.7522,-1.7582,-1.7582,-1.7582,-1.8506,-1.9679,-2.0333,-2.1963,-2.3791,-2.4402,-2.5118,-2.5693,-2.5693,-2.5693,-2.5693,-2.5693,-2.5918,-2.6103,-2.6103,-2.6279,-2.6455,-2.6455,-2.6269,-2.6162,-2.6357,-2.6191,-2.6103,-2.6348,-2.6582,-2.6758,-2.6816,-2.6934,-2.7031,-2.71,-2.6475,-2.6113,-2.6367,-2.5996,-2.5693,-2.5693,-2.6849,-2.8085,-2.9315,-3.0541,-3.1777,-3.3038,-3.3124,-3.3124,-3.3124,-3.3382,-3.3658,-3.3897,-3.4274,-3.4424,-3.4349,-3.411,-3.3834,-1.0788,0.0,-1.2035,-1.1344,-1.1921,-1.2327,0.0,-1.1203,-1.1484,-1.1156,-1.1035,-1.0989,-1.0982,-1.1283,-1.1544,-1.1402,-1.1303,-1.1256,-1.1369,-1.1329,-1.1309,-1.1382,-1.1389,-1.1516,-1.1737,-1.0945,-1.0346,-1.0253,-1.0259,-1.0288,-1.035,-1.123,-1.1926,-1.2298,-1.2287,-1.2284,-1.2284,-1.1543,-1.0754,-0.9817,-0.9083,-0.8771,-0.8843,-0.7969,-0.8989,-1.1512,-1.2813,-1.3584,-1.4034,-1.5522,-1.6206,-1.6375,-1.6891,-1.7132,-1.7239,-1.7475,-1.7582,-1.7582,-1.7582,-1.8506,-1.9576,-1.9576,-2.1253,-2.3276,-2.3592,-2.4402,-2.5274,-2.5586,-2.5693,-2.5693,-2.5693,-2.5977,-2.6221,-2.6221,-2.6465,-2.6748,-2.6973,-2.6768,-2.6514,-2.6406,-2.6211,-2.6133,-2.6357,-2.6826,-2.7256,-2.7471,-2.7217,-2.709,-2.7366,-2.6406,-2.581,-2.6182,-2.5937,-2.5732,-2.5889,-2.6633,-2.7809,-2.9448,-3.0283,-3.1516,-3.3226,-3.3282,-3.3282,-3.3282,-3.396,-3.4248,-3.411,-3.4893,-3.5157,-3.4881,-3.4743,-3.4424,0.0,-1.0101,0.0,-0.9993,-1.0466,-1.1032,0.0,-1.0439,-1.0573,-1.0247,-1.0615,-1.0742,-0.9927,-1.0271,-1.0834,-1.1302,-1.0962,-1.0827,-1.1315,-1.1189,-1.1122,-1.1362,-1.1389,-1.1395,-1.1415,-1.0798,-0.9914,-0.8816,-0.873,-0.8862,-0.9181,-0.9848,-1.087,-1.2248,-1.1403,-1.0919,-1.0919,-1.0181,-0.9314,-0.8304,-0.8564,-0.8336,-0.7691,-0.7647,-0.8519,-1.0145,-1.1463,-1.2716,-1.4022,-1.5302,-1.6019,-1.6348,-1.6607,-1.6901,-1.7239,-1.7475,-1.7582,-1.7582,-1.7582,-1.8506,-1.9576,-1.9576,-2.059,-2.2055,-2.3326,-2.3741,-2.4048,-2.5323,-2.5693,-2.5693,-2.5693,-2.5703,-2.5723,-2.5723,-2.5742,-2.5976,-2.6836,-2.6992,-2.6865,-2.6465,-2.6689,-2.6836,-2.6455,-2.708,-2.75,-2.7109,-2.7031,-2.6875,-2.6504,-2.6035,-2.5693,-2.5713,-2.5703,-2.5908,-2.6318,-2.6026,-2.6975,-2.9775,-2.9653,-3.0819,-3.3746,-3.3859,-3.3859,-3.3859,-3.4868,-3.5157,-3.4675,-3.4693,-3.4969,-3.5445,-3.4919,-3.4424,0.0,0.0,0.0,-0.9437,-0.9622,-0.9778,-0.937,-0.9499,-0.9657,-0.9544,-0.9873,-1.006,-0.9769,-1.0198,-1.0539,-1.0334,-1.0287,-1.0347,-1.0523,-1.0661,-1.0787,-1.0894,-1.0901,-1.0745,-1.0352,-0.9519,-0.8658,-0.7845,-0.8272,-0.8664,-0.8776,-1.0343,-1.1188,-1.1088,-1.0886,-1.0185,-0.887,-0.8607,-0.8008,-0.7116,-0.7319,-0.739,-0.7305,-0.817,-0.9512,-1.1159,-1.2347,-1.3244,-1.4022,-1.5289,-1.5892,-1.6019,-1.6313,-1.6543,-1.667,-1.6914,-1.7141,-1.7353,-1.7353,-1.7787,-1.8304,-1.8304,-1.9213,-2.059,-2.2005,-2.3026,-2.3989,-2.5323,-2.5693,-2.5693,-2.5693,-2.5947,-2.6221,-2.6494,-2.6502,-2.6641,-2.6953,-2.7012,-2.7051,-2.7178,-2.6885,-2.6738,-2.7139,-2.7513,-2.7705,-2.7822,-2.7607,-2.7275,-2.6846,-2.6416,-2.6045,-2.5713,-2.5693,-2.5869,-2.6357,-2.625,-2.7242,-2.9831,-2.9862,-3.102,-3.3796,-3.3897,-3.3897,-3.3897,-3.4944,-3.5232,-3.468,-3.5429,-3.5868,-3.6056,-3.5504,-3.5094,-0.9017,0.0,0.0,0.0,-0.9176,-0.9249,-0.8638,-0.8711,-0.8918,-0.8918,-0.9185,-0.9385,-0.9385,-0.9786,-1.005,-0.9762,-0.9846,-0.9973,-0.9973,-1.0171,-1.0298,-1.0298,-1.0298,-1.0148,-0.9735,-0.8952,-0.8276,-0.7836,-0.8221,-0.8483,-0.8547,-0.9962,-1.0396,-0.9537,-0.9691,-0.8983,-0.7326,-0.7288,-0.7025,-0.6515,-0.6627,-0.6854,-0.7146,-0.8599,-1.0154,-1.1753,-1.3014,-1.3957,-1.4603,-1.5439,-1.5784,-1.5811,-1.6159,-1.6321,-1.6306,-1.66,-1.6894,-1.7199,-1.7199,-1.7393,-1.7582,-1.7582,-1.8199,-1.9272,-2.1143,-2.2307,-2.3384,-2.5177,-2.5693,-2.5693,-2.5693,-2.5947,-2.6279,-2.6709,-2.6807,-2.6846,-2.6982,-2.7012,-2.71,-2.7393,-2.7109,-2.7002,-2.762,-2.7783,-2.7969,-2.8252,-2.7939,-2.751,-2.707,-2.6768,-2.6377,-2.5752,-2.5947,-2.6289,-2.6572,-2.6602,-2.7699,-3.0319,-3.0376,-3.1542,-3.4302,-3.4449,-3.4449,-3.4449,-3.5353,-3.5554,-3.4956,-3.5918,-3.6405,-3.6405,-3.5994,-3.5671,0.0,0.0,0.0,0.0,-0.9068,-0.9424,-0.8177,-0.815,-0.8382,-0.8382,-0.8591,-0.8791,-0.8784,-0.8984,-0.9271,-0.9593,-0.9688,-0.9695,-0.9695,-0.9679,-0.9715,-0.9715,-0.9715,-0.9679,-0.965,-0.926,-0.8937,-0.8782,-0.8429,-0.829,-0.8386,-0.8508,-0.8332,-0.78,-0.7778,-0.7284,-0.6293,-0.6296,-0.6368,-0.6508,-0.662,-0.6848,-0.7136,-0.8786,-1.0301,-1.179,-1.3261,-1.4638,-1.5771,-1.5778,-1.5784,-1.5811,-1.6146,-1.6308,-1.6342,-1.6573,-1.6874,-1.7186,-1.7186,-1.7387,-1.7582,-1.7582,-1.7582,-1.8094,-2.0837,-2.1651,-2.2265,-2.4932,-2.5693,-2.5693,-2.5693,-2.5693,-2.5791,-2.6269,-2.6367,-2.6484,-2.6894,-2.6982,-2.6982,-2.7021,-2.7363,-2.7708,-2.7728,-2.8027,-2.8291,-2.8291,-2.7949,-2.7529,-2.709,-2.7031,-2.6709,-2.5801,-2.6514,-2.7012,-2.6992,-2.7021,-2.8279,-3.13,-3.1106,-3.2285,-3.5378,-3.5495,-3.5495,-3.5495,-3.6081,-3.6094,-3.5495,-3.6094,-3.6405,-3.6405,-3.6405,-3.6081,-0.8422,0.0,0.0,0.0,0.0,0.0,-0.7986,-0.7972,-0.8025,-0.8025,-0.829,-0.843,-0.8185,-0.8218,-0.8365,-0.8717,-0.9085,-0.9331,-0.9331,-0.9546,-0.9715,-0.9715,-0.9715,-0.944,-0.8809,-0.8805,-0.8592,-0.7907,-0.8569,-0.8794,-0.8285,-0.7877,-0.764,-0.7571,-0.7034,-0.651,-0.6095,-0.6242,-0.632,-0.6361,-0.6508,-0.6634,-0.6869,-0.9145,-1.0538,-1.1413,-1.3677,-1.4989,-1.5531,-1.5745,-1.5784,-1.5791,-1.5919,-1.5952,-1.5965,-1.6039,-1.6393,-1.6827,-1.6827,-1.7161,-1.7582,-1.7582,-1.7582,-1.7937,-1.9672,-2.0888,-2.2114,-2.4126,-2.5199,-2.5693,-2.5693,-2.5693,-2.5713,-2.584,-2.5869,-2.5898,-2.6015,-2.6044,-2.6367,-2.7305,-2.7334,-2.7393,-2.8018,-2.8213,-2.8291,-2.8291,-2.8193,-2.7969,-2.7539,-2.749,-2.7158,-2.6299,-2.6689,-2.6894,-2.6592,-2.7129,-2.8533,-3.0904,-3.1229,-3.2597,-3.539,-3.5495,-3.5495,-3.5495,-3.6081,-3.6094,-3.5495,-3.6094,-3.6405,-3.6405,-3.6405,-3.6329,0.0,0.0,0.0,0.0,0.0,0.0,-0.7796,-0.7736,-0.7736,-0.7736,-0.7899,-0.8007,-0.7912,-0.7905,-0.7965,-0.8163,-0.8452,-0.8751,-0.8998,-0.9205,-0.9319,-0.9319,-0.9319,-0.911,-0.8621,-0.8804,-0.8676,-0.7937,-0.8635,-0.8672,-0.7706,-0.7038,-0.672,-0.6871,-0.652,-0.6255,-0.6129,-0.6255,-0.63,-0.6303,-0.6446,-0.6552,-0.6788,-0.889,-1.0352,-1.1407,-1.3538,-1.489,-1.5591,-1.5758,-1.5784,-1.5784,-1.5784,-1.5784,-1.5784,-1.5784,-1.6126,-1.6526,-1.6526,-1.6827,-1.7235,-1.7414,-1.7454,-1.7676,-1.9177,-2.059,-2.2047,-2.3601,-2.4845,-2.5693,-2.5693,-2.5693,-2.5732,-2.5967,-2.582,-2.5732,-2.5967,-2.582,-2.6015,-2.7178,-2.7187,-2.7285,-2.8144,-2.8291,-2.8291,-2.8291,-2.8291,-2.8135,-2.7767,-2.7875,-2.7598,-2.6738,-2.7187,-2.7383,-2.6963,-2.7539,-2.8723,-3.0524,-3.1401,-3.2805,-3.495,-3.56,-3.578,-3.5495,-3.6081,-3.6207,-3.5893,-3.6207,-3.6405,-3.6405,-3.6405,-3.6405,0.0,0.0,0.0,0.0,-0.8402,0.0,-0.7672,-0.7538,-0.7531,-0.7497,-0.7513,-0.7564,-0.7766,-0.7806,-0.7826,-0.7899,-0.7879,-0.8052,-0.8631,-0.8738,-0.8758,-0.8758,-0.8791,-0.8804,-0.8804,-0.9044,-0.8987,-0.8428,-0.852,-0.809,-0.6954,-0.6209,-0.5864,-0.5963,-0.6156,-0.6276,-0.6276,-0.6289,-0.63,-0.6303,-0.6426,-0.6536,-0.675,-0.8457,-1.0034,-1.1486,-1.3072,-1.4521,-1.5684,-1.5718,-1.5751,-1.5784,-1.5784,-1.5784,-1.5784,-1.5784,-1.6019,-1.6321,-1.6321,-1.6466,-1.6747,-1.7065,-1.7172,-1.7452,-1.8875,-2.0302,-2.1752,-2.3076,-2.4489,-2.5537,-2.5489,-2.5586,-2.5791,-2.6221,-2.6016,-2.5791,-2.623,-2.6006,-2.5927,-2.6787,-2.6943,-2.7217,-2.8076,-2.8223,-2.8242,-2.8281,-2.8291,-2.8154,-2.7783,-2.8057,-2.7988,-2.7178,-2.7812,-2.8105,-2.7637,-2.8027,-2.8827,-3.014,-3.1549,-3.2944,-3.4337,-3.5667,-3.6132,-3.5596,-3.6119,-3.6405,-3.6405,-3.6405,-3.6405,-3.6405,-3.6405,-3.6405,0.0,0.0,0.0,0.0,0.0,0.0,-0.7899,-0.7819,-0.7769,-0.7538,-0.7513,-0.743,-0.7213,-0.718,-0.7339,-0.7826,-0.7722,-0.7682,-0.8025,-0.831,-0.8482,-0.8482,-0.8664,-0.8804,-0.8804,-0.9044,-0.8987,-0.8428,-0.7703,-0.716,-0.6899,-0.6209,-0.5817,-0.5844,-0.5996,-0.6074,-0.6074,-0.6238,-0.63,-0.63,-0.6327,-0.648,-0.6785,-0.8982,-1.028,-1.0927,-1.3303,-1.4634,-1.515,-1.5384,-1.5618,-1.5784,-1.5784,-1.5784,-1.5784,-1.5784,-1.6019,-1.6321,-1.6321,-1.6466,-1.6714,-1.6774,-1.7005,-1.7264,-1.7568,-1.8766,-2.029,-2.1702,-2.3296,-2.45,-2.418,-2.4913,-2.5713,-2.5791,-2.5752,-2.5713,-2.5801,-2.5742,-2.584,-2.6406,-2.6514,-2.6777,-2.7689,-2.7836,-2.791,-2.8242,-2.8291,-2.8262,-2.8174,-2.8242,-2.8096,-2.7598,-2.7988,-2.7978,-2.7207,-2.7851,-2.876,-2.9752,-3.1374,-3.2944,-3.4337,-3.5667,-3.6355,-3.6207,-3.6355,-3.6405,-3.6405,-3.6405,-3.6405,-3.6405,-3.6405,-3.6405,0.0,0.0,0.0,-0.8469,0.0,0.0,0.0,-0.7905,-0.7866,-0.7729,-0.7341,-0.7087,-0.7224,-0.6712,-0.6443,-0.706,-0.7032,-0.6898,-0.6719,-0.7549,-0.815,-0.815,-0.8258,-0.843,-0.8577,-0.8403,-0.7936,-0.716,-0.6347,-0.5925,-0.6001,-0.5732,-0.5616,-0.5694,-0.5878,-0.5993,-0.5993,-0.6183,-0.63,-0.63,-0.63,-0.6727,-0.7593,-0.8774,-1.0168,-1.1794,-1.3214,-1.4276,-1.5042,-1.5431,-1.5611,-1.5625,-1.5772,-1.5784,-1.5784,-1.5784,-1.5925,-1.6052,-1.6052,-1.6146,-1.6293,-1.644,-1.6587,-1.6817,-1.7112,-1.8311,-1.9878,-2.1296,-2.2797,-2.3935,-2.3737,-2.4707,-2.5693,-2.5693,-2.5693,-2.5693,-2.5693,-2.5693,-2.5752,-2.6025,-2.6064,-2.6338,-2.7197,-2.7529,-2.7718,-2.7656,-2.7842,-2.7978,-2.7978,-2.7978,-2.79,-2.7738,-2.8047,-2.8037,-2.7393,-2.792,-2.8502,-2.8946,-3.0439,-3.1938,-3.3315,-3.4666,-3.5715,-3.6405,-3.6094,-3.6094,-3.6405,-3.5715,-3.5763,-3.6405,-3.6405,-3.6405,0.0,0.0,0.0,0.0,0.0,-0.8409,0.0,0.0,0.0,-0.7721,-0.7135,-0.6745,-0.7111,-0.628,-0.5725,-0.6234,-0.6298,-0.612,-0.5601,-0.6626,-0.7454,-0.7535,-0.7559,-0.7693,-0.8031,-0.7433,-0.6667,-0.5865,-0.5244,-0.4938,-0.5052,-0.5233,-0.5419,-0.5542,-0.5833,-0.5963,-0.5993,-0.6183,-0.63,-0.63,-0.649,-0.723,-0.8401,-0.8846,-1.0366,-1.2744,-1.3191,-1.3963,-1.4917,-1.5444,-1.5558,-1.5424,-1.5718,-1.5784,-1.5784,-1.5784,-1.5784,-1.5784,-1.5784,-1.5784,-1.5824,-1.6112,-1.6274,-1.6422,-1.6951,-1.8072,-1.9435,-2.0844,-2.2206,-2.3384,-2.3633,-2.4707,-2.5693,-2.5693,-2.5693,-2.5693,-2.5693,-2.5693,-2.5693,-2.5693,-2.5693,-2.5937,-2.6758,-2.7256,-2.7451,-2.7178,-2.751,-2.7836,-2.7836,-2.7767,-2.7748,-2.7836,-2.7939,-2.7939,-2.7738,-2.7978,-2.8135,-2.8057,-2.9381,-3.0643,-3.16,-3.3317,-3.4824,-3.6013,-3.5778,-3.5778,-3.6013,-3.4921,-3.5078,-3.6405,-3.6168,-3.6156,0.0,0.0,0.0,0.0,-0.8758,0.0,-0.8415,0.0,-0.807,-0.7128,0.0,-0.6621,-0.6093,0.0,0.0,-0.6007,-0.5954,-0.5835,-0.5685,-0.5731,-0.5893,-0.6173,-0.631,-0.6511,-0.678,-0.6309,-0.5925,-0.5797,-0.5244,-0.4894,-0.4911,-0.5049,-0.5226,-0.5416,-0.5674,-0.5891,-0.599,-0.6183,-0.63,-0.63,-0.7215,-0.7894,-0.8479,-1.0439,-1.1705,-1.2418,-1.351,-1.42,-1.4596,-1.4923,-1.5197,-1.5424,-1.5718,-1.5784,-1.5784,-1.5784,-1.5784,-1.5784,-1.5784,-1.5784,-1.5791,-1.5824,-1.6059,-1.6382,-1.6653,-1.7113,-1.7753,-1.91,-2.0657,-2.2206,-2.3384,-2.4707,-2.5693,-2.5693,-2.5693,-2.5693,-2.5693,-2.5693,-2.5693,-2.5693,-2.5693,-2.584,-2.6377,-2.6816,-2.7207,-2.7591,-2.7949,-2.8223,-2.8223,-2.7891,-2.7865,-2.8184,-2.7588,-2.7295,-2.7689,-2.7767,-2.7578,-2.7187,-2.8809,-2.9631,-2.9409,-3.2199,-3.4054,-3.4629,-3.5713,-3.5761,-3.4629,-3.4483,-3.5078,-3.6358,-3.5174,-3.5271,0.0,0.0,0.0,0.0,0.0,0.0,-0.8651,0.0,-0.7873,-0.7412,0.0,0.0,0.0,0.0,0.0,0.0,-0.5385,-0.5235,-0.4783,-0.4907,-0.5167,-0.5545,-0.5725,-0.578,-0.5746,-0.566,-0.5469,-0.5085,-0.4816,-0.4694,-0.4782,-0.4897,-0.5046,-0.5223,-0.5599,-0.5833,-0.5895,-0.6177,-0.63,-0.63,-0.7326,-0.836,-0.9502,-1.1008,-1.2314,-1.3392,-1.4041,-1.4309,-1.4302,-1.4821,-1.5082,-1.517,-1.5464,-1.5678,-1.5784,-1.5784,-1.5784,-1.5784,-1.5784,-1.5784,-1.5784,-1.5784,-1.6032,-1.6342,-1.642,-1.666,-1.7191,-1.8417,-1.9883,-2.1418,-2.2935,-2.4302,-2.541,-2.5625,-2.5537,-2.542,-2.5635,-2.5527,-2.543,-2.5635,-2.5693,-2.5742,-2.5977,-2.6572,-2.708,-2.7266,-2.7441,-2.7549,-2.7549,-2.7187,-2.6992,-2.7168,-2.708,-2.6992,-2.6934,-2.7148,-2.7207,-2.7021,-2.8706,-2.9728,-2.974,-3.2582,-3.4208,-3.4385,-3.5715,-3.6108,-3.5571,-3.3958,-3.4301,-3.6358,-3.5017,-3.5126,-0.8804,0.0,0.0,0.0,-0.8507,-0.8454,-0.8235,-0.7777,-0.7343,-0.7149,-0.6161,0.0,0.0,0.0,0.0,0.0,0.0,-0.4722,-0.4096,-0.4325,-0.4664,-0.4907,-0.5038,-0.5003,-0.4772,-0.4993,-0.4934,-0.4457,-0.4467,-0.4539,-0.4651,-0.4813,-0.4935,-0.5036,-0.5549,-0.58,-0.58,-0.6146,-0.63,-0.63,-0.7326,-0.8455,-0.9666,-1.0734,-1.1899,-1.3115,-1.3649,-1.3791,-1.3685,-1.4542,-1.4934,-1.5035,-1.5284,-1.5571,-1.5784,-1.5784,-1.5784,-1.5784,-1.5784,-1.5784,-1.5784,-1.5784,-1.5979,-1.6152,-1.6152,-1.6353,-1.6927,-1.8514,-1.9845,-2.1187,-2.2928,-2.4326,-2.5273,-2.5304,-2.5312,-2.5273,-2.5304,-2.5312,-2.5312,-2.5518,-2.5606,-2.5723,-2.5849,-2.6435,-2.6846,-2.6846,-2.6943,-2.7012,-2.7012,-2.665,-2.6435,-2.6543,-2.6621,-2.6631,-2.6562,-2.6738,-2.6894,-2.7012,-2.8127,-2.9033,-2.9559,-3.2202,-3.373,-3.3822,-3.5511,-3.6216,-3.5858,-3.3848,-3.3688,-3.5246,-3.3909,-3.441,-0.8804,-0.8804,-0.8619,-0.791,-0.7723,-0.7563,-0.6831,-0.6642,-0.6421,-0.5706,-0.5534,-0.5288,-0.4673,0.0,0.0,0.0,0.0,0.0,0.0,-0.4119,-0.4178,-0.4047,-0.4034,-0.3982,-0.3866,-0.4077,-0.4227,-0.4204,-0.4385,-0.4491,-0.4498,-0.4755,-0.4891,-0.4894,-0.5494,-0.58,-0.58,-0.6146,-0.63,-0.63,-0.7326,-0.7957,-0.8308,-0.9446,-1.0147,-1.059,-1.1841,-1.2376,-1.2479,-1.3913,-1.4703,-1.5035,-1.5284,-1.5571,-1.5784,-1.5784,-1.5784,-1.5784,-1.5784,-1.5784,-1.5784,-1.5784,-1.5791,-1.5798,-1.5798,-1.6052,-1.6856,-1.9335,-2.0593,-2.1693,-2.3814,-2.5021,-2.545,-2.4658,-2.5098,-2.544,-2.4639,-2.507,-2.5596,-2.5166,-2.5439,-2.582,-2.6299,-2.6387,-2.6406,-2.6406,-2.6758,-2.7012,-2.7012,-2.665,-2.6543,-2.6953,-2.622,-2.6064,-2.6924,-2.6631,-2.6582,-2.6992,-2.6691,-2.6908,-2.7751,-3.0364,-3.1959,-3.237,-3.4993,-3.5763,-3.4483,-3.4385,-3.3662,-3.2381,-3.1071,-3.2582,-0.8209,-0.8076,-0.7883,-0.7155,-0.6966,-0.6912,-0.6669,-0.6231,-0.5792,-0.5542,-0.5136,-0.4759,0.0,0.0,0.0,0.0,0.0,0.0,0.0,-0.4164,-0.3981,-0.3355,-0.3692,-0.4014,-0.4062,-0.4273,-0.4389,-0.4389,-0.4464,-0.4491,-0.4491,-0.4657,-0.4813,-0.4884,-0.5304,-0.5593,-0.5661,-0.5857,-0.6006,-0.6108,-0.711,-0.7829,-0.822,-0.9361,-1.006,-1.0407,-1.0937,-1.1595,-1.2334,-1.282,-1.3836,-1.5022,-1.5115,-1.5404,-1.5784,-1.5784,-1.5784,-1.5784,-1.5784,-1.5784,-1.5784,-1.5784,-1.5784,-1.5784,-1.5784,-1.5899,-1.6491,-1.8985,-2.0063,-2.1087,-2.3708,-2.4853,-2.5293,-2.5293,-2.5293,-2.5293,-2.5293,-2.5293,-2.5332,-2.5478,-2.5635,-2.5732,-2.5937,-2.5957,-2.625,-2.7109,-2.7109,-2.7012,-2.7012,-2.665,-2.6328,-2.6132,-2.5859,-2.5801,-2.6093,-2.5996,-2.6143,-2.6572,-2.6465,-2.6768,-2.7679,-3.0292,-3.1899,-3.228,-3.4993,-3.5763,-3.4385,-3.3453,-3.2744,-3.228,-3.0916,-3.2039,-0.783,-0.7503,-0.7128,-0.6394,-0.6199,-0.615,-0.5905,-0.5492,-0.5136,-0.5136,-0.4814,-0.4491,-0.4491,0.0,0.0,0.0,0.0,0.0,0.0,-0.3853,-0.3499,-0.2673,-0.319,-0.3551,-0.3376,-0.3519,-0.3727,-0.3975,-0.407,-0.4211,-0.4491,-0.4638,-0.4762,-0.4884,-0.5238,-0.547,-0.5589,-0.5732,-0.5878,-0.5993,-0.6652,-0.7173,-0.7541,-0.8371,-0.8877,-0.9137,-0.9714,-1.0394,-1.1166,-1.1986,-1.3125,-1.4411,-1.4829,-1.5317,-1.5784,-1.5784,-1.5784,-1.5784,-1.5784,-1.5784,-1.5784,-1.5784,-1.5784,-1.5784,-1.5784,-1.5784,-1.6359,-1.8999,-2.0036,-2.0981,-2.367,-2.4853,-2.5303,-2.5226,-2.5283,-2.5303,-2.5226,-2.5293,-2.5352,-2.5478,-2.5577,-2.5693,-2.5693,-2.5693,-2.5966,-2.6855,-2.6875,-2.6797,-2.6797,-2.6689,-2.6445,-2.6016,-2.5967,-2.5908,-2.5703,-2.583,-2.6084,-2.6367,-2.6387,-2.6699,-2.7402,-2.9703,-3.1201,-3.1571,-3.4301,-3.5114,-3.3892,-3.3346,-3.2794,-3.228,-3.1429,-3.2252]},{"header":{"parameterUnit":"m.s-1","parameterCategory":1,"la1":30.6,"la2":29.2853,"lo1":-89.7004,"lo2":-87.6739,"dy":0.0162,"dx":0.0183,"nx":112,"ny":82,"refTime":"2023-09-05T12:00:00:Z","depth":0,"parameterNumber":3,"parameterNumberName":"V-component_of_WINDS"},"data":[0.0,0.0,0.0,0.0,0.0,0.0,0.0,0.0,0.0,0.0,0.0,0.0,0.0,0.0,0.0,0.0,0.0,0.0,0.0,0.0,0.0,0.0,0.0,0.0,0.0,0.0,0.0,0.0,0.0,0.0,0.0,0.0,0.0,0.0,0.0,0.0,0.0,0.0,0.0,0.0,0.0,0.0,0.0,0.0,0.0,0.0,0.0,0.0,0.0,0.0,0.0,0.0,0.0,0.0,0.0,0.0,0.0,0.0,0.0,0.0,0.0,0.0,0.0,0.0,0.0,0.0,0.0,0.0,0.0,0.0,0.0,0.0,0.0,0.0,0.0,0.0,0.0,0.0,0.0,0.0,0.0,0.0,0.0,0.0,0.0,0.0,0.0,0.0,0.0,0.0,1.1965,1.2347,1.4396,1.5754,1.5754,1.5648,1.5573,1.5586,0.0,0.0,0.0,0.0,0.0,0.0,0.0,0.0,0.0,0.0,0.0,0.0,0.0,0.0,0.0,0.0,0.0,0.0,0.0,0.0,0.0,0.0,0.0,0.0,0.0,0.0,0.0,0.0,0.0,0.0,0.0,0.0,0.0,0.0,0.0,0.0,0.0,0.0,0.0,0.0,0.0,0.0,0.0,0.0,0.0,0.0,0.0,0.0,0.0,0.0,0.0,0.0,0.0,0.0,0.0,0.0,0.0,0.0,0.0,0.0,0.0,0.0,0.0,0.0,0.0,0.0,0.0,0.0,0.0,0.0,0.0,0.0,0.0,0.0,0.0,0.0,0.0,0.0,0.0,0.0,0.0,0.0,0.0,0.0,0.0,0.0,0.0,0.0,0.0,0.0,0.0,0.0,0.0,0.0,0.0,0.0,0.0,0.0,0.0,0.0,0.0,0.0,0.0,0.0,1.2566,1.4328,1.5627,1.6358,1.6358,1.5539,1.5306,1.5969,0.0,0.0,0.0,0.0,0.0,0.0,0.0,0.0,0.0,0.0,0.0,0.0,0.0,0.0,0.0,0.0,0.0,0.0,0.0,0.0,0.0,0.0,0.0,0.0,0.0,0.0,0.0,0.0,0.0,0.0,0.0,0.0,0.0,0.0,0.0,0.0,0.0,0.0,0.0,0.0,0.0,0.0,0.0,0.0,0.0,0.0,0.0,0.0,0.0,0.0,0.0,0.0,0.0,0.0,0.0,0.0,0.0,0.0,0.0,0.0,0.0,0.0,0.0,0.0,0.0,0.0,0.0,0.0,0.0,0.0,0.0,0.0,0.0,0.0,0.0,0.0,0.0,0.0,0.0,0.0,0.0,0.0,0.0,0.0,0.0,0.0,0.0,0.0,0.0,0.0,0.0,0.0,0.0,0.0,0.0,0.0,0.0,0.0,0.0,0.0,0.0,0.0,0.0,1.2232,1.3274,1.5571,1.623,1.65,1.65,1.5248,1.4918,1.6032,1.4873,0.0,0.0,0.0,0.0,0.0,0.0,0.0,0.0,0.0,0.0,0.0,0.0,0.0,0.0,0.0,0.0,0.0,0.0,0.0,0.0,0.0,0.0,0.0,0.0,0.0,0.0,0.0,0.0,0.0,0.0,0.0,0.0,0.0,0.0,0.0,0.0,0.0,0.0,0.0,0.0,0.0,0.0,0.0,0.0,0.0,0.0,0.0,0.0,0.0,0.0,0.0,0.0,0.0,0.0,0.0,0.0,0.0,0.0,0.0,0.0,0.0,0.0,0.0,0.0,0.0,0.0,0.0,0.0,0.0,0.0,0.0,0.0,0.0,0.0,0.0,0.0,0.0,0.0,0.0,0.0,0.0,0.0,0.0,0.0,0.0,0.0,0.0,0.0,0.0,0.0,0.0,0.0,0.0,0.0,0.0,0.0,0.0,0.0,0.0,0.0,0.0,0.0,1.357,1.4137,1.6273,1.65,1.65,1.65,1.4877,1.4524,1.6005,1.446,0.0,0.0,0.0,0.0,0.0,0.0,0.0,0.0,0.0,0.0,0.0,0.0,0.0,0.0,0.0,0.0,0.0,0.0,0.0,0.0,0.0,0.0,0.0,0.0,0.0,0.0,0.0,0.0,0.0,0.0,0.0,0.0,0.0,0.0,0.0,0.0,0.0,0.0,0.0,0.0,0.0,0.0,0.0,0.0,0.0,0.0,0.0,0.0,0.0,0.0,0.0,0.0,0.0,0.0,0.0,0.0,0.0,0.0,0.0,0.0,0.0,0.0,0.0,0.0,0.0,0.0,0.0,0.0,0.0,0.0,0.0,0.0,0.0,0.0,0.0,0.0,0.0,0.0,0.0,0.0,0.0,0.0,0.0,0.0,0.0,0.0,0.0,0.0,0.0,0.0,0.0,0.0,0.0,0.0,0.0,0.0,0.0,0.0,0.0,0.0,0.0,0.0,1.4284,1.5274,1.6382,1.65,1.65,1.65,1.4519,1.4075,1.5978,1.4061,0.0,0.0,0.0,0.0,0.0,0.0,0.0,0.0,0.0,0.0,0.0,0.0,0.0,0.0,0.0,0.0,0.0,0.0,0.0,0.0,0.0,0.0,0.0,0.0,0.0,0.0,0.0,0.0,0.0,0.0,0.0,0.0,0.0,0.0,0.0,0.0,0.0,0.0,0.0,0.0,0.0,0.0,0.0,0.0,0.0,0.0,0.0,0.0,0.0,0.0,0.0,0.0,0.0,0.0,0.0,0.0,0.0,0.0,0.0,0.0,0.0,0.0,0.0,0.0,0.0,0.0,0.0,0.0,0.0,0.0,0.0,0.0,0.0,0.0,0.0,0.0,0.0,0.0,0.0,0.0,0.0,0.0,0.0,0.0,0.0,0.0,0.0,0.0,0.0,0.0,0.0,0.0,0.0,0.0,0.0,0.0,0.0,0.0,0.0,0.0,0.0,0.0,1.434,1.538,1.6395,1.65,1.635,1.6032,1.4281,1.39,1.55,0.0,0.0,0.0,0.0,0.0,0.0,0.0,0.0,0.0,0.0,0.0,0.0,0.0,0.0,0.0,0.0,0.0,0.0,0.0,0.0,0.0,0.0,0.0,0.0,0.0,0.0,0.0,0.0,0.0,0.0,0.0,0.0,0.0,0.0,0.0,0.0,0.0,0.0,0.0,0.0,0.0,0.0,0.0,0.0,0.0,0.0,0.0,0.0,0.0,0.0,0.0,0.0,0.0,0.0,0.0,0.0,0.0,0.0,0.0,0.0,0.0,0.0,0.0,0.0,0.0,0.0,0.0,0.0,0.0,0.0,0.0,0.0,0.0,0.0,0.0,0.0,0.0,0.0,0.0,0.0,0.0,0.0,0.0,0.0,0.0,0.0,0.0,0.0,0.0,0.0,0.0,0.0,0.0,0.0,0.0,0.0,0.0,0.0,0.0,0.0,0.0,0.0,1.3557,1.4713,1.5745,1.6441,1.65,1.6274,1.5743,1.4005,1.3616,1.5206,0.0,0.0,0.0,0.0,0.0,0.0,0.0,0.0,0.0,0.0,0.0,0.0,0.0,0.0,0.0,0.0,0.0,0.0,0.0,0.0,0.0,0.0,0.0,0.0,0.0,0.0,0.0,0.0,0.0,0.0,0.0,0.0,0.0,0.0,0.0,0.0,0.0,0.0,0.0,0.0,0.0,0.0,0.0,0.0,0.0,0.0,0.0,0.0,0.0,0.0,0.0,0.0,0.0,0.0,0.0,0.0,0.0,0.0,0.0,0.0,0.0,0.0,0.0,0.0,0.0,0.0,0.0,0.0,0.0,0.0,0.0,0.0,0.0,0.0,0.0,0.0,0.0,0.0,0.0,0.0,0.0,0.0,0.0,0.0,0.0,0.0,0.0,0.0,0.0,0.0,0.0,0.0,0.0,0.0,0.0,0.0,0.0,0.0,0.0,0.0,0.0,0.0,1.4176,1.5519,1.65,1.65,1.65,1.6274,1.5731,1.3667,1.3249,0.0,0.0,0.0,0.0,0.0,0.0,0.0,0.0,0.0,0.0,0.0,0.0,0.0,0.0,0.0,0.0,0.0,0.0,0.0,0.0,0.0,0.0,0.0,0.0,0.0,0.0,0.0,0.0,0.0,0.0,0.0,0.0,0.0,0.0,0.0,0.0,0.0,0.0,0.0,0.0,0.0,0.0,0.0,0.0,0.0,0.0,0.0,0.0,0.0,0.0,0.0,0.0,0.0,0.0,0.0,0.0,0.0,0.0,0.0,0.0,0.0,0.0,0.0,0.0,0.0,0.0,0.0,0.0,0.0,0.0,0.0,0.0,0.0,0.0,0.0,0.0,0.0,0.0,0.0,0.0,0.0,0.0,0.0,0.0,0.0,0.0,0.0,0.0,0.0,0.0,0.0,0.0,0.0,0.0,0.0,0.0,0.0,0.0,0.0,0.0,0.0,0.0,0.0,1.4754,1.5776,1.65,1.65,1.65,1.6132,1.5211,1.381,1.3679,1.5341,0.0,0.0,0.0,0.0,0.0,0.0,0.0,0.0,0.0,0.0,0.0,0.0,0.0,0.0,0.0,0.0,0.0,0.0,0.0,0.0,0.0,0.0,0.0,0.0,0.0,0.0,0.0,0.0,0.0,0.0,0.0,0.0,0.0,0.0,0.0,0.0,0.0,0.0,0.0,0.0,0.0,0.0,0.0,0.0,0.0,0.0,0.0,0.0,0.0,0.0,0.0,0.0,0.0,0.0,0.0,0.0,0.0,0.0,0.0,0.0,0.0,0.0,0.0,0.0,0.0,0.0,0.0,0.0,0.0,0.0,0.0,0.0,0.0,0.0,0.0,0.0,0.0,0.0,0.0,0.0,0.0,0.0,0.0,0.0,0.0,0.0,0.0,0.0,0.0,0.0,0.0,0.0,0.0,0.0,0.0,0.0,0.0,0.0,0.0,0.0,0.0,0.0,1.5265,1.5976,1.65,1.65,1.65,1.5982,1.4689,1.3735,1.3492,1.4147,0.0,0.0,0.0,0.0,0.0,0.0,0.0,0.0,0.0,0.0,0.0,0.0,0.0,0.0,0.0,0.0,0.0,0.0,0.0,0.0,0.0,0.0,0.0,0.0,0.0,0.0,0.0,0.0,0.0,0.0,0.0,0.0,0.0,0.0,0.0,0.0,0.0,0.0,0.0,0.0,0.0,0.0,0.0,0.0,0.0,0.0,0.0,0.0,0.0,0.0,0.0,0.0,0.0,0.0,0.0,0.0,0.0,0.0,0.0,0.0,0.0,0.0,0.0,0.0,0.0,0.0,0.0,0.0,0.0,0.0,0.0,0.0,0.0,0.0,0.0,0.0,0.0,0.0,0.0,0.0,0.0,0.0,0.0,0.0,0.0,0.0,0.0,0.0,0.0,0.0,0.0,0.0,0.0,0.0,0.0,0.0,0.0,0.0,0.0,0.0,0.0,0.0,1.5742,1.6173,1.65,1.65,1.65,1.5869,1.4299,1.3622,1.3026,1.2406,0.0,0.0,0.0,0.0,0.0,0.0,0.0,0.0,0.0,0.0,0.0,0.0,0.0,0.0,0.0,0.0,0.0,0.0,0.0,0.0,0.0,0.0,0.0,0.0,0.0,0.0,0.0,0.0,0.0,0.0,0.0,0.0,0.0,0.0,0.0,0.0,0.0,0.0,0.0,0.0,0.0,0.0,0.0,0.0,0.0,0.0,0.0,0.0,0.0,0.0,0.0,0.0,0.0,0.0,0.0,0.0,0.0,0.0,0.0,0.0,1.9016,1.8837,0.0,0.0,0.0,0.0,0.0,0.0,0.0,0.0,0.0,0.0,0.0,0.0,0.0,0.0,0.0,0.0,0.0,0.0,0.0,0.0,0.0,0.0,0.0,0.0,0.0,0.0,0.0,0.0,0.0,0.0,0.0,0.0,0.0,0.0,0.0,0.0,0.0,0.0,0.0,0.0,1.6315,1.6423,1.65,1.65,1.65,1.6019,1.484,1.4223,1.3817,1.3619,1.2835,0.0,0.0,0.0,0.0,0.0,0.0,0.0,0.0,0.0,0.0,0.0,0.0,0.0,0.0,0.0,0.0,0.0,0.0,0.0,0.0,0.0,0.0,0.0,0.0,0.0,0.0,0.0,0.0,0.0,0.0,0.0,0.0,0.0,0.0,0.0,0.0,0.0,0.0,0.0,0.0,0.0,0.0,0.0,0.0,0.0,0.0,0.0,0.0,0.0,0.0,0.0,0.0,0.0,0.0,0.0,0.0,0.0,0.0,0.0,2.0363,1.948,0.0,0.0,0.0,0.0,0.0,0.0,0.0,0.0,0.0,0.0,0.0,0.0,0.0,0.0,0.0,0.0,0.0,0.0,0.0,0.0,0.0,0.0,0.0,0.0,0.0,0.0,0.0,0.0,0.0,0.0,0.0,0.0,0.0,0.0,0.0,0.0,0.0,0.0,0.0,0.0,1.65,1.65,1.65,1.65,1.65,1.607,1.4984,1.4412,1.3856,1.3282,1.2884,0.0,0.0,0.0,0.0,0.0,0.0,0.0,0.0,0.0,0.0,0.0,0.0,0.0,0.0,0.0,0.0,0.0,0.0,0.0,0.0,0.0,0.0,0.0,0.0,0.0,0.0,0.0,0.0,0.0,0.0,0.0,0.0,0.0,0.0,0.0,0.0,0.0,0.0,0.0,0.0,0.0,0.0,0.0,0.0,0.0,0.0,0.0,0.0,0.0,0.0,0.0,0.0,0.0,2.5404,2.5973,2.6303,2.6303,2.5944,2.5173,2.2885,2.1261,2.0202,1.9977,0.0,0.0,0.0,0.0,0.0,0.0,0.0,0.0,0.0,0.0,0.0,0.0,0.0,0.0,0.0,0.0,0.0,0.0,0.0,0.0,0.0,0.0,2.0656,2.1241,2.2123,2.2162,1.9612,0.0,0.0,0.0,0.0,0.0,0.0,0.0,0.0,0.0,0.0,0.0,1.65,1.65,1.65,1.65,1.65,1.6107,1.5123,1.4551,1.3758,1.2601,1.2877,1.3098,0.0,0.0,0.0,0.0,0.0,0.0,0.0,0.0,0.0,0.0,0.0,0.0,0.0,0.0,0.0,0.0,0.0,0.0,0.0,0.0,0.0,0.0,0.0,0.0,0.0,0.0,0.0,0.0,0.0,0.0,0.0,0.0,1.767,1.8636,0.0,0.0,0.0,0.0,0.0,0.0,0.0,0.0,0.0,0.0,0.0,0.0,0.0,2.5365,2.6054,2.7827,2.8464,2.798,2.9173,2.951,2.9082,2.9082,2.8697,2.8023,2.7106,0.0,2.2209,2.1051,0.0,0.0,0.0,0.0,0.0,0.0,0.0,0.0,0.0,0.0,0.0,0.0,0.0,0.0,0.0,0.0,0.0,0.0,0.0,0.0,0.0,0.0,2.3071,2.3207,2.3372,2.3379,2.2946,2.1716,2.0464,1.9792,1.8829,1.7963,0.0,0.0,0.0,0.0,0.0,0.0,1.65,1.65,1.65,1.65,1.65,1.6237,1.5663,1.5097,1.4318,1.316,1.2726,1.2714,1.3185,1.3747,0.0,0.0,0.0,0.0,0.0,0.0,0.0,0.0,0.0,0.0,0.0,0.0,0.0,0.0,0.0,0.0,0.0,0.0,0.0,0.0,0.0,0.0,0.0,0.0,0.0,0.0,0.0,0.0,0.0,1.8053,1.9364,1.8946,2.0708,2.1433,0.0,0.0,0.0,0.0,0.0,0.0,0.0,0.0,0.0,2.6112,2.7319,2.8231,2.8853,3.0425,3.1091,3.0806,3.1749,3.2048,3.1764,3.139,3.1076,3.0731,2.9684,2.8229,2.6432,2.4328,2.3394,2.3289,0.0,0.0,0.0,0.0,2.308,2.3289,2.3086,2.3206,2.3445,2.3251,0.0,0.0,0.0,0.0,0.0,0.0,0.0,2.151,2.1925,2.3074,2.4225,2.4634,2.5016,2.5285,2.5285,2.4379,2.3135,2.1727,2.081,1.9913,1.8938,1.7957,0.0,0.0,0.0,1.6886,1.6538,1.681,1.6886,1.6538,1.65,1.64,1.6183,1.5655,1.5009,1.4212,1.3652,1.3463,1.3702,1.4226,1.4847,0.0,0.0,0.0,0.0,0.0,0.0,0.0,0.0,0.0,0.0,0.0,0.0,0.0,0.0,0.0,0.0,0.0,0.0,0.0,0.0,0.0,0.0,0.0,0.0,0.0,0.0,0.0,0.0,1.9432,2.09,1.9541,2.2474,2.3746,0.0,0.0,0.0,0.0,0.0,0.0,2.6404,2.7463,2.8473,2.9485,3.0398,3.1135,3.1779,3.2781,3.3275,3.3275,3.3769,3.4008,3.3993,3.3499,3.3185,3.2961,3.1958,3.1165,3.0342,2.735,2.5824,2.5375,2.5375,2.5181,2.4926,2.5255,2.5472,2.5621,2.5615,2.5719,2.5719,2.4881,2.4507,2.4133,2.2832,0.0,0.0,0.0,0.0,2.2739,2.3427,2.434,2.5277,2.5959,2.6482,2.6866,2.6866,2.6452,2.5525,2.3565,2.2602,2.1726,2.0616,1.9196,0.0,1.7811,1.7795,1.7616,1.6999,1.72,1.7234,1.6785,1.6588,1.65,1.65,1.6019,1.5475,1.4921,1.4387,1.4103,1.4103,1.4475,1.5006,1.5694,0.0,0.0,0.0,0.0,0.0,0.0,0.0,0.0,0.0,0.0,0.0,0.0,0.0,0.0,0.0,0.0,0.0,0.0,0.0,0.0,0.0,0.0,0.0,0.0,0.0,0.0,0.0,0.0,0.0,2.0808,2.4669,0.0,0.0,0.0,0.0,2.6487,2.7147,2.8578,3.1035,3.1243,3.2139,3.4113,3.4203,3.4562,3.525,3.5325,3.5355,3.5355,3.5385,3.54,3.54,3.537,3.4996,3.4414,3.4339,3.3934,3.2991,2.9112,2.748,2.745,2.745,2.7824,2.8278,2.7675,2.7854,2.8128,2.6258,2.6019,2.6632,2.721,2.6971,2.6198,2.4859,2.3992,0.0,0.0,2.3948,2.4619,2.5299,2.598,2.6686,2.7345,2.7525,2.754,2.754,2.7525,2.6911,2.4889,2.3498,2.2471,2.1902,0.0,2.0316,1.9182,1.9006,1.8796,1.8187,1.7712,1.7398,1.736,1.6848,1.65,1.65,1.6019,1.5475,1.4921,1.4387,1.4103,1.4103,1.4128,1.4626,1.5671,1.6179,0.0,0.0,0.0,0.0,0.0,0.0,0.0,0.0,0.0,0.0,0.0,0.0,0.0,0.0,0.0,0.0,0.0,0.0,0.0,0.0,0.0,0.0,0.0,0.0,0.0,0.0,0.0,0.0,2.5897,2.8393,0.0,2.7391,2.7439,2.7869,2.8548,2.9987,3.1604,3.335,3.4637,3.5459,3.5759,3.5806,3.5684,3.5504,3.5504,3.5504,3.5504,3.5504,3.5504,3.5489,3.504,3.4743,3.4488,3.4023,3.3709,3.338,3.1973,3.1135,3.0746,3.0746,3.0642,3.0434,3.018,3.024,3.03,2.916,2.8906,2.8936,2.7929,2.7151,2.6422,2.5516,2.5091,2.4986,2.5405,2.5704,2.6033,2.6692,2.7061,2.73,2.754,2.76,2.76,2.76,2.76,2.739,2.6662,2.5465,2.4238,2.3185,2.2191,2.124,2.0387,2.026,2.0057,1.949,1.9553,1.923,1.81,1.7783,1.7351,1.6568,1.6019,1.5475,1.4921,1.4387,1.4236,1.4601,1.4614,1.4947,1.568,1.5883,1.6074,0.0,0.0,0.0,0.0,0.0,0.0,0.0,0.0,0.0,0.0,0.0,0.0,0.0,0.0,0.0,0.0,0.0,0.0,0.0,0.0,0.0,0.0,0.0,0.0,0.0,2.6288,2.869,2.9275,3.1619,3.2512,3.0746,3.1001,3.136,3.1554,3.3185,3.4637,3.5776,3.6626,3.7,3.6806,3.6387,3.5953,3.5504,3.5504,3.5504,3.5504,3.5504,3.5504,3.5489,3.504,3.4848,3.4801,3.4367,3.4173,3.4173,3.4173,3.3918,3.3499,3.326,3.2901,3.2497,3.2497,3.2497,3.2362,3.124,3.0702,3.0253,2.8768,2.7974,2.7495,2.6826,2.6617,2.6662,2.6896,2.6941,2.7046,2.748,2.76,2.76,2.76,2.76,2.76,2.76,2.76,2.76,2.76,2.6692,2.5659,2.4762,2.3615,2.2681,2.2265,2.1808,2.1386,2.1018,2.0922,2.0364,1.899,1.8685,1.8145,1.7128,1.6733,1.624,1.5492,1.5113,1.4984,1.516,1.5173,1.5424,1.5957,1.6143,1.6245,1.6245,0.0,0.0,0.0,0.0,0.0,0.0,0.0,0.0,0.0,0.0,0.0,0.0,0.0,0.0,0.0,0.0,0.0,0.0,0.0,0.0,0.0,0.0,0.0,2.5896,2.9275,3.1461,3.0725,3.4103,3.5489,3.2946,3.5011,3.6252,3.5609,3.6731,3.7719,3.8382,3.7293,3.6888,3.7424,3.6241,3.5582,3.5504,3.5504,3.5504,3.5504,3.5504,3.5504,3.5504,3.5504,3.5504,3.5504,3.5504,3.5504,3.5504,3.5504,3.5504,3.5444,3.4771,3.4533,3.4533,3.4533,3.4518,3.4204,3.2198,3.1077,3.0432,2.9804,2.9636,2.9517,2.8831,2.8622,2.8487,2.7854,2.766,2.766,2.763,2.763,2.763,2.76,2.76,2.76,2.76,2.76,2.76,2.76,2.7091,2.6617,2.6587,2.551,2.4646,2.4684,2.3571,0.0,2.2735,2.1717,2.0737,2.0069,1.9516,1.894,1.8236,1.8217,1.7763,1.6599,1.6491,1.6254,1.5759,1.5713,1.5957,1.6497,1.7055,1.7333,1.7333,0.0,0.0,0.0,0.0,0.0,0.0,0.0,0.0,0.0,0.0,0.0,0.0,0.0,0.0,0.0,0.0,0.0,0.0,0.0,0.0,0.0,2.8785,3.063,3.063,3.1997,3.3804,3.5956,3.6391,3.6567,3.6761,3.7,3.709,3.6896,3.7644,3.848,3.9315,3.9471,3.918,3.8365,3.7996,3.7077,3.5519,3.5504,3.5504,3.5504,3.5504,3.5504,3.5504,3.5504,3.5504,3.5504,3.5504,3.5504,3.5504,3.5504,3.5504,3.5489,3.5295,3.522,3.522,3.522,3.4607,3.3619,3.2602,3.178,3.1122,3.0462,3.0253,3.0133,2.9505,2.9337,2.9307,2.9112,2.9052,2.8948,2.8442,2.8323,2.8188,2.772,2.76,2.76,2.76,2.76,2.76,2.76,2.745,2.718,2.6677,2.5899,2.5171,2.4697,2.3889,2.3334,2.3355,2.3062,2.2651,2.2131,2.1937,2.1233,1.9677,1.9197,1.8459,1.7164,1.6357,1.6036,1.6264,1.5904,1.615,1.7063,1.7605,1.7887,0.0,0.0,0.0,0.0,0.0,0.0,0.0,0.0,0.0,0.0,0.0,0.0,0.0,0.0,0.0,0.0,0.0,0.0,0.0,0.0,0.0,0.0,3.1977,3.397,3.4857,3.5291,3.6252,3.8167,3.7988,3.7898,3.8347,3.8302,3.8257,3.8257,3.8957,3.9711,4.0501,4.0718,4.0478,3.9708,3.9078,3.82,3.694,3.6286,3.5943,3.5943,3.5636,3.5504,3.5504,3.5504,3.5668,3.5943,3.5943,3.5943,3.5975,3.6337,3.6274,3.5926,0.0,0.0,0.0,0.0,3.4651,3.3395,3.2736,3.2049,3.1391,3.0731,3.0702,3.0806,3.0163,3.0172,3.0327,2.9763,2.9791,2.9871,2.918,2.9011,2.8906,2.8543,2.8229,2.8109,2.8378,2.8229,2.8109,2.8378,2.8214,0.0,2.75,2.6647,2.5899,2.551,2.4619,2.4007,2.4007,2.3774,2.3404,2.287,2.2547,2.1848,2.0464,1.9811,0.0,0.0,0.0,1.7079,1.7174,1.687,0.0,0.0,0.0,1.8438,1.8438,1.7907,0.0,0.0,1.6595,1.65,0.0,0.0,0.0,0.0,0.0,0.0,0.0,0.0,0.0,0.0,0.0,0.0,0.0,0.0,0.0,0.0,3.464,3.6535,3.8381,3.8676,3.8676,3.8527,3.8975,3.9125,3.8661,3.911,3.9448,3.9634,4.0296,4.1034,4.1802,4.1484,0.0,0.0,0.0,3.9026,3.8777,3.7322,3.6615,3.6569,3.5831,3.5504,3.5504,3.5587,3.5975,3.6615,3.6707,3.6737,3.6783,3.7515,3.7397,3.6676,3.6006,3.5701,3.5619,3.5619,3.4808,3.3652,3.2961,0.0,0.0,3.1054,3.1192,3.1496,3.0911,3.1144,3.134,3.0145,3.0308,3.0665,3.0008,2.9885,2.9924,2.9833,2.9301,2.8993,2.9579,2.9195,2.8891,2.946,2.9116,2.8682,2.8607,2.7485,2.6557,2.6497,2.5397,2.4575,2.45,2.3984,2.3415,2.2972,2.2293,0.0,2.0972,2.0313,1.9661,1.903,1.8925,1.8658,1.812,1.8165,1.8419,1.8893,1.8968,1.8968,1.8893,1.8361,1.7827,1.7291,1.6752,1.65,0.0,0.0,0.0,0.0,0.0,0.0,0.0,0.0,0.0,0.0,0.0,0.0,0.0,0.0,0.0,3.6025,3.8137,3.9563,3.9978,4.0472,4.0412,3.9349,3.8841,3.896,3.9918,3.9649,3.9858,4.092,4.0832,4.131,4.269,4.2811,4.2324,4.1189,4.0906,3.987,3.8014,3.7057,3.6615,3.6569,3.5831,0.0,3.5537,3.6117,3.6477,3.6646,3.7279,3.7573,3.7573,3.7735,3.769,3.7544,3.7413,3.6965,3.6384,3.6384,3.5876,3.5076,3.4354,3.4091,3.3964,3.3167,3.2648,3.2273,3.2138,3.1836,0.0,3.1224,3.164,3.2075,3.14,3.1607,3.1883,3.1337,3.0695,3.0243,3.0382,2.9883,2.943,2.9577,2.9517,2.922,2.8682,2.7485,2.6408,2.5869,2.5113,2.4395,2.3864,2.3684,2.3759,2.4186,2.364,2.2966,2.2373,2.1699,2.0807,1.9622,1.914,1.8662,1.8125,1.8516,1.8798,1.8893,1.9332,1.9332,1.8893,1.8361,1.7827,1.7291,1.6752,1.65,0.0,0.0,0.0,0.0,0.0,0.0,0.0,0.0,0.0,0.0,0.0,3.1164,0.0,0.0,3.7,3.8631,4.0023,4.0891,4.0891,4.0891,4.0651,3.9993,3.9888,4.0023,4.0367,4.0113,4.0187,4.0846,4.1175,4.1844,4.294,4.3232,4.3029,4.2323,4.1587,4.0646,3.9501,3.8351,3.7758,3.7729,3.698,3.6662,3.6662,3.701,3.7395,3.7758,3.8189,3.8358,3.8358,3.8358,3.8596,3.8941,3.8941,3.8218,3.7203,3.7203,3.6762,3.6098,3.5376,3.5168,3.5066,3.3912,3.3834,3.4007,3.3268,3.3299,3.3448,3.2757,3.305,3.3467,3.2756,3.2841,3.3024,3.2672,3.2097,3.1587,3.1602,3.1063,3.0597,3.0576,3.0283,2.9939,2.9609,2.8472,2.726,2.6258,2.554,2.4859,2.4208,2.3819,2.3729,2.4051,2.3535,2.3032,2.2718,2.1769,2.0917,2.0243,1.9634,1.9188,1.8912,1.9169,1.9299,1.9299,1.9299,1.9169,1.8893,1.8086,1.7565,1.7291,1.6752,1.65,0.0,0.0,0.0,0.0,0.0,0.0,0.0,0.0,2.9726,3.1809,3.3514,3.5175,3.6926,3.8646,4.0023,4.0666,4.1355,4.1731,4.1437,4.1055,4.0708,4.0269,4.0681,4.0846,4.0442,4.0292,4.0307,4.0561,4.1463,4.2301,4.2973,4.3393,4.3504,4.3217,4.2185,4.1491,4.1204,3.9831,3.9122,3.9122,3.8242,3.7793,3.7806,3.795,3.833,3.8908,3.9059,3.9139,3.9139,3.9139,3.9516,4.0096,4.0096,3.9332,3.8234,3.8064,3.7649,3.7109,3.6361,3.6227,3.6169,3.4842,3.5117,3.5754,3.4408,3.4716,3.5241,3.397,3.4087,3.4479,3.3937,3.3887,3.4003,3.4003,3.3476,3.2944,3.2823,3.2166,3.1567,3.1504,3.0943,3.0507,3.0507,2.9654,2.8472,2.6991,2.6213,2.5555,2.4874,2.4306,2.3984,2.3984,2.331,2.2778,2.2523,2.1395,2.0703,2.0703,2.0183,1.9842,1.9708,1.9947,2.0037,1.9884,1.9476,1.9195,1.9098,1.8119,1.7518,1.7308,1.6888,1.66,2.3633,2.5113,2.6841,2.9235,2.916,2.9983,0.0,0.0,3.534,3.7898,3.8566,3.9005,3.9813,4.0621,4.1422,4.2066,4.2871,4.2965,4.161,4.201,4.1725,3.9736,3.9589,3.9843,4.0352,3.9873,4.0008,4.119,4.1729,4.2301,4.2973,4.392,4.3826,4.2455,4.2912,4.2513,4.1221,4.039,3.9968,3.9952,3.8484,3.7793,3.7822,3.8469,3.8827,3.8935,3.9662,3.9969,3.9969,3.9969,4.002,4.0096,4.0096,3.9995,3.9756,3.9032,3.8723,3.8569,3.781,3.8001,3.8422,3.7607,3.7043,3.6545,3.5721,3.5166,3.4625,3.3841,3.4087,3.4576,3.4503,3.4918,3.5362,3.5362,3.4868,3.4211,3.3617,3.2505,3.1567,3.1504,3.0943,3.0507,3.0507,3.0387,2.9639,2.7764,2.6926,2.6243,2.5561,2.5435,2.539,2.539,2.4253,2.3026,2.1904,2.1141,2.0703,2.0703,2.0628,2.0318,1.9723,2.0827,2.1201,2.0598,2.0526,2.0259,1.978,1.9124,1.8319,1.7387,1.7332,1.7011,2.741,2.8442,2.9415,0.0,3.2991,3.4442,3.7195,3.7793,3.8197,3.9694,4.0292,4.0771,4.1452,4.1796,4.2201,0.0,4.3731,4.396,4.289,4.2422,4.167,4.0308,3.9013,3.8661,3.9723,3.9662,3.9947,4.0914,4.1692,4.2429,4.313,4.3652,4.3606,4.2963,4.2422,4.183,4.1221,4.0471,4.0105,4.0079,3.9455,3.9361,3.9791,4.0087,4.0237,4.0263,4.0584,4.0519,4.0096,4.0096,4.0096,4.0096,4.0096,4.0096,4.0045,3.9714,3.961,3.9493,3.8748,3.8982,3.94,3.8238,3.8252,3.8493,3.7325,3.706,3.6962,3.5794,3.5671,3.576,3.5301,3.5385,3.56,3.56,3.5385,3.5005,3.4333,3.3434,3.2641,3.221,3.1903,3.1582,3.1147,3.1124,3.0727,2.948,2.8412,2.7515,2.6841,2.6422,2.6033,2.5644,2.4762,2.3962,2.3424,2.2458,2.1859,2.1859,2.15,2.1156,2.0891,2.1395,2.156,2.1291,2.0587,2.0117,1.9901,1.8976,1.8134,1.741,1.7714,1.7551,2.9564,3.0776,0.0,3.3858,3.6148,3.8063,3.8422,3.926,4.0142,4.0801,4.1025,4.125,4.1767,4.1856,4.2028,4.2686,4.3806,4.4247,4.3273,4.2598,4.1636,4.004,3.8433,3.7835,3.8817,3.9152,3.9654,4.0386,4.1538,4.2433,4.2977,4.3456,4.3639,4.3392,4.2591,4.1931,4.1508,4.0967,4.0722,4.0705,4.0299,4.0603,4.1508,4.1508,4.1508,4.1491,4.1288,4.0899,4.04,4.018,4.0096,4.0096,4.0096,4.0096,4.0096,4.0096,4.0096,4.0028,3.9503,3.9656,3.9926,3.8853,3.9225,3.9859,3.8582,3.8582,3.8717,3.7472,3.7117,3.6935,3.6118,3.607,3.6066,3.5465,3.5618,3.5704,3.4816,3.3946,3.3294,3.3206,3.2718,3.2261,3.213,3.1967,3.1697,3.1152,3.012,2.9101,2.8259,2.7585,2.6811,2.5974,2.5277,2.4799,2.4619,2.343,2.2703,2.2703,2.2254,2.1874,2.171,2.2039,2.2143,2.1984,2.0933,2.0398,2.0398,1.9214,1.8367,1.784,1.8242,1.8141,2.8966,3.145,3.4713,3.6058,3.7898,3.9694,4.0965,4.1294,4.1542,4.2201,4.1309,4.0442,4.0457,4.0457,4.0666,4.1324,4.294,4.3561,4.1883,4.2591,4.1851,3.8138,3.7637,3.7606,3.7652,3.8255,3.8965,3.9767,4.129,4.2219,4.2235,4.3702,4.4198,4.3409,4.4096,4.3785,4.2269,4.2236,4.2219,4.2202,4.079,4.0874,4.2252,4.2252,4.2252,4.2219,4.1508,4.1187,4.1119,4.0375,4.0096,4.0096,4.0096,4.0096,4.0096,4.0096,4.0096,4.0096,4.0079,4.0079,4.0096,4.0045,4.0062,3.996,3.9191,3.8971,3.8836,3.8091,3.7872,3.767,3.6869,3.7244,3.7289,3.515,3.5729,3.6384,3.4988,3.3627,3.3024,3.4392,3.3014,3.2034,3.3316,3.2997,3.2555,3.2528,3.189,3.0957,2.9711,2.8951,2.8023,2.6707,2.5974,2.5307,2.4664,2.343,2.2703,2.2703,2.2673,2.2388,2.1724,2.2892,2.3266,2.2688,2.1999,2.1655,2.1641,2.0369,1.9484,1.8958,1.897,1.8682,3.2467,3.4472,3.6327,3.8542,3.9903,4.107,4.2372,4.2342,4.1886,4.119,3.9649,3.8287,3.7883,3.7808,3.8516,4.0653,4.2761,4.4147,4.4138,4.454,4.3614,4.0374,3.9527,0.0,0.0,0.0,3.8774,4.0479,4.1614,4.2478,4.2965,4.4035,4.4496,4.4198,4.3944,4.3555,4.3047,4.254,4.2286,4.2286,4.2286,4.2557,4.3064,4.3572,4.3278,4.2286,4.2033,4.1356,4.0468,4.0214,4.0096,4.0096,4.0096,4.0096,4.0096,4.0096,4.0096,4.002,3.9489,3.9315,3.9236,3.8734,3.8914,3.9265,3.9006,3.931,3.9588,3.8836,3.8633,3.8334,3.7026,3.6894,3.6911,3.6156,3.6379,3.6597,3.6133,3.5318,3.4808,3.5262,3.4813,3.4478,3.4969,3.4826,3.4178,3.2812,3.1584,3.0552,2.9726,2.9011,2.8248,2.736,2.6258,2.5501,2.5277,2.4059,2.3295,2.3295,2.3295,2.3191,2.2966,2.337,2.3505,2.3295,2.2692,2.2146,2.1697,2.0868,1.995,1.9008,1.9359,1.9233,3.5609,3.7195,3.8452,4.0846,4.1758,4.2297,4.3095,4.2462,4.1257,3.9649,3.7725,3.5957,3.4908,3.4832,3.5906,3.8832,4.0976,4.2824,4.4368,4.4718,4.4002,4.1858,4.114,4.0561,0.0,0.0,0.0,4.0602,4.1933,4.2777,4.3014,4.4012,4.4615,4.4615,4.4096,4.3707,4.3392,4.2929,4.2557,4.2303,4.3335,4.369,4.3426,4.4215,4.3893,4.2675,4.2405,4.1593,4.046,4.0214,4.0096,4.0096,4.0096,4.0096,4.0096,4.0096,4.0096,4.002,3.9516,3.9139,3.8827,3.8358,3.833,3.8553,3.8827,3.9262,3.963,3.9446,3.9402,3.9042,3.7498,3.7288,3.7206,3.6165,3.6319,3.6631,3.6373,3.5771,3.551,3.6303,3.6033,3.5884,3.6457,3.6081,3.5073,3.3279,3.2014,3.0842,2.9738,2.9205,2.8618,2.769,2.6602,2.5959,2.5959,2.4956,2.4223,2.3984,2.3969,2.3849,2.361,2.3595,2.3595,2.3595,2.3009,2.2498,2.2053,2.1224,2.0402,1.9658,1.975,1.9623,3.8227,3.9559,4.101,4.2901,4.3319,4.3245,4.3245,4.1683,3.9655,3.7648,3.5563,3.3534,0.0,0.0,3.3102,3.6131,3.7985,4.0048,4.2953,4.3542,4.339,0.0,0.0,0.0,0.0,0.0,0.0,4.0383,4.2219,4.3071,4.2388,4.3785,4.4615,4.4615,4.4615,4.4215,4.346,4.3443,4.3115,4.2422,4.3904,4.4198,4.3504,4.4248,4.4147,4.3341,4.2625,4.188,4.1136,4.0417,4.0096,4.0096,4.0096,4.0096,4.0096,4.0096,4.0096,4.0096,4.0096,3.9584,3.8881,3.8854,3.8386,3.7978,3.869,3.8935,3.9113,3.9901,4.0096,3.9756,3.8234,3.8386,3.8191,3.5386,3.5803,3.6628,3.5935,3.5216,3.5367,3.7437,3.6815,3.6344,3.7722,3.6752,3.5342,3.4023,3.3146,3.1909,2.9853,2.9606,2.9097,2.7735,2.7001,2.6587,2.6587,2.5959,2.5277,2.4649,2.4575,2.4261,2.3625,2.3595,2.3595,2.3595,2.3031,2.2717,2.2694,2.1489,2.087,2.0771,2.0156,1.9824,4.0763,4.1953,4.2901,4.4421,4.3688,4.265,4.265,4.023,3.742,3.5382,3.2912,3.0698,0.0,0.0,0.0,3.6216,3.9803,0.0,4.6057,4.7113,0.0,4.5808,0.0,4.5139,4.3844,4.3906,0.0,4.2632,4.3071,4.3308,4.3149,4.4045,4.4615,4.4615,4.4615,4.4513,4.4282,4.4282,4.4181,4.4022,4.4412,4.4496,4.4282,4.4513,4.4147,4.3341,4.2625,4.188,4.1136,4.0417,4.0096,4.0096,4.0096,4.0096,4.0096,4.0096,4.0096,4.0096,4.0096,3.9584,3.8799,3.8246,3.833,3.8663,3.8854,3.9315,3.9833,4.0045,4.0096,3.9876,3.887,3.8772,3.8723,3.7975,3.8066,3.8302,3.8093,3.7919,3.7948,3.8514,3.8804,3.8916,3.8753,3.8003,3.6913,3.5424,3.4175,3.2499,2.994,2.9606,2.9097,2.7735,2.7001,2.6587,2.6587,2.554,2.4784,2.4619,2.4126,2.3789,2.361,2.3595,2.3595,2.3595,2.3443,2.3143,2.2694,2.2374,2.1728,2.0795,2.0622,2.0283,4.3165,4.4137,4.471,4.5185,4.3863,4.2006,4.0516,3.7948,3.4912,3.1729,3.0033,2.8616,2.7005,2.9028,3.1774,0.0,0.0,0.0,4.5313,4.6793,4.7479,0.0,4.7293,0.0,4.5698,4.5855,4.5737,4.4959,4.4604,4.4282,4.3944,4.4654,4.5077,4.5077,4.4784,4.4615,4.4615,4.4615,4.4615,4.4615,4.4615,4.4615,4.4615,4.4615,4.4147,4.3375,4.2963,4.2354,4.1644,4.1221,4.0865,4.0578,4.0578,4.0383,4.0096,4.0096,4.0096,4.0146,4.046,4.0286,3.9721,3.8639,3.833,3.8469,3.8799,3.9236,3.9636,3.9995,4.0096,3.9927,3.9113,3.8908,3.8827,3.8497,3.8414,3.8414,3.8414,3.8414,3.8497,3.8827,3.9542,3.9977,3.9554,3.89,3.7936,3.6422,3.5276,3.3577,3.083,2.9961,2.9097,2.7735,2.727,2.7046,2.7046,2.6348,2.5794,2.551,2.5121,2.4777,2.4492,2.4208,2.4044,2.4044,2.4044,2.3867,2.353,2.3287,2.2914,2.2514,2.1909,2.1423,4.5364,4.5933,4.6115,4.5469,4.3673,4.1257,3.7967,3.5304,3.2315,2.7906,2.7195,2.6879,2.5322,2.7241,2.9897,3.2473,0.0,3.9495,4.3396,4.5064,4.643,4.802,4.8122,4.78,4.7141,4.7581,4.7648,4.6989,4.6346,4.5635,4.4801,4.5348,4.5669,4.5568,4.4925,4.4615,4.4615,4.4615,4.4615,4.4615,4.4615,4.4615,4.4598,4.4665,4.4347,4.3674,4.359,4.3165,4.2564,4.239,4.1914,4.1356,4.1356,4.0899,4.0265,4.0367,4.0333,4.0367,4.1085,4.1356,4.1116,3.9636,3.8697,3.8237,3.8838,3.8963,3.9086,3.9859,4.0096,3.9927,3.9236,3.9059,3.8897,3.8262,3.8108,3.8108,3.8108,3.8108,3.829,3.8951,3.961,4.0096,4.0096,3.9571,3.8647,3.7178,3.6323,3.4854,3.2092,3.0559,2.9218,2.7869,2.7645,2.76,2.76,2.751,2.7225,2.6632,2.6512,2.6213,2.563,2.5038,2.4739,2.4739,2.4739,2.4739,2.4739,2.4212,2.4215,2.4664,2.3519,2.2823,4.6621,4.6651,4.6115,4.5469,4.3,3.9967,3.6988,3.3393,0.0,0.0,2.5449,2.4976,2.4659,2.7494,3.0966,3.4292,3.7568,4.1385,4.6186,4.6712,4.7378,0.0,4.9187,4.8765,4.8629,4.8189,0.0,4.7733,4.7597,4.6938,4.5585,4.5635,4.5415,4.4818,4.4682,4.4615,4.4615,4.4615,4.4615,4.4615,4.4615,4.4615,4.4626,4.5115,4.5277,4.5105,4.4492,4.4155,4.3949,4.2771,4.2219,4.21,4.21,4.166,4.1085,4.1677,4.1525,4.1119,4.1847,4.21,4.196,4.0966,4.0196,3.9691,3.9714,3.9358,3.9086,3.9859,4.0096,4.007,3.9927,3.9901,3.9876,3.9731,3.9705,3.9705,3.9705,3.9705,3.9731,3.9876,3.9995,4.0096,4.0096,3.9994,3.9403,3.793,3.7086,3.5611,3.2798,3.1277,2.9914,2.858,2.7944,2.76,2.76,2.7091,2.6707,2.6602,2.6078,2.5734,2.5615,2.5495,2.5435,2.5435,2.5435,2.5435,2.5435,2.5318,2.5064,2.4703,2.4465,2.373,4.6629,4.6815,4.6586,4.5693,4.288,3.9249,3.5169,0.0,0.0,0.0,2.3747,2.3932,2.3932,2.6652,0.0,3.1628,3.458,3.8408,4.3561,4.4398,4.572,4.912,4.9221,4.9001,4.9001,4.8697,4.8477,4.8477,4.8477,4.7834,4.6346,4.5906,4.5348,4.4632,4.4615,4.4615,4.4615,4.4615,4.4615,4.4615,4.4615,4.4759,4.5062,4.5372,4.5673,4.5947,4.5586,4.5274,4.4948,4.4591,4.3597,4.2373,4.3125,4.2492,4.1288,4.2016,4.232,4.2405,4.276,4.3149,4.336,4.2485,4.1247,4.0084,3.9939,3.9429,3.9086,3.9859,4.0096,4.0096,4.0096,4.0096,4.0096,4.0096,4.0096,4.0096,4.0096,4.0096,4.0096,4.0096,4.0096,4.0096,4.0096,4.0096,3.974,3.8633,3.7849,3.6473,3.4027,3.2501,3.0994,2.9294,2.8502,2.8113,2.8113,2.7814,2.7485,2.7151,2.7455,2.7365,2.6662,2.6632,2.6632,2.6632,2.6303,2.6288,2.6632,2.6288,2.6167,2.6194,2.5855,2.5091,4.6373,4.6746,4.6773,4.5501,4.2365,3.8359,3.3529,2.9798,0.0,2.2515,2.2499,2.3257,2.3579,2.5661,2.7777,0.0,3.1501,3.4976,4.0237,4.1745,4.3842,0.0,4.8815,0.0,4.9001,4.9001,0.0,4.9001,4.8833,4.8167,4.6883,4.594,4.5196,4.4632,4.4615,4.4615,4.4615,4.472,4.4786,4.4786,4.4934,4.5232,4.5681,4.5833,4.6161,4.6618,4.6618,4.6353,4.5933,4.6119,4.5,4.3262,4.4105,4.3486,4.2192,4.2797,4.3403,4.3882,4.3882,4.4316,4.466,4.3641,4.1968,4.0315,4.017,3.9561,3.9086,3.9859,4.0096,4.0146,4.0299,4.0231,4.0096,4.0096,4.0231,4.0299,4.013,4.0231,4.0299,4.013,4.0096,4.0096,4.0096,4.0096,3.9859,3.9106,3.8514,3.7318,3.5003,3.3729,3.2278,3.0223,2.928,2.8801,2.8801,2.8801,2.8577,2.8064,2.9022,2.9142,2.8064,2.8019,2.8019,2.8019,2.7375,2.73,2.7809,2.7151,2.7091,2.7585,2.6912,2.615,4.6467,4.6533,4.5977,4.4219,4.0597,3.6554,3.2966,0.0,2.5196,2.2744,2.2319,2.2818,2.4152,2.5172,2.6944,3.0417,3.1786,3.4238,3.9471,4.1414,4.347,4.6616,0.0,0.0,4.9001,4.9001,4.9001,4.9001,4.8283,4.7511,4.6861,4.5478,4.4682,4.4615,4.4615,4.4615,4.4615,4.5125,4.5407,4.5407,4.5965,4.6264,4.6336,4.6955,4.7255,4.732,4.732,4.7277,4.715,4.6056,4.577,4.5932,4.4952,4.4783,4.5122,4.5331,4.5432,4.55,4.55,4.5551,4.5322,4.3807,4.2298,4.1073,4.0926,3.9956,3.9086,3.9859,4.0096,4.0265,4.0933,4.0595,4.0096,4.0096,4.0595,4.0916,4.0248,4.0612,4.0899,4.0231,4.0096,4.0096,4.0096,4.0096,3.9859,3.9106,3.8937,3.7886,3.5068,3.4595,3.3686,3.1548,3.0238,2.9517,2.9517,2.9517,2.9487,2.9427,2.9532,2.9547,2.9427,2.9427,2.9427,2.9427,2.8757,2.8442,2.8502,2.7839,2.754,2.7575,2.6846,2.6119,4.4366,4.5211,4.5363,4.4065,4.0077,3.5731,3.2869,0.0,2.4461,2.2676,2.2296,2.2482,2.3071,2.3782,2.5067,2.7435,2.7706,2.9585,3.5267,3.6569,3.8886,4.4147,4.6092,0.0,0.0,0.0,4.8965,4.89,4.8165,4.7573,4.7282,4.6265,4.5447,4.4995,4.496,4.4727,4.425,4.4478,4.4605,4.4622,4.5329,4.5884,4.6297,4.7061,4.7593,4.7937,4.7937,4.7736,4.7385,4.7237,4.6397,4.5271,4.608,4.5813,4.507,4.6021,4.6363,4.6295,4.5855,4.5703,4.551,4.4447,4.3389,4.2323,4.1316,4.0346,3.9692,3.9994,4.0434,4.073,4.0561,4.0333,4.0214,4.0646,4.0646,4.0561,4.073,4.0629,4.0468,4.0163,4.0096,4.0096,4.0096,4.0096,4.0011,3.9723,3.9276,3.8271,3.6227,3.5561,3.4479,3.233,3.0926,3.0133,3.0133,3.0133,2.9983,2.9636,3.0313,3.0402,2.9636,2.9939,3.0133,3.0133,2.9505,2.937,2.9744,2.9101,2.8603,2.8188,2.7887,2.7152,4.1893,4.3441,4.4289,4.3202,3.8998,3.4595,0.0,0.0,2.3844,2.2654,2.2426,2.2521,2.2839,2.3249,2.3962,2.5207,2.5265,2.686,3.1749,3.3372,3.6039,0.0,0.0,4.5568,4.7817,4.8629,4.9022,4.9135,4.8423,4.8055,4.8184,4.7169,4.6172,4.5239,4.5198,4.4804,4.3999,4.4201,4.4289,4.4289,4.5039,4.5773,4.6493,4.7057,4.7678,4.8306,4.8306,4.8055,4.7695,4.7937,4.7208,4.6047,4.7185,4.7136,4.6575,4.7434,4.7746,4.7641,4.6878,4.6374,4.5901,4.5137,4.4374,4.3495,4.2132,4.1122,4.0461,4.0686,4.1271,4.1644,4.0663,4.073,4.1085,4.1187,4.1136,4.1085,4.1187,4.095,4.062,4.018,4.0096,4.0096,4.0096,4.0096,4.0096,4.0096,3.9673,3.8722,3.7028,3.6357,3.5215,3.3036,3.1958,3.1225,3.0836,3.0986,3.0836,3.0193,3.121,3.1376,3.0477,3.0687,3.0896,3.1091,3.0283,3.0073,3.0507,2.9879,2.934,2.8891,2.8456,2.7506,3.9388,4.1252,4.2443,4.1235,3.7012,3.2786,0.0,2.7165,2.3289,2.279,2.2695,2.3011,2.4073,2.406,2.414,2.4887,2.5948,2.7486,2.982,3.3267,3.6428,0.0,0.0,4.3234,4.5517,4.7716,4.9242,4.9852,4.9134,4.8953,4.955,4.8012,4.6517,4.5244,4.5198,4.4804,4.3999,4.4653,4.5001,4.5001,4.5605,4.6305,4.7094,4.7113,4.7535,4.8306,4.8306,4.8287,4.823,4.7656,4.8247,4.9437,4.8194,4.899,5.0752,5.0169,4.9986,4.9847,4.9044,4.7898,4.6632,4.5776,4.5089,4.4445,4.3612,4.2344,4.133,4.2066,4.2811,4.3037,4.1576,4.2286,4.2987,4.1559,4.2293,4.2953,4.1525,4.1762,4.1856,4.0383,4.0096,4.0096,4.0096,4.0096,4.0096,4.0096,4.0096,3.9274,3.7093,3.6802,3.5938,3.3728,3.3469,3.2931,3.16,3.2093,3.2183,3.1525,3.2108,3.2467,3.2482,3.1839,3.1795,3.2482,3.118,3.0492,3.0507,2.9879,2.9606,2.9564,2.8148,2.6773,3.3934,3.5177,3.5755,3.5001,3.2015,2.9065,2.8303,2.5441,2.2892,2.2734,2.2885,2.314,2.3501,2.3481,2.4035,2.5926,2.669,2.7857,0.0,0.0,0.0,3.9403,4.3978,4.6769,0.0,4.7547,4.8097,4.7674,4.7832,4.7986,4.8088,4.7983,4.7236,4.5718,4.5154,4.4482,4.3684,4.387,4.3981,4.3981,4.4729,4.5223,4.5498,4.6599,4.7241,4.7498,4.8067,4.8636,4.9132,4.8332,4.8698,4.9688,4.9235,4.9585,5.0332,5.064,5.0426,4.9881,4.9089,4.8199,4.7195,4.5918,4.5372,4.5091,4.4432,4.3521,4.2733,4.2997,4.2506,4.2033,4.2547,4.2692,4.2658,4.2682,4.2675,4.2658,4.2709,4.2489,4.2151,4.1677,4.1187,4.0849,4.0849,4.0434,4.0096,4.0096,4.0096,3.9647,3.8406,3.7794,3.6825,3.5137,3.4469,3.3814,3.2946,3.3066,3.3095,3.2886,3.3066,3.3185,3.3185,3.2557,3.2273,3.2512,3.163,3.1182,3.1182,3.0972,3.0672,3.0193,2.9332,2.8685,0.0,3.1484,3.2217,3.1468,2.9222,0.0,2.6421,2.4351,2.259,2.2669,2.2972,2.3236,2.3369,2.3392,2.3891,2.539,2.6433,2.7687,2.9539,0.0,0.0,4.0041,0.0,0.0,4.6335,4.7444,4.7852,4.7047,4.7303,4.7321,4.6967,4.6936,4.6489,4.548,4.5259,4.4617,4.3515,4.3515,4.3662,4.3956,4.4158,4.458,4.5186,4.5883,4.6526,4.7131,4.7626,4.8324,0.0,4.8526,4.9044,5.0173,5.0134,5.0566,5.1215,5.1371,5.0958,5.0216,4.938,4.8472,4.751,4.6546,4.5883,4.5399,4.4786,4.4248,4.3792,4.3504,4.2963,4.2625,4.3223,4.3284,4.32,4.3341,4.3284,4.32,4.3386,4.3047,4.2625,4.2337,4.1694,4.1204,4.1204,4.0578,4.0096,4.0096,4.0096,3.9808,3.8989,3.8497,3.7642,3.6146,3.5554,3.4998,3.4309,3.4008,3.3769,3.3514,3.3724,3.3858,3.3858,3.323,3.3006,3.3245,3.2617,3.2123,3.1869,3.163,3.1152,3.0492,3.0103,2.9831,0.0,2.9454,3.0847,2.9832,0.0,0.0,2.5524,2.3797,0.0,2.2686,2.3009,2.3382,2.3826,2.3862,2.3898,2.4133,2.5845,2.755,0.0,3.2863,0.0,0.0,4.3786,4.5485,4.5308,4.7256,4.8233,4.7568,4.7277,4.6852,4.6227,4.5293,4.4746,4.4691,4.5424,4.5057,4.3533,4.3515,4.3901,4.4691,4.3883,4.4305,4.5792,4.5039,4.5553,4.7021,4.7076,4.759,4.8398,4.8343,4.9334,5.0875,5.0765,5.1701,5.3023,5.2197,5.1474,5.0769,4.9907,4.8764,4.7702,4.7419,4.6472,4.5346,4.4759,4.4564,4.435,4.369,4.3978,4.435,4.3673,4.4045,4.4401,4.3673,4.4062,4.4412,4.3656,4.3504,4.3284,4.2591,4.1863,4.1373,4.1373,4.0696,4.018,4.018,4.013,3.9833,3.9086,3.8935,3.8342,3.6843,3.663,3.6306,3.5554,3.4921,3.4324,3.3679,3.4249,3.4578,3.4578,3.3918,3.3844,3.4503,3.3829,3.317,3.2512,3.1869,3.1227,3.0567,3.0567,3.0268,2.3705,0.0,2.5071,2.4565,2.4032,2.3532,0.0,2.2825,2.2699,2.3021,2.3357,2.4053,2.5622,2.5429,2.5813,2.8265,2.9804,3.1431,3.3518,3.8539,0.0,4.3188,4.6005,4.7197,4.5398,4.6253,4.6872,4.6708,4.5974,4.5719,4.6173,4.5841,4.5351,4.4709,4.4892,4.4507,4.3515,4.3515,4.3901,4.4691,4.3883,4.4011,4.4984,4.4783,4.5241,4.6214,4.6819,4.7939,4.9243,4.8563,4.9646,5.1591,5.0343,5.0857,5.2179,5.1371,5.0977,5.0709,4.9881,4.9376,4.8847,4.7178,4.5808,4.4803,4.4654,4.4164,4.3775,4.4198,4.4012,4.3792,4.4198,4.4479,4.4564,4.435,4.4479,4.4564,4.435,4.4316,4.4265,4.4107,4.342,4.2868,4.2868,4.1813,4.0933,4.0933,4.0468,4.002,3.9833,3.9289,3.8553,3.7632,3.6964,3.6306,3.5554,3.5355,3.519,3.504,3.5175,3.5265,3.5265,3.4607,3.4354,3.4503,3.3829,3.317,3.2512,3.2333,3.1914,3.1256,3.1256,3.1182,2.2498,2.269,2.289,2.2921,2.2822,2.2656,2.2527,2.25,2.2581,2.2747,0.0,0.0,2.5298,2.5206,2.5948,2.9135,3.0661,3.2886,0.0,0.0,4.3846,4.4892,4.6757,4.7615,4.6722,4.6679,4.6607,4.6329,4.5423,4.4935,4.5091,4.4911,4.4599,4.4158,4.4158,4.3938,4.3515,4.3515,4.4085,4.5241,4.4433,4.4672,4.5773,4.504,4.5149,4.592,4.6361,4.7278,4.8434,4.8343,4.9334,5.0822,4.9941,5.0363,5.1353,5.0545,5.0472,5.0674,4.9886,4.9397,4.8805,4.6672,4.5563,4.4944,4.4665,4.4282,4.4045,4.4496,4.4282,4.4045,4.4496,4.4615,4.4615,4.4615,4.4615,4.4615,4.4615,4.4615,4.4615,4.4615,4.3944,4.3392,4.3392,4.2472,4.1593,4.1255,4.1136,4.0874,4.0197,4.0033,3.9385,3.7953,3.7427,3.6692,3.5587,3.5504,3.5504,3.5504,3.5504,3.5504,3.5504,3.5145,3.4951,3.4951,3.4292,3.3769,3.341,3.311,3.2617,3.1959,3.1959,3.1795,2.219,2.2399,2.2586,2.3023,2.291,2.2682,2.2647,0.0,0.0,0.0,0.0,0.0,0.0,2.4949,0.0,0.0,0.0,0.0,3.9806,4.2102,4.3878,4.5755,4.6644,4.7259,4.7719,4.7131,4.6576,4.6176,4.513,4.4346,4.3965,4.367,4.3515,4.3515,4.3515,4.3515,4.3515,4.3515,4.425,4.5718,4.5039,4.5406,4.6691,4.5315,4.5076,4.5718,4.5718,4.625,4.7149,4.7828,4.8691,4.9592,4.9445,4.9884,5.0527,4.9849,5.0013,5.0508,4.9713,4.8932,4.7987,4.612,4.5433,4.5284,4.4748,4.4615,4.4615,4.4615,4.4615,4.4615,4.4615,4.4615,4.4615,4.4615,4.4615,4.4615,4.4615,4.4615,4.4615,4.4615,4.4045,4.3589,4.3589,4.2963,4.2219,4.1474,4.1897,4.1796,4.0451,4.0899,4.0491,3.8219,3.7966,3.7285,3.5634,3.5504,3.5504,3.5504,3.5504,3.5504,3.5504,3.5504,3.5504,3.5504,3.4936,3.4608,3.4503,3.3918,3.3305,3.2662,3.2662,3.2333,2.1331,2.1936,2.2461,2.2718,2.2746,2.2634,2.2412,2.2321,0.0,0.0,0.0,0.0,0.0,2.7692,2.9345,0.0,0.0,3.8779,4.2459,4.4382,4.5279,4.4967,4.6213,4.6617,4.537,4.5131,4.5315,4.5901,4.4545,4.394,4.4528,4.3885,4.3515,4.3515,4.3515,4.3515,4.3515,4.3515,4.3975,4.4892,4.4746,4.4819,4.5058,4.4801,4.4782,4.4892,4.4892,4.5718,4.7113,4.7223,4.8196,4.9537,4.8783,4.9022,4.9776,4.9647,4.9684,4.9678,4.8989,4.795,4.6743,4.5806,4.5152,4.472,4.4626,4.4615,4.4615,4.4615,4.4615,4.4615,4.4615,4.4615,4.4615,4.4615,4.4615,4.4615,4.4615,4.4615,4.4615,4.4615,4.4513,4.4429,4.4429,4.3758,4.2997,4.2236,4.2219,4.1982,4.1136,4.166,4.127,3.8985,3.8745,3.7865,3.5696,3.5504,3.5504,3.5504,3.5504,3.5504,3.5504,3.5504,3.5504,3.5504,3.54,3.5055,3.4503,3.4414,3.3978,3.335,3.335,3.329,2.0448,2.1291,2.2133,2.1953,2.2926,2.3819,2.3278,2.3501,2.398,0.0,0.0,0.0,0.0,0.0,3.1673,3.4832,3.8439,4.1337,4.2656,4.4232,4.5112,4.4745,4.5351,4.5682,4.5388,4.4966,4.4856,4.5223,4.4158,4.3644,4.403,4.3699,4.3515,4.3515,4.3515,4.3515,4.3515,4.3515,4.3901,4.4691,4.4691,4.4947,4.5333,4.4893,4.4691,4.4691,4.4691,4.5369,4.6489,4.6911,4.781,4.8857,4.8471,4.8545,4.8946,4.9466,4.9209,4.8515,4.8264,4.7505,4.6472,4.5383,4.4841,4.4615,4.4615,4.4615,4.4615,4.4615,4.4615,4.4615,4.4615,4.4615,4.4615,4.4615,4.4265,4.4062,4.4513,4.4248,4.4079,4.453,4.4615,4.4615,4.4615,4.4282,4.3792,4.3014,4.325,4.3115,4.1948,4.2439,4.2011,3.9696,3.9436,3.8527,3.6237,3.6342,3.6237,3.5549,3.5504,3.5504,3.5504,3.5504,3.5504,3.5504,3.5504,3.5355,3.504,3.504,3.4681,3.4054,3.4054,3.3844,1.9985,2.1001,2.2101,2.1439,2.2843,2.4359,2.4307,2.502,2.5961,0.0,0.0,0.0,0.0,3.1343,3.384,3.7706,4.0745,4.2723,4.3097,4.4048,4.4782,4.4966,4.4801,4.4874,4.5296,4.4782,4.4415,4.4415,4.3846,4.3515,4.3515,4.3515,4.3515,4.3515,4.3515,4.3515,4.3515,4.3515,4.3809,4.4415,4.4617,4.4929,4.5314,4.4911,4.4617,4.4415,4.4415,4.4984,4.5957,4.6544,4.7388,4.8306,4.8306,4.8545,4.8962,4.9709,4.9358,4.8434,4.7971,4.7346,4.6507,4.5065,4.4615,4.4615,4.4615,4.4615,4.4615,4.4615,4.4615,4.4615,4.4615,4.4615,4.4615,4.4615,4.413,4.3859,4.4479,4.4113,4.3859,4.4496,4.4615,4.4615,4.4615,4.4615,4.4344,4.3511,4.4079,4.4124,4.2726,4.3217,4.2835,4.0691,4.0278,3.9204,3.6914,3.7,3.6776,3.5804,3.5594,3.5504,3.5504,3.5504,3.5504,3.5504,3.5504,3.5504,3.5504,3.5504,3.5235,3.4711,3.4711,3.4442,2.0372,2.1508,2.2775,2.1735,2.1985,2.3016,2.5014,2.6488,2.7807,2.9164,0.0,0.0,0.0,3.3114,3.6204,3.8631,4.0864,4.3114,4.5333,4.5112,4.4984,4.5718,4.5149,4.4433,4.3753,4.3608,4.3589,4.3589,4.3533,4.3515,4.3515,4.3515,4.3515,4.3515,4.3515,4.3515,4.3515,4.3515,4.3533,4.3606,4.4342,4.4342,4.3698,4.4397,4.4287,4.3589,4.3589,4.447,4.5902,4.5957,4.6911,4.8306,4.8306,4.926,5.065,5.0764,5.0826,5.0566,4.8511,4.7367,4.6552,4.5072,4.4615,4.4615,4.4615,4.4615,4.4615,4.4615,4.4615,4.4615,4.4615,4.4615,4.4615,4.4615,4.4564,4.453,4.4598,4.4564,4.4547,4.4598,4.4615,4.4615,4.4615,4.4615,4.4344,4.3511,4.4079,4.4282,4.3426,4.4012,4.3911,4.2303,4.1385,3.996,3.756,3.6851,3.6507,3.6417,3.5848,3.5504,3.5504,3.5504,3.5504,3.5504,3.5504,3.5504,3.5504,3.5504,3.5489,3.5429,3.5429,3.54,2.0599,2.2509,2.4308,2.1515,2.2958,0.0,0.0,2.8423,3.0743,3.194,3.4189,0.0,0.0,0.0,3.7165,3.9897,4.1577,4.2978,4.4233,4.458,4.4635,4.4415,4.414,4.3828,4.3533,4.3515,4.3515,4.3515,4.3515,4.3515,4.3515,4.302,4.2983,4.3478,4.3002,4.2983,4.3515,4.3515,4.3515,4.3515,4.3809,4.3791,4.3515,4.3809,4.3791,4.3515,4.3515,4.4121,4.5186,4.5681,4.6562,4.7645,4.8691,4.9245,4.9495,4.9978,4.9387,4.8225,4.735,4.6351,4.5359,4.4784,4.4615,4.4615,4.4615,4.4615,4.4615,4.4615,4.4615,4.4615,4.4615,4.4615,4.4615,4.4615,4.4215,4.3995,4.4496,4.4198,4.3995,4.4513,4.4615,4.4615,4.4615,4.4615,4.4513,4.4181,4.4429,4.4496,4.4181,4.4401,4.418,4.303,4.126,3.9778,3.8737,3.7674,3.724,3.7644,3.6312,3.5504,3.5504,3.5504,3.5504,3.5504,3.5504,3.5504,3.5504,3.5504,3.5504,3.5504,3.5504,3.5504,2.0415,2.2391,2.4314,2.1552,0.0,0.0,2.7821,3.0541,3.3259,3.4567,3.6258,3.7749,3.856,0.0,3.8018,4.0331,4.1975,4.316,4.3793,4.4121,4.4213,4.3901,4.3662,4.3515,4.3515,4.3515,4.3515,4.3515,4.3515,4.3404,4.313,4.2598,4.2433,4.2727,4.2451,4.2561,4.3112,4.3369,4.3515,4.3515,4.3515,4.3515,4.3515,4.3515,4.3515,4.3515,4.3515,4.3956,4.4746,4.5571,4.6526,4.7645,4.9315,4.9699,4.9361,4.9884,4.9198,4.7922,4.7168,4.6176,4.5186,4.4964,4.4776,4.4615,4.4615,4.4615,4.4615,4.4615,4.4615,4.4615,4.4615,4.4615,4.4666,4.4874,4.435,4.3927,4.4496,4.435,4.4299,4.484,4.4942,4.4942,4.4942,4.4767,4.4615,4.4615,4.4615,4.4615,4.4615,4.4615,4.415,4.3,4.1406,4.0161,3.9436,3.8377,3.7823,3.8063,3.6836,3.6013,3.5818,3.5609,3.5504,3.5504,3.5504,3.5504,3.5504,3.5504,3.5504,3.5504,3.5504,3.5504,1.9774,2.0889,2.2424,2.2017,0.0,0.0,3.019,3.2765,3.5126,3.6951,3.7434,3.7768,3.856,3.8707,3.8964,3.9772,4.1901,4.3754,4.4562,4.3993,4.3773,4.4563,4.3975,4.3496,4.3478,4.3496,4.3496,4.3478,4.3478,4.313,4.2323,4.2286,4.1919,4.1113,4.1882,4.2286,4.2304,4.3094,4.3515,4.3515,4.3515,4.3515,4.3515,4.3515,4.3515,4.3515,4.3515,4.3956,4.4746,4.5571,4.6856,4.8471,5.0141,5.0802,5.0815,5.0859,5.088,5.0572,4.8359,4.7171,4.6481,4.5754,4.5089,4.4598,4.4615,4.4615,4.4615,4.4615,4.4615,4.4615,4.4615,4.4615,4.4801,4.5517,4.5128,4.4615,4.4615,4.5162,4.5703,4.5703,4.5703,4.5703,4.5703,4.5077,4.4615,4.4615,4.4615,4.4615,4.4615,4.4615,4.3931,4.2189,4.2029,4.1329,3.9538,3.8781,3.8123,3.7464,3.7419,3.7135,3.6507,3.5863,3.5519,3.5504,3.5504,3.5504,3.5504,3.5504,3.5504,3.5504,3.5504,3.5504,2.0942,2.2257,2.3809,2.3345,0.0,0.0,0.0,3.27,0.0,0.0,3.9557,3.9273,3.9496,3.9074,3.8964,3.9772,4.0983,4.2103,4.291,4.2818,4.2525,4.2196,4.247,4.2433,4.1882,4.2837,4.302,4.1901,4.2341,4.2304,4.1515,4.0928,4.0763,4.1095,4.1334,4.1735,4.2286,4.3094,4.3515,4.3515,4.3515,4.3515,4.3515,4.3515,4.3515,4.3515,4.3515,4.3956,4.4801,4.6177,4.7351,4.8416,4.9517,4.9978,4.9976,4.9978,4.9683,4.9113,4.7891,4.702,4.6344,4.5717,4.5399,4.5152,4.472,4.4615,4.4615,4.4615,4.4615,4.4733,4.5229,4.4976,4.4666,4.4886,4.4767,4.4615,4.4615,4.4784,4.5077,4.5602,4.528,4.5077,4.5618,4.5077,4.4615,4.4615,4.4615,4.4615,4.4615,4.4615,4.4167,4.3047,4.2909,4.2205,4.0466,4.0144,3.9649,3.8861,3.8362,3.7404,3.5863,3.6058,3.5983,3.5519,3.5504,3.5504,3.5504,3.5504,3.5504,3.5504,3.5504,3.5504,2.0682,2.2414,2.4355,2.487,2.819,3.1575,3.2492,0.0,0.0,0.0,4.0212,3.9515,3.9827,3.9239,3.8964,3.9772,4.0579,4.126,4.1772,4.1827,4.1644,4.115,4.1534,4.1627,4.115,4.1992,4.2139,4.1168,4.1258,4.113,4.0653,3.9863,3.9643,4.0123,4.0469,4.0855,4.1332,4.2139,4.2543,4.2543,4.2873,4.302,4.302,4.3349,4.3515,4.3533,4.3828,4.4433,4.5278,4.6562,4.7571,4.8379,4.9224,4.9592,4.961,4.961,4.9336,4.8886,4.8047,4.7324,4.6687,4.6063,4.5699,4.5399,4.4786,4.4615,4.4615,4.4615,4.4615,4.4716,4.5145,4.4925,4.4682,4.4987,4.479,4.4615,4.4615,4.4852,4.5162,4.5618,4.5331,4.5179,4.5618,4.5077,4.4615,4.4615,4.4615,4.4615,4.4615,4.4615,4.427,4.3396,4.3306,4.2583,4.0844,4.069,4.0221,3.9056,3.8871,3.8033,3.6327,3.6641,3.6552,3.5908,3.6133,3.6267,3.6267,3.6267,3.6267,3.6267,3.6267,3.6267,1.955,2.1668,2.4195,2.6406,2.9708,3.3054,3.5372,3.6944,3.851,4.048,3.979,3.9038,3.9772,3.9184,3.8854,3.9662,4.0414,4.0857,4.0783,4.0893,4.0912,4.0691,4.0783,4.082,4.0673,4.0802,4.082,4.0673,4.0047,3.9643,3.9585,3.8872,3.8487,3.8487,3.9331,3.979,3.979,4.0671,4.1095,4.1113,4.1846,4.2231,4.2323,4.313,4.3515,4.3551,4.436,4.5112,4.5865,4.6727,4.7516,4.8269,4.9077,4.9445,4.9482,4.9482,4.9482,4.9372,4.8563,4.7937,4.7363,4.6641,4.6039,4.5459,4.4786,4.4615,4.4615,4.4615,4.4615,4.4615,4.4615,4.4615,4.4784,4.5432,4.5077,4.4615,4.4615,4.5128,4.5652,4.5771,4.5754,4.572,4.5788,4.5179,4.4682,4.4615,4.4666,4.4699,4.4699,4.4699,4.4399,4.3602,4.3476,4.2738,4.108,4.0844,4.0189,3.8707,3.9101,3.8841,3.7554,3.7494,3.721,3.6582,3.712,3.7404,3.7404,3.7404,3.7404,3.7404,3.7404,3.7404,2.0044,2.1409,2.3505,2.7278,3.2016,3.6164,3.7698,3.7811,3.79,3.8985,3.9441,3.968,3.9863,3.8741,3.8025,3.8836,3.9111,3.9001,3.8358,3.935,3.946,3.7551,3.845,3.8726,3.7441,3.8469,3.8689,3.7422,3.7768,3.7749,3.711,3.6909,3.6817,3.6817,3.8212,3.8964,3.8964,4.038,4.1095,4.1095,4.1279,4.1682,4.2323,4.313,4.3515,4.3551,4.436,4.48,4.5076,4.6507,4.7204,4.7443,4.8251,4.8581,4.8581,4.8581,4.8581,4.8545,4.8379,4.8229,4.7917,4.6778,4.6312,4.6014,4.4934,4.4615,4.4615,4.4615,4.4615,4.4615,4.4615,4.4615,4.4649,4.4818,4.4733,4.4615,4.4615,4.4733,4.519,4.6329,4.6109,4.5889,4.6464,4.5957,4.5263,4.4699,4.5077,4.5466,4.5466,4.5466,4.5392,4.5202,4.468,4.3902,4.2816,4.2125,4.1283,4.0285,3.9682,3.905,3.8212,3.8182,3.7883,3.7225,3.7345,3.7404,3.7404,3.7404,3.7404,3.7404,3.7404,3.7404,2.0624,2.2201,2.4832,2.965,0.0,3.6939,3.7442,3.7529,3.7511,3.7533,3.7881,3.8175,3.8175,3.7492,3.7055,3.7477,3.7551,3.7404,3.6978,3.7658,3.7698,3.645,3.7037,3.7221,3.6376,3.7055,3.7202,3.6358,3.6303,3.6303,3.6303,3.5899,3.5881,3.6285,3.7477,3.812,3.812,3.935,3.9939,3.9958,4.0341,4.1225,4.2575,4.3212,4.3515,4.3551,4.436,4.4691,4.4819,4.6434,4.7094,4.7186,4.7975,4.8306,4.8306,4.8306,4.8306,4.8306,4.8306,4.8094,4.7697,4.671,4.6192,4.5808,4.4879,4.4615,4.4615,4.4615,4.4615,4.4615,4.4615,4.4615,4.4615,4.4615,4.4615,4.4615,4.4615,4.4615,4.4835,4.5613,4.5432,4.5297,4.5698,4.572,4.5568,4.5179,4.5449,4.5838,4.6177,4.5602,4.5314,4.5669,4.5026,4.4253,4.3366,4.2489,4.1642,4.0758,3.99,3.926,3.8901,3.8886,3.8556,3.7883,3.8197,3.8377,3.8377,3.8691,3.8676,3.8377,3.8691,3.8676,2.1114,2.3442,2.6834,3.1621,3.4651,0.0,3.6322,3.6688,3.685,3.6028,3.5862,3.5954,3.6248,3.5844,3.5587,3.6009,3.5844,3.5716,3.5844,3.5991,3.6028,3.5881,3.5991,3.6028,3.5881,3.5862,3.5891,3.5929,3.5101,3.4977,3.5892,3.5083,3.4986,3.5844,3.6652,3.707,3.707,3.7881,3.8358,3.8505,3.9501,4.0922,4.2716,4.323,4.355,4.3716,4.4332,4.4575,4.4685,4.6103,4.6764,4.6966,4.7792,4.8196,4.8306,4.8306,4.8306,4.8306,4.8306,4.7897,4.7299,4.6618,4.5989,4.5399,4.4786,4.4615,4.4615,4.4615,4.4615,4.4615,4.4615,4.4615,4.4615,4.4615,4.4615,4.4615,4.4615,4.4615,4.4649,4.4784,4.4801,4.4801,4.4801,4.5297,4.5669,4.5534,4.5737,4.6058,4.6549,4.5534,4.501,4.5635,4.5026,4.4327,4.3591,4.2724,4.1869,4.0979,4.0115,3.9538,3.9424,3.9388,3.9155,3.8571,3.9125,3.9448,3.9553,4.0023,4.0008,3.9568,4.0023,3.9933,2.1312,0.0,2.8215,0.0,3.3034,3.5424,0.0,0.0,3.5114,3.4302,3.4137,3.4578,3.6028,3.3972,3.2742,3.4821,3.3995,3.3348,3.4045,3.4729,3.4912,3.4211,3.4747,3.4894,3.4192,3.4137,3.4221,3.4457,3.3517,3.3373,3.4414,3.3486,3.328,3.41,3.4912,3.5334,3.5334,3.6193,3.6964,3.7676,3.9419,4.0923,4.2222,4.298,4.3737,4.4433,4.4188,4.4092,4.4135,4.4756,4.5443,4.614,4.6947,4.7681,4.8306,4.8306,4.8306,4.8306,4.8306,4.7897,4.7299,4.6618,4.5989,4.5399,4.4786,4.4615,4.4615,4.4615,4.4615,4.4615,4.4615,4.4615,4.4615,4.4615,4.4615,4.4615,4.4615,4.4615,4.4801,4.5432,4.5551,4.5551,4.5551,4.5635,4.5483,4.4852,4.5821,4.6447,4.5923,4.5669,4.5602,4.5703,4.5026,4.4542,4.4457,4.3621,4.2754,4.1901,4.1013,4.0185,3.9409,3.9388,3.9379,3.929,3.9328,3.9709,4.0277,3.9783,3.9798,4.0247,3.9768,3.9514,2.2204,2.3942,2.6067,0.0,2.9753,3.1954,3.27,3.328,3.3426,3.2614,3.21,3.2155,3.3343,3.2742,3.2265,3.2889,3.2394,3.2045,3.2412,3.2761,3.2852,3.2485,3.2779,3.3018,3.3128,3.3259,3.358,3.4169,3.3771,3.3691,3.4169,3.3603,3.344,3.3788,3.4582,3.5004,3.5004,3.6007,3.7,3.7958,3.8992,4.0488,4.2389,4.294,4.3696,4.458,4.4161,4.4001,4.4026,4.4515,4.4911,4.5351,4.6599,4.7314,4.7681,4.8141,4.8306,4.8306,4.8306,4.7897,4.7363,4.7044,4.6305,4.5459,4.5178,4.4852,4.4615,4.4615,4.4615,4.4615,4.4615,4.4891,4.5213,4.5213,4.5517,4.5821,4.5821,4.55,4.5314,4.5652,4.5365,4.5213,4.5635,4.6041,4.6346,4.6447,4.665,4.6819,4.6938,4.5855,4.5229,4.5669,4.5026,4.4615,4.4615,4.3814,4.2939,4.2062,4.118,4.0309,3.946,3.9388,3.9388,3.9388,3.9783,4.0113,4.0397,4.0846,4.1025,4.0935,4.0651,4.0322,2.2617,0.0,2.4204,2.4965,2.6933,2.8865,0.0,3.0675,3.1445,3.065,3.032,3.0191,3.0173,3.0999,3.161,3.1433,3.1054,3.0925,3.1342,3.1231,3.1176,3.1378,3.1397,3.1641,3.2247,3.271,3.3191,3.3669,3.3687,3.3781,3.3986,3.3562,3.3445,3.3788,3.4457,3.481,3.481,3.5925,3.7045,3.8131,3.8574,4.0187,4.2747,4.2998,4.3694,4.4714,4.4318,4.4087,4.4008,4.4292,4.4525,4.4838,4.625,4.6911,4.7204,4.8012,4.8306,4.8306,4.8306,4.7897,4.7406,4.7406,4.6635,4.5681,4.5563,4.5178,4.4786,4.4654,4.4615,4.4615,4.4615,4.4993,4.5415,4.5415,4.5838,4.6329,4.6718,4.6363,4.5923,4.5737,4.5399,4.5263,4.5652,4.6464,4.7208,4.7581,4.7141,4.6921,4.728,4.5737,4.4818,4.5348,4.4925,4.4682,4.484,4.4106,4.3235,4.235,4.1491,4.0612,3.9685,3.9664,3.9664,3.9664,4.0472,4.0816,4.0651,4.1677,4.1991,4.1662,4.1497,4.1025,0.0,2.289,0.0,2.3977,2.5663,2.7477,0.0,2.8583,2.895,2.8154,2.9163,2.9512,2.7273,2.8124,2.9666,3.1158,3.0118,2.9647,3.1195,3.0742,3.0558,3.1323,3.1397,3.1415,3.147,3.2388,3.2812,3.2335,3.2298,3.2647,3.3389,3.2465,3.2487,3.3765,3.408,3.4239,3.4239,3.536,3.6506,3.765,3.8432,4.0299,4.3069,4.3096,4.3828,4.5063,4.4726,4.4346,4.3971,4.3666,4.4011,4.4764,4.5626,4.6434,4.7204,4.8012,4.8306,4.8306,4.8306,4.7897,4.7406,4.7406,4.6932,4.624,4.5656,4.5485,4.5346,4.4759,4.4615,4.4615,4.4615,4.4632,4.4666,4.4666,4.4699,4.5106,4.6481,4.6752,4.6532,4.5838,4.6227,4.6481,4.5821,4.6904,4.7631,4.6955,4.6819,4.6549,4.5906,4.5094,4.4615,4.4649,4.4632,4.4874,4.5585,4.4964,4.4127,4.3121,4.2349,4.146,4.0396,4.0352,4.0352,4.0352,4.1647,4.1991,4.1324,4.1437,4.1767,4.2336,4.1707,4.1025,0.0,0.0,0.0,2.3066,2.3666,2.4508,2.5314,2.6098,2.6623,2.6311,2.7126,2.764,2.6749,2.7923,2.8858,2.8393,2.8264,2.8429,2.901,2.9292,2.9537,2.9831,2.9849,3.0134,3.0828,3.1381,3.1893,3.2364,3.2277,3.2336,3.2609,3.2434,3.2607,3.3259,3.388,3.4383,3.4765,3.5173,3.5935,3.7037,3.7873,3.9391,4.1431,4.1787,4.2683,4.3937,4.3598,4.366,4.3971,4.3629,4.3663,4.4011,4.4819,4.5296,4.5645,4.6471,4.7095,4.7516,4.7516,4.7731,4.7995,4.7995,4.7554,4.6932,4.6264,4.5808,4.5355,4.4759,4.4615,4.4615,4.4615,4.4942,4.5415,4.5889,4.602,4.6143,4.6684,4.6786,4.6853,4.7073,4.6566,4.6312,4.7005,4.7534,4.7986,4.8189,4.7817,4.7242,4.6498,4.5754,4.5111,4.4649,4.4615,4.4919,4.5652,4.5466,4.4673,4.3202,4.2847,4.2016,4.0456,4.0397,4.0397,4.0397,4.1737,4.2081,4.1422,4.2222,4.2746,4.297,4.2312,4.1916,2.3338,0.0,0.0,0.0,2.2856,2.3037,2.3335,2.4016,2.4585,2.4585,2.5236,2.5786,2.5786,2.6888,2.7519,2.673,2.7053,2.7402,2.7402,2.7849,2.8198,2.8198,2.8198,2.846,2.9201,2.9981,3.062,3.0997,3.1504,3.1798,3.1761,3.2205,3.2847,3.3675,3.422,3.4736,3.5223,3.5231,3.5722,3.6712,3.7584,3.8873,4.0527,4.1342,4.2294,4.3296,4.324,4.3438,4.3802,4.3597,4.3515,4.3588,4.4397,4.4691,4.48,4.5608,4.6416,4.7094,4.7094,4.7626,4.8306,4.8306,4.8035,4.7551,4.6664,4.6119,4.5648,4.4841,4.4615,4.4615,4.4615,4.4942,4.5517,4.6261,4.643,4.6498,4.6735,4.6786,4.6938,4.7445,4.6955,4.6769,4.772,4.8122,4.8443,4.8934,4.8392,4.7648,4.6887,4.6363,4.5686,4.4716,4.5055,4.5534,4.6024,4.6075,4.5424,4.3909,4.3584,4.2724,4.1153,4.1055,4.1055,4.1055,4.2132,4.2372,4.1752,4.2806,4.329,4.329,4.2895,4.2605,0.0,0.0,0.0,0.0,2.3318,2.3324,2.209,2.2391,2.2951,2.2951,2.3602,2.4153,2.4135,2.4768,2.5558,2.6355,2.6528,2.6547,2.6547,2.6594,2.6602,2.6602,2.6602,2.6594,2.6605,2.8289,2.9006,2.8175,2.9889,3.094,3.0894,3.1751,3.3108,3.5001,3.5086,3.5211,3.5462,3.5481,3.5885,3.6673,3.7546,3.8834,4.0469,4.1781,4.2701,4.3246,4.3716,4.3749,4.3478,4.3496,4.3515,4.3588,4.436,4.4654,4.4746,4.5535,4.6361,4.7058,4.7058,4.7608,4.8306,4.8306,4.8306,4.8075,4.6801,4.643,4.6161,4.4978,4.4615,4.4615,4.4615,4.4615,4.4784,4.55,4.5669,4.5872,4.6583,4.6735,4.6735,4.6802,4.7394,4.7872,4.7906,4.8545,4.9001,4.9001,4.8409,4.7682,4.6921,4.6819,4.6261,4.4801,4.5923,4.6786,4.6752,4.6802,4.6374,4.5225,4.4527,4.3631,4.2443,4.2396,4.2396,4.2396,4.3,4.3015,4.2396,4.3015,4.329,4.329,4.329,4.3,2.3539,0.0,0.0,0.0,0.0,0.0,2.1868,2.1978,2.2125,2.2125,2.2776,2.3162,2.2565,2.2657,2.3061,2.3868,2.4961,2.5723,2.5723,2.6227,2.6602,2.6602,2.6602,2.6659,2.6813,2.782,2.8437,2.8392,2.928,3.017,3.0921,3.2496,3.3595,3.4151,3.4963,3.5124,3.4564,3.5173,3.5615,3.5846,3.6673,3.7623,3.8712,3.9221,4.0204,4.1506,4.1783,4.2182,4.2671,4.3259,4.3515,4.3533,4.3736,4.3828,4.3864,4.4066,4.5039,4.6232,4.6232,4.715,4.8306,4.8306,4.8306,4.8134,4.7345,4.6778,4.6363,4.61,4.5343,4.4615,4.4615,4.4615,4.4649,4.4869,4.4919,4.497,4.5173,4.5224,4.5669,4.7293,4.7344,4.7445,4.8528,4.8866,4.9001,4.9001,4.8832,4.8443,4.7699,4.7614,4.7039,4.5551,4.6227,4.6583,4.6058,4.6989,4.6676,4.4549,4.4703,4.4153,4.2458,4.2396,4.2396,4.2396,4.3,4.3015,4.2396,4.3015,4.329,4.329,4.329,4.32,0.0,0.0,0.0,0.0,0.0,0.0,2.1418,2.1253,2.1253,2.1253,2.163,2.1924,2.1812,2.1794,2.1959,2.2428,2.33,2.4126,2.4805,2.5291,2.5603,2.5603,2.5603,2.5636,2.5764,2.6506,2.7205,2.7795,2.8465,2.9514,3.105,3.2588,3.3592,3.396,3.4964,3.525,3.4757,3.525,3.55,3.5519,3.6327,3.7161,3.8012,3.8699,3.9849,4.1305,4.1664,4.2196,4.2837,4.3296,4.3515,4.3515,4.3515,4.3515,4.3515,4.3515,4.4305,4.5406,4.5406,4.6232,4.7352,4.7681,4.7791,4.7751,4.7464,4.6932,4.6352,4.6195,4.5404,4.4615,4.4615,4.4615,4.4682,4.4976,4.4835,4.4682,4.4976,4.4835,4.5173,4.7073,4.709,4.7259,4.8748,4.9001,4.9001,4.9001,4.9001,4.8731,4.7973,4.8159,4.78,4.6312,4.709,4.7428,4.6701,4.7699,4.7567,4.5682,4.5582,4.4946,4.345,4.2995,4.2641,4.2396,4.3,4.315,4.2776,4.315,4.329,4.329,4.329,4.329,0.0,0.0,0.0,0.0,2.3006,0.0,2.1006,2.0639,2.0621,2.0529,2.0503,2.0713,2.1408,2.1519,2.1574,2.1776,2.1721,2.2198,2.3712,2.4006,2.4061,2.4061,2.4153,2.419,2.419,2.4934,2.5825,2.6832,2.7867,2.9294,3.1207,3.2319,3.3256,3.4032,3.4911,3.5365,3.5365,3.5442,3.55,3.5519,3.6212,3.7065,3.8038,3.9156,4.0434,4.177,4.2263,4.2778,4.3239,4.3331,4.3423,4.3515,4.3515,4.3515,4.3515,4.3515,4.4011,4.4691,4.4691,4.5241,4.6012,4.6727,4.7021,4.7147,4.7311,4.6972,4.6383,4.5783,4.522,4.4794,4.4709,4.4654,4.4784,4.5415,4.506,4.4784,4.5432,4.5043,4.5021,4.6397,4.6667,4.7141,4.8629,4.8883,4.8917,4.8984,4.9001,4.8765,4.8122,4.8595,4.8477,4.7073,4.8173,4.868,4.7868,4.8545,4.8574,4.7539,4.6664,4.5762,4.4849,4.3849,4.306,4.2515,4.3045,4.329,4.329,4.329,4.329,4.329,4.329,4.329,0.0,0.0,0.0,0.0,0.0,0.0,2.1776,2.1555,2.1345,2.0639,2.0503,2.0346,1.9885,1.9793,2.0233,2.1574,2.1216,2.1106,2.2125,2.2832,2.3226,2.3226,2.3804,2.419,2.419,2.4934,2.5825,2.6832,2.9257,3.086,3.1279,3.2319,3.2987,3.3141,3.4007,3.4449,3.4449,3.5154,3.55,3.55,3.5654,3.6519,3.7993,3.7775,3.8535,4.008,4.0344,4.0898,4.1625,4.2268,4.291,4.3515,4.3515,4.3515,4.3515,4.3515,4.4011,4.4691,4.4691,4.5241,4.592,4.6085,4.6562,4.7112,4.7145,4.7186,4.7084,4.6407,4.6219,4.6079,4.5475,4.4944,4.4649,4.4784,4.4716,4.4649,4.4801,4.4699,4.4869,4.5737,4.5923,4.638,4.7838,4.8091,4.8342,4.8917,4.9001,4.8951,4.8798,4.8917,4.8663,4.78,4.8477,4.846,4.7124,4.824,4.8341,4.6814,4.6405,4.5762,4.4849,4.3849,4.323,4.315,4.323,4.329,4.329,4.329,4.329,4.329,4.329,4.329,0.0,0.0,0.0,2.3189,0.0,0.0,0.0,2.1794,2.1684,2.1235,2.0876,2.0509,1.9984,2.0059,2.0434,2.1178,2.0941,2.0841,2.1391,2.2003,2.2391,2.2391,2.2767,2.3162,2.3566,2.4063,2.4981,2.6491,2.8481,2.9787,3.0171,3.1117,3.1852,3.2295,3.3551,3.4205,3.4205,3.5064,3.55,3.55,3.55,3.6296,3.774,3.7443,3.8282,3.9976,4.0517,4.088,4.1187,4.2396,4.2892,4.2928,4.3332,4.3515,4.3515,4.3515,4.3754,4.4103,4.4103,4.436,4.4764,4.5168,4.5571,4.6049,4.6856,4.7239,4.7259,4.6594,4.6227,4.5979,4.5598,4.5035,4.4615,4.4615,4.4615,4.4615,4.4615,4.4615,4.4716,4.5077,4.5145,4.5618,4.7107,4.7682,4.7889,4.7902,4.8223,4.846,4.846,4.846,4.8325,4.7922,4.8578,4.8562,4.7445,4.8359,4.863,4.782,4.7209,4.647,4.5541,4.4571,4.381,4.329,4.3015,4.3015,4.329,4.381,4.3771,4.329,4.329,4.329,0.0,0.0,0.0,0.0,0.0,2.3024,0.0,0.0,0.0,2.1881,2.1401,2.0994,2.0873,2.1117,2.1274,2.1131,2.1092,2.1083,2.1085,2.1421,2.1725,2.1884,2.1875,2.2263,2.3241,2.3665,2.456,2.6187,2.7294,2.8184,2.8838,2.9679,3.0538,3.1429,3.3083,3.4032,3.4205,3.5064,3.55,3.55,3.5446,3.6139,3.7508,3.7386,3.835,4.0114,4.075,4.0988,4.0983,4.2433,4.2745,4.2378,4.3185,4.3515,4.3515,4.3515,4.3515,4.3515,4.3515,4.3515,4.3625,4.4268,4.4563,4.4966,4.6415,4.708,4.7211,4.6542,4.6038,4.5648,4.552,4.5035,4.4615,4.4615,4.4615,4.4615,4.4615,4.4615,4.4615,4.4615,4.4615,4.5038,4.6346,4.7208,4.7547,4.7073,4.7648,4.8091,4.8091,4.7973,4.7939,4.8091,4.8392,4.8392,4.7922,4.846,4.8731,4.8595,4.7829,4.6961,4.6086,4.5128,4.4273,4.3591,4.2923,4.2923,4.3591,4.4396,4.4297,4.329,4.3488,4.3472,0.0,0.0,0.0,0.0,2.4061,0.0,2.3043,0.0,2.271,2.2102,0.0,2.1912,2.2065,0.0,0.0,2.2129,2.2123,2.1872,2.1123,2.1111,2.1431,2.2164,2.2187,2.2799,2.4448,2.542,2.6053,2.6282,2.7294,2.7934,2.803,2.8819,2.964,3.0519,3.2179,3.341,3.4186,3.5064,3.55,3.55,3.5266,3.598,3.7471,3.7013,3.7697,3.9234,3.9099,3.9415,4.0102,4.1001,4.1754,4.2378,4.3185,4.3515,4.3515,4.3515,4.3515,4.3515,4.3515,4.3515,4.3533,4.3625,4.4121,4.4856,4.5755,4.6543,4.7013,4.6398,4.6261,4.6167,4.5648,4.5035,4.4615,4.4615,4.4615,4.4615,4.4615,4.4615,4.4615,4.4615,4.4615,4.4869,4.5686,4.6447,4.7124,4.7669,4.8409,4.8883,4.8883,4.8308,4.8142,4.8815,4.7784,4.7276,4.7838,4.7973,4.7767,4.709,4.6782,4.6289,4.5503,4.442,4.4081,4.4624,4.3711,4.3672,4.4624,4.4737,4.4297,4.3329,4.422,4.4143,0.0,0.0,0.0,0.0,0.0,0.0,2.3768,0.0,2.3789,2.3508,0.0,0.0,0.0,0.0,0.0,0.0,2.2871,2.2905,2.2146,2.1578,2.1115,2.0878,2.1274,2.225,2.405,2.5012,2.5594,2.5713,2.6142,2.6621,2.7121,2.7953,2.88,2.9621,3.1756,3.3083,3.343,3.4808,3.55,3.55,3.5223,3.5855,3.7244,3.6868,3.7482,3.8892,3.9243,3.9313,3.9294,4.0581,4.1297,4.168,4.2488,4.3075,4.3515,4.3515,4.3515,4.3515,4.3515,4.3515,4.3515,4.3515,4.4048,4.4746,4.5112,4.5773,4.6286,4.5727,4.5322,4.5029,4.4891,4.4411,4.4012,4.4496,4.4231,4.4028,4.4513,4.4215,4.4045,4.4513,4.4615,4.4699,4.4993,4.6024,4.6904,4.7225,4.753,4.7716,4.7716,4.709,4.6752,4.7056,4.6904,4.6752,4.665,4.7022,4.7124,4.6802,4.6616,4.6552,4.6683,4.5156,4.448,4.4812,4.381,4.3512,4.3927,4.5064,4.4803,4.3329,4.432,4.4259,2.419,0.0,0.0,0.0,2.4275,2.4294,2.4348,2.4478,2.4591,2.4628,2.437,0.0,0.0,0.0,0.0,0.0,0.0,2.3873,2.2938,2.2379,2.1712,2.0736,2.1187,2.1997,2.3066,2.4137,2.4807,2.4957,2.5173,2.5577,2.6212,2.7294,2.8165,2.8742,3.1468,3.2891,3.2891,3.4635,3.55,3.55,3.5223,3.5732,3.6879,3.6827,3.7452,3.8635,3.9361,3.9353,3.8914,4.0226,4.0893,4.1168,4.1992,4.2782,4.3515,4.3515,4.3515,4.3515,4.3515,4.3515,4.3515,4.3515,4.3901,4.4378,4.4378,4.4929,4.5425,4.4696,4.4442,4.4295,4.3927,4.3773,4.3775,4.3938,4.3842,4.3775,4.3938,4.3842,4.3842,4.4198,4.4462,4.4666,4.4886,4.5788,4.6498,4.6498,4.6667,4.6786,4.6786,4.616,4.5788,4.5974,4.6109,4.6126,4.6007,4.6312,4.6583,4.6786,4.6466,4.6689,4.7651,4.5882,4.4966,4.519,4.395,4.3448,4.3693,4.5122,4.5217,4.4113,4.5101,4.4743,2.419,2.419,2.4256,2.4435,2.4495,2.4545,2.4738,2.479,2.4828,2.4962,2.496,2.5013,2.5215,0.0,0.0,0.0,0.0,0.0,0.0,2.3509,2.3697,2.2808,2.2731,2.2442,2.165,2.312,2.4125,2.4149,2.487,2.5308,2.5346,2.6967,2.7915,2.7934,3.116,3.2891,3.2891,3.4635,3.55,3.55,3.5223,3.5526,3.6348,3.6856,3.754,3.835,3.8881,3.9104,3.9132,3.9703,4.0396,4.1168,4.1992,4.2782,4.3515,4.3515,4.3515,4.3515,4.3515,4.3515,4.3515,4.3515,4.3533,4.3551,4.3551,4.4103,4.4492,4.3301,4.4036,4.4724,4.2851,4.3447,4.4192,4.2709,4.347,4.4175,4.2675,4.3532,4.4333,4.3589,4.4062,4.4835,4.5551,4.5703,4.5737,4.5737,4.6346,4.6786,4.6786,4.616,4.5974,4.6684,4.5529,4.5258,4.6633,4.6126,4.6041,4.6752,4.6114,4.6372,4.7825,4.6093,4.5432,4.6122,4.4289,4.3771,4.4737,4.4812,4.5285,4.6138,4.7054,4.5996,2.4357,2.4401,2.4444,2.4647,2.47,2.4716,2.4782,2.4876,2.4962,2.4998,2.5105,2.5219,0.0,0.0,0.0,0.0,0.0,0.0,0.0,2.3918,2.379,2.2959,2.2828,2.2913,2.3182,2.4235,2.4889,2.4889,2.5154,2.5308,2.5308,2.6409,2.7294,2.7876,3.0083,3.1519,3.2102,3.3218,3.4064,3.4641,3.437,3.4954,3.6328,3.6857,3.7543,3.8339,3.9105,3.9302,3.9117,3.931,4.004,4.1132,4.1389,4.2323,4.3515,4.3515,4.3515,4.3515,4.3515,4.3515,4.3515,4.3515,4.3515,4.3515,4.3515,4.3681,4.367,4.2516,4.2904,4.3476,4.2552,4.3047,4.3809,4.3809,4.3809,4.3809,4.3809,4.3809,4.3876,4.413,4.4401,4.4682,4.4925,4.4959,4.5466,4.6955,4.6955,4.6786,4.6786,4.616,4.5602,4.5376,4.4902,4.4801,4.5309,4.5139,4.528,4.6024,4.5838,4.6363,4.7821,4.6093,4.545,4.6208,4.4289,4.3771,4.4812,4.5416,4.5905,4.6208,4.7155,4.64,2.4461,2.4543,2.4654,2.4835,2.4864,2.4896,2.4955,2.503,2.5105,2.5105,2.5208,2.5308,2.5308,0.0,0.0,0.0,0.0,0.0,0.0,2.4326,2.3945,2.3461,2.3062,2.3068,2.3647,2.4455,2.4938,2.4919,2.5161,2.5336,2.5308,2.6135,2.7005,2.7876,2.9519,3.0827,3.1698,3.2506,3.3333,3.4205,3.4024,3.4676,3.6056,3.6994,3.7699,3.824,3.9326,3.9656,3.9426,3.9205,3.995,4.1267,4.116,4.2084,4.3515,4.3515,4.3515,4.3515,4.3515,4.3515,4.3515,4.3515,4.3515,4.3515,4.3515,4.3515,4.3323,4.2424,4.2723,4.3137,4.2484,4.3047,4.3826,4.3802,4.3792,4.3826,4.3802,4.3809,4.391,4.413,4.4412,4.4615,4.4615,4.4615,4.5089,4.6515,4.6549,4.6413,4.6413,4.6227,4.5805,4.506,4.4976,4.4874,4.4632,4.4852,4.5179,4.5669,4.5703,4.6244,4.7462,4.6289,4.5932,4.6696,4.4803,4.4442,4.5698,4.5687,4.5869,4.6208,4.6815,4.6276]}]]